<?xml version="1.0" encoding="UTF-8" standalone="no" ?>
<gpx xmlns="http://www.topografix.com/GPX/1/1" xmlns:xsi="http://www.w3.org/2001/XMLSchema-instance" xsi:schemaLocation="http://www.topografix.com/GPX/1/1 http://www.topografix.com/GPX/1/1/gpx.xsd" version="1.1" creator="VisuGPX - https://www.visugpx.com">
  <metadata>
    <name>Ski Rando - Tentative Pic Vaillette d\'Esteil 2347m</name>
    <desc><![CDATA[Avec Patrick et Henri.
1/2 tour sous le sommet à 80m.
Beaucoup de vent avec risque de plaque , la décision du 1/2 tour était sage.]]></desc>
  </metadata>
  <trk>
    <name><![CDATA[03-FEV-14 17:09:08]]></name>
    <trkseg>
      <trkpt lat="42.64972" lon="1.82688">
        <ele>1294.07</ele>
        <time>2014-02-03T08:42:20Z</time>
      </trkpt>
      <trkpt lat="42.64972" lon="1.82688">
        <ele>1292.15</ele>
        <time>2014-02-03T08:42:33Z</time>
      </trkpt>
      <trkpt lat="42.64975" lon="1.82689">
        <ele>1291.19</ele>
        <time>2014-02-03T08:42:49Z</time>
      </trkpt>
      <trkpt lat="42.64975" lon="1.82689">
        <ele>1291.19</ele>
        <time>2014-02-03T08:42:51Z</time>
      </trkpt>
      <trkpt lat="42.64976" lon="1.82689">
        <ele>1292.63</ele>
        <time>2014-02-03T08:43:01Z</time>
      </trkpt>
      <trkpt lat="42.64974" lon="1.82686">
        <ele>1293.59</ele>
        <time>2014-02-03T08:43:18Z</time>
      </trkpt>
      <trkpt lat="42.64974" lon="1.82685">
        <ele>1294.55</ele>
        <time>2014-02-03T08:43:30Z</time>
      </trkpt>
      <trkpt lat="42.64973" lon="1.82687">
        <ele>1294.55</ele>
        <time>2014-02-03T08:43:44Z</time>
      </trkpt>
      <trkpt lat="42.64972" lon="1.82689">
        <ele>1294.55</ele>
        <time>2014-02-03T08:43:58Z</time>
      </trkpt>
      <trkpt lat="42.64973" lon="1.82688">
        <ele>1295.03</ele>
        <time>2014-02-03T08:44:07Z</time>
      </trkpt>
      <trkpt lat="42.64975" lon="1.82689">
        <ele>1295.03</ele>
        <time>2014-02-03T08:44:21Z</time>
      </trkpt>
      <trkpt lat="42.64976" lon="1.8269">
        <ele>1295.03</ele>
        <time>2014-02-03T08:44:22Z</time>
      </trkpt>
      <trkpt lat="42.64978" lon="1.82692">
        <ele>1295.51</ele>
        <time>2014-02-03T08:44:27Z</time>
      </trkpt>
      <trkpt lat="42.64981" lon="1.82693">
        <ele>1295.99</ele>
        <time>2014-02-03T08:44:31Z</time>
      </trkpt>
      <trkpt lat="42.64994" lon="1.82687">
        <ele>1297.92</ele>
        <time>2014-02-03T08:44:46Z</time>
      </trkpt>
      <trkpt lat="42.65005" lon="1.82681">
        <ele>1299.36</ele>
        <time>2014-02-03T08:44:59Z</time>
      </trkpt>
      <trkpt lat="42.65017" lon="1.82676">
        <ele>1300.8</ele>
        <time>2014-02-03T08:45:14Z</time>
      </trkpt>
      <trkpt lat="42.65028" lon="1.82671">
        <ele>1302.24</ele>
        <time>2014-02-03T08:45:28Z</time>
      </trkpt>
      <trkpt lat="42.65034" lon="1.82666">
        <ele>1304.65</ele>
        <time>2014-02-03T08:45:41Z</time>
      </trkpt>
      <trkpt lat="42.6504" lon="1.82663">
        <ele>1304.17</ele>
        <time>2014-02-03T08:45:51Z</time>
      </trkpt>
      <trkpt lat="42.65048" lon="1.82661">
        <ele>1304.65</ele>
        <time>2014-02-03T08:46:04Z</time>
      </trkpt>
      <trkpt lat="42.65058" lon="1.82657">
        <ele>1305.61</ele>
        <time>2014-02-03T08:46:17Z</time>
      </trkpt>
      <trkpt lat="42.65067" lon="1.82653">
        <ele>1307.53</ele>
        <time>2014-02-03T08:46:30Z</time>
      </trkpt>
      <trkpt lat="42.65077" lon="1.82648">
        <ele>1308.49</ele>
        <time>2014-02-03T08:46:41Z</time>
      </trkpt>
      <trkpt lat="42.65088" lon="1.82644">
        <ele>1310.41</ele>
        <time>2014-02-03T08:46:56Z</time>
      </trkpt>
      <trkpt lat="42.65096" lon="1.8264">
        <ele>1311.86</ele>
        <time>2014-02-03T08:47:09Z</time>
      </trkpt>
      <trkpt lat="42.65106" lon="1.82636">
        <ele>1311.38</ele>
        <time>2014-02-03T08:47:22Z</time>
      </trkpt>
      <trkpt lat="42.65106" lon="1.82636">
        <ele>1311.86</ele>
        <time>2014-02-03T08:47:23Z</time>
      </trkpt>
      <trkpt lat="42.65109" lon="1.82635">
        <ele>1311.86</ele>
        <time>2014-02-03T08:47:27Z</time>
      </trkpt>
      <trkpt lat="42.65119" lon="1.82629">
        <ele>1313.78</ele>
        <time>2014-02-03T08:47:41Z</time>
      </trkpt>
      <trkpt lat="42.65123" lon="1.82628">
        <ele>1314.26</ele>
        <time>2014-02-03T08:47:48Z</time>
      </trkpt>
      <trkpt lat="42.65133" lon="1.82622">
        <ele>1315.22</ele>
        <time>2014-02-03T08:48:00Z</time>
      </trkpt>
      <trkpt lat="42.65141" lon="1.82618">
        <ele>1317.14</ele>
        <time>2014-02-03T08:48:14Z</time>
      </trkpt>
      <trkpt lat="42.65145" lon="1.82618">
        <ele>1317.62</ele>
        <time>2014-02-03T08:48:18Z</time>
      </trkpt>
      <trkpt lat="42.65155" lon="1.82613">
        <ele>1318.59</ele>
        <time>2014-02-03T08:48:33Z</time>
      </trkpt>
      <trkpt lat="42.65157" lon="1.82612">
        <ele>1318.59</ele>
        <time>2014-02-03T08:48:35Z</time>
      </trkpt>
      <trkpt lat="42.65165" lon="1.82602">
        <ele>1318.59</ele>
        <time>2014-02-03T08:48:49Z</time>
      </trkpt>
      <trkpt lat="42.65173" lon="1.82597">
        <ele>1320.99</ele>
        <time>2014-02-03T08:49:02Z</time>
      </trkpt>
      <trkpt lat="42.65183" lon="1.82594">
        <ele>1322.91</ele>
        <time>2014-02-03T08:49:16Z</time>
      </trkpt>
      <trkpt lat="42.6519" lon="1.82585">
        <ele>1324.35</ele>
        <time>2014-02-03T08:49:29Z</time>
      </trkpt>
      <trkpt lat="42.65196" lon="1.82576">
        <ele>1325.31</ele>
        <time>2014-02-03T08:49:42Z</time>
      </trkpt>
      <trkpt lat="42.65204" lon="1.82564">
        <ele>1327.72</ele>
        <time>2014-02-03T08:49:54Z</time>
      </trkpt>
      <trkpt lat="42.65212" lon="1.82553">
        <ele>1329.16</ele>
        <time>2014-02-03T08:50:07Z</time>
      </trkpt>
      <trkpt lat="42.65217" lon="1.82545">
        <ele>1330.12</ele>
        <time>2014-02-03T08:50:17Z</time>
      </trkpt>
      <trkpt lat="42.65228" lon="1.82535">
        <ele>1332.04</ele>
        <time>2014-02-03T08:50:33Z</time>
      </trkpt>
      <trkpt lat="42.6523" lon="1.82534">
        <ele>1332.04</ele>
        <time>2014-02-03T08:50:36Z</time>
      </trkpt>
      <trkpt lat="42.65235" lon="1.82524">
        <ele>1332.04</ele>
        <time>2014-02-03T08:50:50Z</time>
      </trkpt>
      <trkpt lat="42.65233" lon="1.82515">
        <ele>1333.01</ele>
        <time>2014-02-03T08:50:58Z</time>
      </trkpt>
      <trkpt lat="42.65226" lon="1.82498">
        <ele>1331.56</ele>
        <time>2014-02-03T08:51:11Z</time>
      </trkpt>
      <trkpt lat="42.65223" lon="1.82493">
        <ele>1331.56</ele>
        <time>2014-02-03T08:51:15Z</time>
      </trkpt>
      <trkpt lat="42.6522" lon="1.8249">
        <ele>1331.08</ele>
        <time>2014-02-03T08:51:18Z</time>
      </trkpt>
      <trkpt lat="42.65217" lon="1.82483">
        <ele>1330.6</ele>
        <time>2014-02-03T08:51:30Z</time>
      </trkpt>
      <trkpt lat="42.65216" lon="1.8248">
        <ele>1330.6</ele>
        <time>2014-02-03T08:51:32Z</time>
      </trkpt>
      <trkpt lat="42.65211" lon="1.82471">
        <ele>1329.16</ele>
        <time>2014-02-03T08:51:44Z</time>
      </trkpt>
      <trkpt lat="42.65211" lon="1.82469">
        <ele>1329.16</ele>
        <time>2014-02-03T08:52:02Z</time>
      </trkpt>
      <trkpt lat="42.65211" lon="1.82468">
        <ele>1329.64</ele>
        <time>2014-02-03T08:52:04Z</time>
      </trkpt>
      <trkpt lat="42.65209" lon="1.82462">
        <ele>1330.12</ele>
        <time>2014-02-03T08:52:09Z</time>
      </trkpt>
      <trkpt lat="42.65205" lon="1.82446">
        <ele>1332.04</ele>
        <time>2014-02-03T08:52:22Z</time>
      </trkpt>
      <trkpt lat="42.65203" lon="1.82438">
        <ele>1334.45</ele>
        <time>2014-02-03T08:52:32Z</time>
      </trkpt>
      <trkpt lat="42.65202" lon="1.82432">
        <ele>1334.93</ele>
        <time>2014-02-03T08:52:36Z</time>
      </trkpt>
      <trkpt lat="42.65201" lon="1.82429">
        <ele>1335.41</ele>
        <time>2014-02-03T08:52:38Z</time>
      </trkpt>
      <trkpt lat="42.652" lon="1.82422">
        <ele>1336.37</ele>
        <time>2014-02-03T08:52:43Z</time>
      </trkpt>
      <trkpt lat="42.65197" lon="1.82413">
        <ele>1337.33</ele>
        <time>2014-02-03T08:52:51Z</time>
      </trkpt>
      <trkpt lat="42.65195" lon="1.82401">
        <ele>1336.85</ele>
        <time>2014-02-03T08:53:06Z</time>
      </trkpt>
      <trkpt lat="42.65193" lon="1.82391">
        <ele>1337.33</ele>
        <time>2014-02-03T08:53:18Z</time>
      </trkpt>
      <trkpt lat="42.6519" lon="1.82381">
        <ele>1336.85</ele>
        <time>2014-02-03T08:53:28Z</time>
      </trkpt>
      <trkpt lat="42.65186" lon="1.82369">
        <ele>1337.81</ele>
        <time>2014-02-03T08:53:40Z</time>
      </trkpt>
      <trkpt lat="42.65181" lon="1.82359">
        <ele>1337.33</ele>
        <time>2014-02-03T08:53:54Z</time>
      </trkpt>
      <trkpt lat="42.65177" lon="1.8235">
        <ele>1338.29</ele>
        <time>2014-02-03T08:54:06Z</time>
      </trkpt>
      <trkpt lat="42.65173" lon="1.82341">
        <ele>1338.77</ele>
        <time>2014-02-03T08:54:20Z</time>
      </trkpt>
      <trkpt lat="42.65169" lon="1.82331">
        <ele>1339.73</ele>
        <time>2014-02-03T08:54:33Z</time>
      </trkpt>
      <trkpt lat="42.65168" lon="1.82332">
        <ele>1340.7</ele>
        <time>2014-02-03T08:54:48Z</time>
      </trkpt>
      <trkpt lat="42.65167" lon="1.82331">
        <ele>1342.14</ele>
        <time>2014-02-03T08:55:14Z</time>
      </trkpt>
      <trkpt lat="42.65163" lon="1.8233">
        <ele>1337.81</ele>
        <time>2014-02-03T08:55:42Z</time>
      </trkpt>
      <trkpt lat="42.65163" lon="1.82332">
        <ele>1340.22</ele>
        <time>2014-02-03T08:55:59Z</time>
      </trkpt>
      <trkpt lat="42.65166" lon="1.82333">
        <ele>1343.58</ele>
        <time>2014-02-03T08:56:09Z</time>
      </trkpt>
      <trkpt lat="42.65164" lon="1.8233">
        <ele>1343.58</ele>
        <time>2014-02-03T08:56:17Z</time>
      </trkpt>
      <trkpt lat="42.65165" lon="1.82327">
        <ele>1344.54</ele>
        <time>2014-02-03T08:56:27Z</time>
      </trkpt>
      <trkpt lat="42.65164" lon="1.82325">
        <ele>1343.58</ele>
        <time>2014-02-03T08:56:34Z</time>
      </trkpt>
      <trkpt lat="42.65162" lon="1.82318">
        <ele>1343.1</ele>
        <time>2014-02-03T08:56:43Z</time>
      </trkpt>
      <trkpt lat="42.65157" lon="1.82312">
        <ele>1343.1</ele>
        <time>2014-02-03T08:56:51Z</time>
      </trkpt>
      <trkpt lat="42.65153" lon="1.82303">
        <ele>1343.1</ele>
        <time>2014-02-03T08:56:59Z</time>
      </trkpt>
      <trkpt lat="42.65144" lon="1.82287">
        <ele>1341.66</ele>
        <time>2014-02-03T08:57:14Z</time>
      </trkpt>
      <trkpt lat="42.65139" lon="1.82273">
        <ele>1342.14</ele>
        <time>2014-02-03T08:57:27Z</time>
      </trkpt>
      <trkpt lat="42.65133" lon="1.82265">
        <ele>1342.14</ele>
        <time>2014-02-03T08:57:41Z</time>
      </trkpt>
      <trkpt lat="42.65127" lon="1.82258">
        <ele>1341.18</ele>
        <time>2014-02-03T08:57:54Z</time>
      </trkpt>
      <trkpt lat="42.65121" lon="1.82247">
        <ele>1341.66</ele>
        <time>2014-02-03T08:58:08Z</time>
      </trkpt>
      <trkpt lat="42.65117" lon="1.82241">
        <ele>1341.18</ele>
        <time>2014-02-03T08:58:15Z</time>
      </trkpt>
      <trkpt lat="42.65116" lon="1.8224">
        <ele>1341.18</ele>
        <time>2014-02-03T08:58:17Z</time>
      </trkpt>
      <trkpt lat="42.65112" lon="1.82228">
        <ele>1343.58</ele>
        <time>2014-02-03T08:58:30Z</time>
      </trkpt>
      <trkpt lat="42.65108" lon="1.82218">
        <ele>1346.46</ele>
        <time>2014-02-03T08:58:44Z</time>
      </trkpt>
      <trkpt lat="42.65108" lon="1.82217">
        <ele>1346.94</ele>
        <time>2014-02-03T08:58:48Z</time>
      </trkpt>
      <trkpt lat="42.65103" lon="1.82211">
        <ele>1345.5</ele>
        <time>2014-02-03T08:58:55Z</time>
      </trkpt>
      <trkpt lat="42.65097" lon="1.82202">
        <ele>1346.94</ele>
        <time>2014-02-03T08:59:07Z</time>
      </trkpt>
      <trkpt lat="42.65096" lon="1.82194">
        <ele>1348.87</ele>
        <time>2014-02-03T08:59:18Z</time>
      </trkpt>
      <trkpt lat="42.65096" lon="1.82191">
        <ele>1348.87</ele>
        <time>2014-02-03T08:59:20Z</time>
      </trkpt>
      <trkpt lat="42.65093" lon="1.82181">
        <ele>1350.79</ele>
        <time>2014-02-03T08:59:31Z</time>
      </trkpt>
      <trkpt lat="42.65087" lon="1.82169">
        <ele>1352.23</ele>
        <time>2014-02-03T08:59:46Z</time>
      </trkpt>
      <trkpt lat="42.65081" lon="1.82157">
        <ele>1352.71</ele>
        <time>2014-02-03T09:00:00Z</time>
      </trkpt>
      <trkpt lat="42.6508" lon="1.82155">
        <ele>1352.71</ele>
        <time>2014-02-03T09:00:02Z</time>
      </trkpt>
      <trkpt lat="42.65074" lon="1.82142">
        <ele>1353.67</ele>
        <time>2014-02-03T09:00:16Z</time>
      </trkpt>
      <trkpt lat="42.65071" lon="1.82138">
        <ele>1353.67</ele>
        <time>2014-02-03T09:00:21Z</time>
      </trkpt>
      <trkpt lat="42.65066" lon="1.82128">
        <ele>1355.12</ele>
        <time>2014-02-03T09:00:33Z</time>
      </trkpt>
      <trkpt lat="42.6506" lon="1.82116">
        <ele>1356.56</ele>
        <time>2014-02-03T09:00:46Z</time>
      </trkpt>
      <trkpt lat="42.65056" lon="1.82106">
        <ele>1358</ele>
        <time>2014-02-03T09:00:58Z</time>
      </trkpt>
      <trkpt lat="42.65049" lon="1.82098">
        <ele>1358.48</ele>
        <time>2014-02-03T09:01:10Z</time>
      </trkpt>
      <trkpt lat="42.65045" lon="1.82085">
        <ele>1361.36</ele>
        <time>2014-02-03T09:01:23Z</time>
      </trkpt>
      <trkpt lat="42.65038" lon="1.82074">
        <ele>1360.4</ele>
        <time>2014-02-03T09:01:37Z</time>
      </trkpt>
      <trkpt lat="42.65033" lon="1.82061">
        <ele>1362.81</ele>
        <time>2014-02-03T09:01:51Z</time>
      </trkpt>
      <trkpt lat="42.65026" lon="1.8205">
        <ele>1364.73</ele>
        <time>2014-02-03T09:02:06Z</time>
      </trkpt>
      <trkpt lat="42.65022" lon="1.82042">
        <ele>1365.69</ele>
        <time>2014-02-03T09:02:16Z</time>
      </trkpt>
      <trkpt lat="42.65014" lon="1.8203">
        <ele>1367.13</ele>
        <time>2014-02-03T09:02:30Z</time>
      </trkpt>
      <trkpt lat="42.65009" lon="1.82017">
        <ele>1368.57</ele>
        <time>2014-02-03T09:02:44Z</time>
      </trkpt>
      <trkpt lat="42.65003" lon="1.82005">
        <ele>1370.5</ele>
        <time>2014-02-03T09:02:57Z</time>
      </trkpt>
      <trkpt lat="42.64997" lon="1.81995">
        <ele>1370.5</ele>
        <time>2014-02-03T09:03:10Z</time>
      </trkpt>
      <trkpt lat="42.64993" lon="1.81985">
        <ele>1370.98</ele>
        <time>2014-02-03T09:03:22Z</time>
      </trkpt>
      <trkpt lat="42.64989" lon="1.81974">
        <ele>1370.98</ele>
        <time>2014-02-03T09:03:34Z</time>
      </trkpt>
      <trkpt lat="42.64986" lon="1.81963">
        <ele>1370.98</ele>
        <time>2014-02-03T09:03:47Z</time>
      </trkpt>
      <trkpt lat="42.64984" lon="1.81952">
        <ele>1371.46</ele>
        <time>2014-02-03T09:03:59Z</time>
      </trkpt>
      <trkpt lat="42.6498" lon="1.81938">
        <ele>1371.94</ele>
        <time>2014-02-03T09:04:13Z</time>
      </trkpt>
      <trkpt lat="42.64979" lon="1.81932">
        <ele>1372.42</ele>
        <time>2014-02-03T09:04:20Z</time>
      </trkpt>
      <trkpt lat="42.64978" lon="1.81931">
        <ele>1371.46</ele>
        <time>2014-02-03T09:04:22Z</time>
      </trkpt>
      <trkpt lat="42.64975" lon="1.81918">
        <ele>1370.98</ele>
        <time>2014-02-03T09:04:35Z</time>
      </trkpt>
      <trkpt lat="42.64974" lon="1.81905">
        <ele>1371.94</ele>
        <time>2014-02-03T09:04:48Z</time>
      </trkpt>
      <trkpt lat="42.64973" lon="1.81892">
        <ele>1372.9</ele>
        <time>2014-02-03T09:05:01Z</time>
      </trkpt>
      <trkpt lat="42.64973" lon="1.81881">
        <ele>1374.34</ele>
        <time>2014-02-03T09:05:11Z</time>
      </trkpt>
      <trkpt lat="42.64973" lon="1.81865">
        <ele>1374.34</ele>
        <time>2014-02-03T09:05:26Z</time>
      </trkpt>
      <trkpt lat="42.64972" lon="1.81851">
        <ele>1375.78</ele>
        <time>2014-02-03T09:05:40Z</time>
      </trkpt>
      <trkpt lat="42.64972" lon="1.8184">
        <ele>1376.75</ele>
        <time>2014-02-03T09:05:51Z</time>
      </trkpt>
      <trkpt lat="42.64971" lon="1.81829">
        <ele>1376.26</ele>
        <time>2014-02-03T09:06:02Z</time>
      </trkpt>
      <trkpt lat="42.64973" lon="1.81816">
        <ele>1376.26</ele>
        <time>2014-02-03T09:06:15Z</time>
      </trkpt>
      <trkpt lat="42.64975" lon="1.81802">
        <ele>1378.67</ele>
        <time>2014-02-03T09:06:28Z</time>
      </trkpt>
      <trkpt lat="42.64976" lon="1.81794">
        <ele>1381.07</ele>
        <time>2014-02-03T09:06:39Z</time>
      </trkpt>
      <trkpt lat="42.64976" lon="1.81792">
        <ele>1382.03</ele>
        <time>2014-02-03T09:06:42Z</time>
      </trkpt>
      <trkpt lat="42.64981" lon="1.81778">
        <ele>1383.96</ele>
        <time>2014-02-03T09:06:55Z</time>
      </trkpt>
      <trkpt lat="42.64983" lon="1.8177">
        <ele>1383.47</ele>
        <time>2014-02-03T09:07:02Z</time>
      </trkpt>
      <trkpt lat="42.64982" lon="1.81754">
        <ele>1384.92</ele>
        <time>2014-02-03T09:07:17Z</time>
      </trkpt>
      <trkpt lat="42.64982" lon="1.81751">
        <ele>1385.88</ele>
        <time>2014-02-03T09:07:21Z</time>
      </trkpt>
      <trkpt lat="42.64985" lon="1.81737">
        <ele>1388.28</ele>
        <time>2014-02-03T09:07:35Z</time>
      </trkpt>
      <trkpt lat="42.64984" lon="1.81726">
        <ele>1389.24</ele>
        <time>2014-02-03T09:07:48Z</time>
      </trkpt>
      <trkpt lat="42.64984" lon="1.81721">
        <ele>1388.76</ele>
        <time>2014-02-03T09:07:52Z</time>
      </trkpt>
      <trkpt lat="42.64984" lon="1.81707">
        <ele>1391.17</ele>
        <time>2014-02-03T09:08:05Z</time>
      </trkpt>
      <trkpt lat="42.64984" lon="1.81696">
        <ele>1392.61</ele>
        <time>2014-02-03T09:08:18Z</time>
      </trkpt>
      <trkpt lat="42.64983" lon="1.8169">
        <ele>1393.09</ele>
        <time>2014-02-03T09:08:27Z</time>
      </trkpt>
      <trkpt lat="42.64983" lon="1.81676">
        <ele>1392.61</ele>
        <time>2014-02-03T09:08:39Z</time>
      </trkpt>
      <trkpt lat="42.64982" lon="1.81672">
        <ele>1393.09</ele>
        <time>2014-02-03T09:08:43Z</time>
      </trkpt>
      <trkpt lat="42.64979" lon="1.81661">
        <ele>1394.05</ele>
        <time>2014-02-03T09:08:56Z</time>
      </trkpt>
      <trkpt lat="42.64977" lon="1.81659">
        <ele>1394.05</ele>
        <time>2014-02-03T09:09:08Z</time>
      </trkpt>
      <trkpt lat="42.64971" lon="1.8165">
        <ele>1394.05</ele>
        <time>2014-02-03T09:09:18Z</time>
      </trkpt>
      <trkpt lat="42.64964" lon="1.81638">
        <ele>1393.57</ele>
        <time>2014-02-03T09:09:32Z</time>
      </trkpt>
      <trkpt lat="42.64959" lon="1.81633">
        <ele>1395.49</ele>
        <time>2014-02-03T09:09:46Z</time>
      </trkpt>
      <trkpt lat="42.64956" lon="1.81625">
        <ele>1396.45</ele>
        <time>2014-02-03T09:09:56Z</time>
      </trkpt>
      <trkpt lat="42.64956" lon="1.81618">
        <ele>1395.49</ele>
        <time>2014-02-03T09:10:08Z</time>
      </trkpt>
      <trkpt lat="42.64956" lon="1.8161">
        <ele>1395.49</ele>
        <time>2014-02-03T09:10:20Z</time>
      </trkpt>
      <trkpt lat="42.64957" lon="1.81599">
        <ele>1397.89</ele>
        <time>2014-02-03T09:10:33Z</time>
      </trkpt>
      <trkpt lat="42.64958" lon="1.81582">
        <ele>1400.3</ele>
        <time>2014-02-03T09:10:49Z</time>
      </trkpt>
      <trkpt lat="42.64958" lon="1.8158">
        <ele>1400.78</ele>
        <time>2014-02-03T09:10:51Z</time>
      </trkpt>
      <trkpt lat="42.64959" lon="1.81566">
        <ele>1401.74</ele>
        <time>2014-02-03T09:11:04Z</time>
      </trkpt>
      <trkpt lat="42.64958" lon="1.81555">
        <ele>1402.22</ele>
        <time>2014-02-03T09:11:17Z</time>
      </trkpt>
      <trkpt lat="42.64954" lon="1.81543">
        <ele>1403.18</ele>
        <time>2014-02-03T09:11:30Z</time>
      </trkpt>
      <trkpt lat="42.6495" lon="1.81527">
        <ele>1403.66</ele>
        <time>2014-02-03T09:11:45Z</time>
      </trkpt>
      <trkpt lat="42.64949" lon="1.8152">
        <ele>1405.58</ele>
        <time>2014-02-03T09:11:52Z</time>
      </trkpt>
      <trkpt lat="42.64943" lon="1.81508">
        <ele>1405.58</ele>
        <time>2014-02-03T09:12:04Z</time>
      </trkpt>
      <trkpt lat="42.64942" lon="1.81505">
        <ele>1405.58</ele>
        <time>2014-02-03T09:12:14Z</time>
      </trkpt>
      <trkpt lat="42.64941" lon="1.81506">
        <ele>1402.7</ele>
        <time>2014-02-03T09:12:29Z</time>
      </trkpt>
      <trkpt lat="42.6494" lon="1.81504">
        <ele>1395.97</ele>
        <time>2014-02-03T09:12:51Z</time>
      </trkpt>
      <trkpt lat="42.64942" lon="1.81503">
        <ele>1395.01</ele>
        <time>2014-02-03T09:13:21Z</time>
      </trkpt>
      <trkpt lat="42.64941" lon="1.81505">
        <ele>1393.09</ele>
        <time>2014-02-03T09:13:42Z</time>
      </trkpt>
      <trkpt lat="42.64938" lon="1.81499">
        <ele>1388.76</ele>
        <time>2014-02-03T09:14:07Z</time>
      </trkpt>
      <trkpt lat="42.64931" lon="1.81501">
        <ele>1386.84</ele>
        <time>2014-02-03T09:14:40Z</time>
      </trkpt>
      <trkpt lat="42.64936" lon="1.81499">
        <ele>1384.44</ele>
        <time>2014-02-03T09:15:09Z</time>
      </trkpt>
      <trkpt lat="42.64936" lon="1.81498">
        <ele>1388.76</ele>
        <time>2014-02-03T09:15:44Z</time>
      </trkpt>
      <trkpt lat="42.64935" lon="1.815">
        <ele>1390.68</ele>
        <time>2014-02-03T09:16:19Z</time>
      </trkpt>
      <trkpt lat="42.64942" lon="1.81507">
        <ele>1399.82</ele>
        <time>2014-02-03T09:16:42Z</time>
      </trkpt>
      <trkpt lat="42.64941" lon="1.81506">
        <ele>1401.74</ele>
        <time>2014-02-03T09:16:50Z</time>
      </trkpt>
      <trkpt lat="42.6494" lon="1.81504">
        <ele>1404.62</ele>
        <time>2014-02-03T09:17:07Z</time>
      </trkpt>
      <trkpt lat="42.64936" lon="1.81506">
        <ele>1404.62</ele>
        <time>2014-02-03T09:17:18Z</time>
      </trkpt>
      <trkpt lat="42.64934" lon="1.81511">
        <ele>1404.62</ele>
        <time>2014-02-03T09:17:23Z</time>
      </trkpt>
      <trkpt lat="42.64934" lon="1.81521">
        <ele>1404.62</ele>
        <time>2014-02-03T09:17:30Z</time>
      </trkpt>
      <trkpt lat="42.64937" lon="1.81529">
        <ele>1405.1</ele>
        <time>2014-02-03T09:17:37Z</time>
      </trkpt>
      <trkpt lat="42.6494" lon="1.81542">
        <ele>1407.03</ele>
        <time>2014-02-03T09:17:51Z</time>
      </trkpt>
      <trkpt lat="42.64942" lon="1.8156">
        <ele>1407.51</ele>
        <time>2014-02-03T09:18:05Z</time>
      </trkpt>
      <trkpt lat="42.64942" lon="1.81575">
        <ele>1409.91</ele>
        <time>2014-02-03T09:18:19Z</time>
      </trkpt>
      <trkpt lat="42.6494" lon="1.81588">
        <ele>1412.79</ele>
        <time>2014-02-03T09:18:31Z</time>
      </trkpt>
      <trkpt lat="42.64936" lon="1.81602">
        <ele>1414.72</ele>
        <time>2014-02-03T09:18:44Z</time>
      </trkpt>
      <trkpt lat="42.6493" lon="1.81612">
        <ele>1415.2</ele>
        <time>2014-02-03T09:18:57Z</time>
      </trkpt>
      <trkpt lat="42.64925" lon="1.81622">
        <ele>1414.24</ele>
        <time>2014-02-03T09:19:07Z</time>
      </trkpt>
      <trkpt lat="42.64924" lon="1.81624">
        <ele>1414.72</ele>
        <time>2014-02-03T09:19:09Z</time>
      </trkpt>
      <trkpt lat="42.64921" lon="1.81638">
        <ele>1414.24</ele>
        <time>2014-02-03T09:19:21Z</time>
      </trkpt>
      <trkpt lat="42.64919" lon="1.81654">
        <ele>1415.2</ele>
        <time>2014-02-03T09:19:36Z</time>
      </trkpt>
      <trkpt lat="42.64919" lon="1.81665">
        <ele>1416.64</ele>
        <time>2014-02-03T09:19:47Z</time>
      </trkpt>
      <trkpt lat="42.64915" lon="1.81668">
        <ele>1416.16</ele>
        <time>2014-02-03T09:19:54Z</time>
      </trkpt>
      <trkpt lat="42.64908" lon="1.81662">
        <ele>1415.68</ele>
        <time>2014-02-03T09:20:06Z</time>
      </trkpt>
      <trkpt lat="42.64908" lon="1.81659">
        <ele>1416.16</ele>
        <time>2014-02-03T09:20:11Z</time>
      </trkpt>
      <trkpt lat="42.64905" lon="1.81653">
        <ele>1416.16</ele>
        <time>2014-02-03T09:20:16Z</time>
      </trkpt>
      <trkpt lat="42.64905" lon="1.81637">
        <ele>1416.16</ele>
        <time>2014-02-03T09:20:28Z</time>
      </trkpt>
      <trkpt lat="42.64905" lon="1.81633">
        <ele>1416.16</ele>
        <time>2014-02-03T09:20:31Z</time>
      </trkpt>
      <trkpt lat="42.64906" lon="1.81628">
        <ele>1417.12</ele>
        <time>2014-02-03T09:20:38Z</time>
      </trkpt>
      <trkpt lat="42.64909" lon="1.81617">
        <ele>1416.64</ele>
        <time>2014-02-03T09:20:48Z</time>
      </trkpt>
      <trkpt lat="42.64912" lon="1.81614">
        <ele>1418.08</ele>
        <time>2014-02-03T09:20:53Z</time>
      </trkpt>
      <trkpt lat="42.64916" lon="1.81607">
        <ele>1417.12</ele>
        <time>2014-02-03T09:21:02Z</time>
      </trkpt>
      <trkpt lat="42.64916" lon="1.81594">
        <ele>1418.08</ele>
        <time>2014-02-03T09:21:16Z</time>
      </trkpt>
      <trkpt lat="42.64911" lon="1.81584">
        <ele>1420.49</ele>
        <time>2014-02-03T09:21:27Z</time>
      </trkpt>
      <trkpt lat="42.64903" lon="1.81575">
        <ele>1422.89</ele>
        <time>2014-02-03T09:21:41Z</time>
      </trkpt>
      <trkpt lat="42.649" lon="1.81572">
        <ele>1424.33</ele>
        <time>2014-02-03T09:21:47Z</time>
      </trkpt>
      <trkpt lat="42.6489" lon="1.81562">
        <ele>1424.81</ele>
        <time>2014-02-03T09:22:02Z</time>
      </trkpt>
      <trkpt lat="42.64881" lon="1.81551">
        <ele>1425.29</ele>
        <time>2014-02-03T09:22:16Z</time>
      </trkpt>
      <trkpt lat="42.64874" lon="1.81542">
        <ele>1424.81</ele>
        <time>2014-02-03T09:22:29Z</time>
      </trkpt>
      <trkpt lat="42.64873" lon="1.81536">
        <ele>1425.29</ele>
        <time>2014-02-03T09:22:34Z</time>
      </trkpt>
      <trkpt lat="42.64875" lon="1.81523">
        <ele>1427.21</ele>
        <time>2014-02-03T09:22:47Z</time>
      </trkpt>
      <trkpt lat="42.64879" lon="1.8151">
        <ele>1428.18</ele>
        <time>2014-02-03T09:23:01Z</time>
      </trkpt>
      <trkpt lat="42.64882" lon="1.81504">
        <ele>1429.14</ele>
        <time>2014-02-03T09:23:10Z</time>
      </trkpt>
      <trkpt lat="42.64885" lon="1.81492">
        <ele>1427.21</ele>
        <time>2014-02-03T09:23:23Z</time>
      </trkpt>
      <trkpt lat="42.64883" lon="1.8148">
        <ele>1428.66</ele>
        <time>2014-02-03T09:23:36Z</time>
      </trkpt>
      <trkpt lat="42.64878" lon="1.81473">
        <ele>1430.58</ele>
        <time>2014-02-03T09:23:47Z</time>
      </trkpt>
      <trkpt lat="42.64873" lon="1.81467">
        <ele>1433.46</ele>
        <time>2014-02-03T09:23:58Z</time>
      </trkpt>
      <trkpt lat="42.64866" lon="1.81458">
        <ele>1433.94</ele>
        <time>2014-02-03T09:24:10Z</time>
      </trkpt>
      <trkpt lat="42.64858" lon="1.81452">
        <ele>1436.83</ele>
        <time>2014-02-03T09:24:22Z</time>
      </trkpt>
      <trkpt lat="42.64853" lon="1.81449">
        <ele>1438.27</ele>
        <time>2014-02-03T09:24:29Z</time>
      </trkpt>
      <trkpt lat="42.64846" lon="1.81443">
        <ele>1438.75</ele>
        <time>2014-02-03T09:24:43Z</time>
      </trkpt>
      <trkpt lat="42.64839" lon="1.8144">
        <ele>1438.27</ele>
        <time>2014-02-03T09:24:59Z</time>
      </trkpt>
      <trkpt lat="42.64836" lon="1.81437">
        <ele>1437.79</ele>
        <time>2014-02-03T09:25:12Z</time>
      </trkpt>
      <trkpt lat="42.64838" lon="1.8144">
        <ele>1436.83</ele>
        <time>2014-02-03T09:25:32Z</time>
      </trkpt>
      <trkpt lat="42.64837" lon="1.81439">
        <ele>1435.39</ele>
        <time>2014-02-03T09:25:57Z</time>
      </trkpt>
      <trkpt lat="42.64835" lon="1.81439">
        <ele>1435.39</ele>
        <time>2014-02-03T09:26:16Z</time>
      </trkpt>
      <trkpt lat="42.64839" lon="1.8144">
        <ele>1434.91</ele>
        <time>2014-02-03T09:26:25Z</time>
      </trkpt>
      <trkpt lat="42.64839" lon="1.81442">
        <ele>1433.94</ele>
        <time>2014-02-03T09:26:35Z</time>
      </trkpt>
      <trkpt lat="42.64836" lon="1.81443">
        <ele>1434.91</ele>
        <time>2014-02-03T09:26:48Z</time>
      </trkpt>
      <trkpt lat="42.6483" lon="1.81442">
        <ele>1435.39</ele>
        <time>2014-02-03T09:26:59Z</time>
      </trkpt>
      <trkpt lat="42.64828" lon="1.81441">
        <ele>1435.87</ele>
        <time>2014-02-03T09:27:08Z</time>
      </trkpt>
      <trkpt lat="42.64821" lon="1.81438">
        <ele>1436.35</ele>
        <time>2014-02-03T09:27:19Z</time>
      </trkpt>
      <trkpt lat="42.64816" lon="1.81436">
        <ele>1437.31</ele>
        <time>2014-02-03T09:27:30Z</time>
      </trkpt>
      <trkpt lat="42.64813" lon="1.81434">
        <ele>1439.23</ele>
        <time>2014-02-03T09:27:40Z</time>
      </trkpt>
      <trkpt lat="42.64809" lon="1.81431">
        <ele>1441.15</ele>
        <time>2014-02-03T09:27:51Z</time>
      </trkpt>
      <trkpt lat="42.64808" lon="1.81432">
        <ele>1443.56</ele>
        <time>2014-02-03T09:28:01Z</time>
      </trkpt>
      <trkpt lat="42.64803" lon="1.8143">
        <ele>1445.48</ele>
        <time>2014-02-03T09:28:12Z</time>
      </trkpt>
      <trkpt lat="42.648" lon="1.81428">
        <ele>1447.4</ele>
        <time>2014-02-03T09:28:25Z</time>
      </trkpt>
      <trkpt lat="42.64796" lon="1.81421">
        <ele>1449.81</ele>
        <time>2014-02-03T09:28:38Z</time>
      </trkpt>
      <trkpt lat="42.64791" lon="1.81412">
        <ele>1449.81</ele>
        <time>2014-02-03T09:28:49Z</time>
      </trkpt>
      <trkpt lat="42.64789" lon="1.81413">
        <ele>1449.32</ele>
        <time>2014-02-03T09:29:09Z</time>
      </trkpt>
      <trkpt lat="42.64787" lon="1.81409">
        <ele>1450.77</ele>
        <time>2014-02-03T09:29:33Z</time>
      </trkpt>
      <trkpt lat="42.64783" lon="1.81404">
        <ele>1452.69</ele>
        <time>2014-02-03T09:29:44Z</time>
      </trkpt>
      <trkpt lat="42.6478" lon="1.81401">
        <ele>1454.61</ele>
        <time>2014-02-03T09:29:57Z</time>
      </trkpt>
      <trkpt lat="42.64777" lon="1.81394">
        <ele>1454.13</ele>
        <time>2014-02-03T09:30:08Z</time>
      </trkpt>
      <trkpt lat="42.64772" lon="1.81386">
        <ele>1458.46</ele>
        <time>2014-02-03T09:30:22Z</time>
      </trkpt>
      <trkpt lat="42.64768" lon="1.8138">
        <ele>1460.38</ele>
        <time>2014-02-03T09:30:33Z</time>
      </trkpt>
      <trkpt lat="42.64764" lon="1.8137">
        <ele>1463.26</ele>
        <time>2014-02-03T09:30:47Z</time>
      </trkpt>
      <trkpt lat="42.64757" lon="1.81362">
        <ele>1467.11</ele>
        <time>2014-02-03T09:31:00Z</time>
      </trkpt>
      <trkpt lat="42.64752" lon="1.81356">
        <ele>1470.47</ele>
        <time>2014-02-03T09:31:11Z</time>
      </trkpt>
      <trkpt lat="42.64751" lon="1.81355">
        <ele>1471.44</ele>
        <time>2014-02-03T09:31:14Z</time>
      </trkpt>
      <trkpt lat="42.64749" lon="1.81351">
        <ele>1472.88</ele>
        <time>2014-02-03T09:31:21Z</time>
      </trkpt>
      <trkpt lat="42.64744" lon="1.81345">
        <ele>1473.36</ele>
        <time>2014-02-03T09:31:33Z</time>
      </trkpt>
      <trkpt lat="42.64743" lon="1.81344">
        <ele>1475.28</ele>
        <time>2014-02-03T09:31:48Z</time>
      </trkpt>
      <trkpt lat="42.64744" lon="1.81342">
        <ele>1473.84</ele>
        <time>2014-02-03T09:32:12Z</time>
      </trkpt>
      <trkpt lat="42.64743" lon="1.8134">
        <ele>1473.36</ele>
        <time>2014-02-03T09:32:14Z</time>
      </trkpt>
      <trkpt lat="42.64737" lon="1.81333">
        <ele>1471.44</ele>
        <time>2014-02-03T09:32:26Z</time>
      </trkpt>
      <trkpt lat="42.64733" lon="1.81325">
        <ele>1473.84</ele>
        <time>2014-02-03T09:32:38Z</time>
      </trkpt>
      <trkpt lat="42.64727" lon="1.81318">
        <ele>1475.28</ele>
        <time>2014-02-03T09:32:49Z</time>
      </trkpt>
      <trkpt lat="42.64728" lon="1.81306">
        <ele>1479.61</ele>
        <time>2014-02-03T09:33:00Z</time>
      </trkpt>
      <trkpt lat="42.64724" lon="1.81302">
        <ele>1482.49</ele>
        <time>2014-02-03T09:33:13Z</time>
      </trkpt>
      <trkpt lat="42.64721" lon="1.81292">
        <ele>1481.05</ele>
        <time>2014-02-03T09:33:22Z</time>
      </trkpt>
      <trkpt lat="42.64719" lon="1.8129">
        <ele>1480.57</ele>
        <time>2014-02-03T09:33:28Z</time>
      </trkpt>
      <trkpt lat="42.64719" lon="1.81283">
        <ele>1482.97</ele>
        <time>2014-02-03T09:33:38Z</time>
      </trkpt>
      <trkpt lat="42.64718" lon="1.81281">
        <ele>1482.97</ele>
        <time>2014-02-03T09:33:40Z</time>
      </trkpt>
      <trkpt lat="42.64716" lon="1.81277">
        <ele>1484.89</ele>
        <time>2014-02-03T09:33:53Z</time>
      </trkpt>
      <trkpt lat="42.6472" lon="1.81272">
        <ele>1485.85</ele>
        <time>2014-02-03T09:34:20Z</time>
      </trkpt>
      <trkpt lat="42.64718" lon="1.81273">
        <ele>1486.82</ele>
        <time>2014-02-03T09:34:38Z</time>
      </trkpt>
      <trkpt lat="42.64719" lon="1.81269">
        <ele>1487.78</ele>
        <time>2014-02-03T09:34:49Z</time>
      </trkpt>
      <trkpt lat="42.64718" lon="1.81269">
        <ele>1487.78</ele>
        <time>2014-02-03T09:35:06Z</time>
      </trkpt>
      <trkpt lat="42.64718" lon="1.81269">
        <ele>1486.82</ele>
        <time>2014-02-03T09:35:19Z</time>
      </trkpt>
      <trkpt lat="42.64721" lon="1.81268">
        <ele>1486.82</ele>
        <time>2014-02-03T09:35:35Z</time>
      </trkpt>
      <trkpt lat="42.6472" lon="1.81268">
        <ele>1489.22</ele>
        <time>2014-02-03T09:35:51Z</time>
      </trkpt>
      <trkpt lat="42.6472" lon="1.81262">
        <ele>1491.62</ele>
        <time>2014-02-03T09:36:03Z</time>
      </trkpt>
      <trkpt lat="42.64718" lon="1.81254">
        <ele>1492.58</ele>
        <time>2014-02-03T09:36:13Z</time>
      </trkpt>
      <trkpt lat="42.64719" lon="1.81251">
        <ele>1494.51</ele>
        <time>2014-02-03T09:36:25Z</time>
      </trkpt>
      <trkpt lat="42.6472" lon="1.8125">
        <ele>1494.03</ele>
        <time>2014-02-03T09:36:37Z</time>
      </trkpt>
      <trkpt lat="42.6472" lon="1.81246">
        <ele>1493.06</ele>
        <time>2014-02-03T09:36:58Z</time>
      </trkpt>
      <trkpt lat="42.64719" lon="1.81245">
        <ele>1494.03</ele>
        <time>2014-02-03T09:37:12Z</time>
      </trkpt>
      <trkpt lat="42.6472" lon="1.81247">
        <ele>1494.51</ele>
        <time>2014-02-03T09:37:26Z</time>
      </trkpt>
      <trkpt lat="42.6472" lon="1.81247">
        <ele>1496.91</ele>
        <time>2014-02-03T09:37:42Z</time>
      </trkpt>
      <trkpt lat="42.64718" lon="1.81246">
        <ele>1497.39</ele>
        <time>2014-02-03T09:37:50Z</time>
      </trkpt>
      <trkpt lat="42.64714" lon="1.81236">
        <ele>1497.87</ele>
        <time>2014-02-03T09:38:03Z</time>
      </trkpt>
      <trkpt lat="42.64713" lon="1.81233">
        <ele>1496.91</ele>
        <time>2014-02-03T09:38:17Z</time>
      </trkpt>
      <trkpt lat="42.64715" lon="1.81229">
        <ele>1497.39</ele>
        <time>2014-02-03T09:38:32Z</time>
      </trkpt>
      <trkpt lat="42.64712" lon="1.81219">
        <ele>1498.35</ele>
        <time>2014-02-03T09:38:42Z</time>
      </trkpt>
      <trkpt lat="42.64708" lon="1.81209">
        <ele>1499.31</ele>
        <time>2014-02-03T09:38:57Z</time>
      </trkpt>
      <trkpt lat="42.64707" lon="1.81203">
        <ele>1499.31</ele>
        <time>2014-02-03T09:39:08Z</time>
      </trkpt>
      <trkpt lat="42.64708" lon="1.81197">
        <ele>1501.24</ele>
        <time>2014-02-03T09:39:19Z</time>
      </trkpt>
      <trkpt lat="42.6471" lon="1.81193">
        <ele>1503.16</ele>
        <time>2014-02-03T09:39:30Z</time>
      </trkpt>
      <trkpt lat="42.64709" lon="1.81187">
        <ele>1504.6</ele>
        <time>2014-02-03T09:39:41Z</time>
      </trkpt>
      <trkpt lat="42.64709" lon="1.81181">
        <ele>1504.6</ele>
        <time>2014-02-03T09:39:51Z</time>
      </trkpt>
      <trkpt lat="42.64709" lon="1.81179">
        <ele>1507.97</ele>
        <time>2014-02-03T09:40:12Z</time>
      </trkpt>
      <trkpt lat="42.64708" lon="1.81175">
        <ele>1508.45</ele>
        <time>2014-02-03T09:40:24Z</time>
      </trkpt>
      <trkpt lat="42.64707" lon="1.81175">
        <ele>1508.45</ele>
        <time>2014-02-03T09:40:26Z</time>
      </trkpt>
      <trkpt lat="42.64705" lon="1.81169">
        <ele>1507.97</ele>
        <time>2014-02-03T09:40:36Z</time>
      </trkpt>
      <trkpt lat="42.64703" lon="1.81161">
        <ele>1509.41</ele>
        <time>2014-02-03T09:40:49Z</time>
      </trkpt>
      <trkpt lat="42.64703" lon="1.81156">
        <ele>1513.25</ele>
        <time>2014-02-03T09:40:58Z</time>
      </trkpt>
      <trkpt lat="42.64701" lon="1.81153">
        <ele>1513.73</ele>
        <time>2014-02-03T09:41:12Z</time>
      </trkpt>
      <trkpt lat="42.64706" lon="1.81155">
        <ele>1513.73</ele>
        <time>2014-02-03T09:41:28Z</time>
      </trkpt>
      <trkpt lat="42.64706" lon="1.81153">
        <ele>1515.18</ele>
        <time>2014-02-03T09:41:39Z</time>
      </trkpt>
      <trkpt lat="42.64704" lon="1.8115">
        <ele>1514.21</ele>
        <time>2014-02-03T09:41:53Z</time>
      </trkpt>
      <trkpt lat="42.64703" lon="1.81142">
        <ele>1515.66</ele>
        <time>2014-02-03T09:42:04Z</time>
      </trkpt>
      <trkpt lat="42.64703" lon="1.81143">
        <ele>1516.62</ele>
        <time>2014-02-03T09:42:17Z</time>
      </trkpt>
      <trkpt lat="42.64704" lon="1.81143">
        <ele>1516.14</ele>
        <time>2014-02-03T09:42:36Z</time>
      </trkpt>
      <trkpt lat="42.64702" lon="1.81143">
        <ele>1516.62</ele>
        <time>2014-02-03T09:42:49Z</time>
      </trkpt>
      <trkpt lat="42.64705" lon="1.81145">
        <ele>1514.21</ele>
        <time>2014-02-03T09:43:03Z</time>
      </trkpt>
      <trkpt lat="42.64705" lon="1.81143">
        <ele>1515.18</ele>
        <time>2014-02-03T09:43:16Z</time>
      </trkpt>
      <trkpt lat="42.64704" lon="1.81138">
        <ele>1517.58</ele>
        <time>2014-02-03T09:43:28Z</time>
      </trkpt>
      <trkpt lat="42.64703" lon="1.8113">
        <ele>1517.58</ele>
        <time>2014-02-03T09:43:39Z</time>
      </trkpt>
      <trkpt lat="42.647" lon="1.81122">
        <ele>1519.98</ele>
        <time>2014-02-03T09:43:52Z</time>
      </trkpt>
      <trkpt lat="42.64699" lon="1.81112">
        <ele>1521.42</ele>
        <time>2014-02-03T09:44:03Z</time>
      </trkpt>
      <trkpt lat="42.64696" lon="1.81106">
        <ele>1524.31</ele>
        <time>2014-02-03T09:44:16Z</time>
      </trkpt>
      <trkpt lat="42.64694" lon="1.81097">
        <ele>1523.83</ele>
        <time>2014-02-03T09:44:28Z</time>
      </trkpt>
      <trkpt lat="42.64694" lon="1.81093">
        <ele>1524.31</ele>
        <time>2014-02-03T09:44:38Z</time>
      </trkpt>
      <trkpt lat="42.64694" lon="1.8109">
        <ele>1521.9</ele>
        <time>2014-02-03T09:44:49Z</time>
      </trkpt>
      <trkpt lat="42.64693" lon="1.81089">
        <ele>1522.87</ele>
        <time>2014-02-03T09:45:00Z</time>
      </trkpt>
      <trkpt lat="42.64695" lon="1.81089">
        <ele>1523.83</ele>
        <time>2014-02-03T09:45:10Z</time>
      </trkpt>
      <trkpt lat="42.64695" lon="1.81088">
        <ele>1523.83</ele>
        <time>2014-02-03T09:45:21Z</time>
      </trkpt>
      <trkpt lat="42.64693" lon="1.81084">
        <ele>1524.79</ele>
        <time>2014-02-03T09:45:29Z</time>
      </trkpt>
      <trkpt lat="42.64693" lon="1.8108">
        <ele>1527.19</ele>
        <time>2014-02-03T09:45:40Z</time>
      </trkpt>
      <trkpt lat="42.6469" lon="1.81075">
        <ele>1527.67</ele>
        <time>2014-02-03T09:45:51Z</time>
      </trkpt>
      <trkpt lat="42.6469" lon="1.81069">
        <ele>1531.04</ele>
        <time>2014-02-03T09:46:03Z</time>
      </trkpt>
      <trkpt lat="42.6469" lon="1.81066">
        <ele>1529.59</ele>
        <time>2014-02-03T09:46:16Z</time>
      </trkpt>
      <trkpt lat="42.64689" lon="1.81066">
        <ele>1530.56</ele>
        <time>2014-02-03T09:46:27Z</time>
      </trkpt>
      <trkpt lat="42.64689" lon="1.81064">
        <ele>1530.56</ele>
        <time>2014-02-03T09:46:37Z</time>
      </trkpt>
      <trkpt lat="42.6469" lon="1.81066">
        <ele>1531.04</ele>
        <time>2014-02-03T09:46:51Z</time>
      </trkpt>
      <trkpt lat="42.64688" lon="1.81064">
        <ele>1531.04</ele>
        <time>2014-02-03T09:47:06Z</time>
      </trkpt>
      <trkpt lat="42.64686" lon="1.81064">
        <ele>1532</ele>
        <time>2014-02-03T09:47:20Z</time>
      </trkpt>
      <trkpt lat="42.64688" lon="1.81063">
        <ele>1532.48</ele>
        <time>2014-02-03T09:47:30Z</time>
      </trkpt>
      <trkpt lat="42.64686" lon="1.81062">
        <ele>1533.44</ele>
        <time>2014-02-03T09:47:39Z</time>
      </trkpt>
      <trkpt lat="42.64684" lon="1.81051">
        <ele>1533.92</ele>
        <time>2014-02-03T09:47:50Z</time>
      </trkpt>
      <trkpt lat="42.64681" lon="1.81044">
        <ele>1533.44</ele>
        <time>2014-02-03T09:48:03Z</time>
      </trkpt>
      <trkpt lat="42.64679" lon="1.8104">
        <ele>1535.36</ele>
        <time>2014-02-03T09:48:17Z</time>
      </trkpt>
      <trkpt lat="42.64673" lon="1.81035">
        <ele>1536.8</ele>
        <time>2014-02-03T09:48:28Z</time>
      </trkpt>
      <trkpt lat="42.64671" lon="1.81027">
        <ele>1539.21</ele>
        <time>2014-02-03T09:48:40Z</time>
      </trkpt>
      <trkpt lat="42.64666" lon="1.81023">
        <ele>1540.17</ele>
        <time>2014-02-03T09:48:49Z</time>
      </trkpt>
      <trkpt lat="42.64666" lon="1.81019">
        <ele>1540.65</ele>
        <time>2014-02-03T09:48:59Z</time>
      </trkpt>
      <trkpt lat="42.6466" lon="1.8101">
        <ele>1542.09</ele>
        <time>2014-02-03T09:49:10Z</time>
      </trkpt>
      <trkpt lat="42.64654" lon="1.81002">
        <ele>1545.46</ele>
        <time>2014-02-03T09:49:22Z</time>
      </trkpt>
      <trkpt lat="42.64652" lon="1.80999">
        <ele>1545.94</ele>
        <time>2014-02-03T09:49:26Z</time>
      </trkpt>
      <trkpt lat="42.6464" lon="1.80986">
        <ele>1542.57</ele>
        <time>2014-02-03T09:49:41Z</time>
      </trkpt>
      <trkpt lat="42.64634" lon="1.80981">
        <ele>1544.5</ele>
        <time>2014-02-03T09:49:54Z</time>
      </trkpt>
      <trkpt lat="42.64632" lon="1.80977">
        <ele>1545.46</ele>
        <time>2014-02-03T09:50:11Z</time>
      </trkpt>
      <trkpt lat="42.64633" lon="1.80984">
        <ele>1546.9</ele>
        <time>2014-02-03T09:50:28Z</time>
      </trkpt>
      <trkpt lat="42.6463" lon="1.80981">
        <ele>1548.82</ele>
        <time>2014-02-03T09:50:46Z</time>
      </trkpt>
      <trkpt lat="42.64632" lon="1.8098">
        <ele>1550.74</ele>
        <time>2014-02-03T09:51:06Z</time>
      </trkpt>
      <trkpt lat="42.64632" lon="1.8098">
        <ele>1551.22</ele>
        <time>2014-02-03T09:51:27Z</time>
      </trkpt>
      <trkpt lat="42.6463" lon="1.80979">
        <ele>1553.63</ele>
        <time>2014-02-03T09:51:31Z</time>
      </trkpt>
      <trkpt lat="42.64621" lon="1.80961">
        <ele>1554.11</ele>
        <time>2014-02-03T09:51:44Z</time>
      </trkpt>
      <trkpt lat="42.6462" lon="1.80956">
        <ele>1549.78</ele>
        <time>2014-02-03T09:51:55Z</time>
      </trkpt>
      <trkpt lat="42.64618" lon="1.80949">
        <ele>1547.38</ele>
        <time>2014-02-03T09:52:07Z</time>
      </trkpt>
      <trkpt lat="42.64612" lon="1.80937">
        <ele>1546.42</ele>
        <time>2014-02-03T09:52:19Z</time>
      </trkpt>
      <trkpt lat="42.6461" lon="1.80935">
        <ele>1545.94</ele>
        <time>2014-02-03T09:52:22Z</time>
      </trkpt>
      <trkpt lat="42.64606" lon="1.80929">
        <ele>1546.42</ele>
        <time>2014-02-03T09:52:31Z</time>
      </trkpt>
      <trkpt lat="42.64603" lon="1.80923">
        <ele>1546.9</ele>
        <time>2014-02-03T09:52:36Z</time>
      </trkpt>
      <trkpt lat="42.64601" lon="1.80917">
        <ele>1546.9</ele>
        <time>2014-02-03T09:52:41Z</time>
      </trkpt>
      <trkpt lat="42.64599" lon="1.80909">
        <ele>1545.46</ele>
        <time>2014-02-03T09:52:49Z</time>
      </trkpt>
      <trkpt lat="42.64596" lon="1.80907">
        <ele>1545.46</ele>
        <time>2014-02-03T09:52:53Z</time>
      </trkpt>
      <trkpt lat="42.64591" lon="1.809">
        <ele>1543.53</ele>
        <time>2014-02-03T09:53:01Z</time>
      </trkpt>
      <trkpt lat="42.64582" lon="1.8089">
        <ele>1541.13</ele>
        <time>2014-02-03T09:53:14Z</time>
      </trkpt>
      <trkpt lat="42.64581" lon="1.80889">
        <ele>1541.13</ele>
        <time>2014-02-03T09:53:15Z</time>
      </trkpt>
      <trkpt lat="42.6457" lon="1.80878">
        <ele>1538.73</ele>
        <time>2014-02-03T09:53:27Z</time>
      </trkpt>
      <trkpt lat="42.64567" lon="1.80874">
        <ele>1538.73</ele>
        <time>2014-02-03T09:53:39Z</time>
      </trkpt>
      <trkpt lat="42.64567" lon="1.80873">
        <ele>1537.77</ele>
        <time>2014-02-03T09:53:48Z</time>
      </trkpt>
      <trkpt lat="42.64567" lon="1.80868">
        <ele>1537.29</ele>
        <time>2014-02-03T09:53:53Z</time>
      </trkpt>
      <trkpt lat="42.64568" lon="1.80865">
        <ele>1537.29</ele>
        <time>2014-02-03T09:53:55Z</time>
      </trkpt>
      <trkpt lat="42.64573" lon="1.80856">
        <ele>1539.69</ele>
        <time>2014-02-03T09:54:06Z</time>
      </trkpt>
      <trkpt lat="42.64568" lon="1.80848">
        <ele>1539.69</ele>
        <time>2014-02-03T09:54:18Z</time>
      </trkpt>
      <trkpt lat="42.64563" lon="1.80836">
        <ele>1542.57</ele>
        <time>2014-02-03T09:54:30Z</time>
      </trkpt>
      <trkpt lat="42.6456" lon="1.80833">
        <ele>1544.5</ele>
        <time>2014-02-03T09:54:49Z</time>
      </trkpt>
      <trkpt lat="42.64556" lon="1.80831">
        <ele>1545.94</ele>
        <time>2014-02-03T09:55:06Z</time>
      </trkpt>
      <trkpt lat="42.64549" lon="1.80831">
        <ele>1546.9</ele>
        <time>2014-02-03T09:55:13Z</time>
      </trkpt>
      <trkpt lat="42.64539" lon="1.8082">
        <ele>1548.34</ele>
        <time>2014-02-03T09:55:27Z</time>
      </trkpt>
      <trkpt lat="42.64529" lon="1.80813">
        <ele>1548.34</ele>
        <time>2014-02-03T09:55:40Z</time>
      </trkpt>
      <trkpt lat="42.64529" lon="1.80813">
        <ele>1547.86</ele>
        <time>2014-02-03T09:55:41Z</time>
      </trkpt>
      <trkpt lat="42.6452" lon="1.80803">
        <ele>1550.26</ele>
        <time>2014-02-03T09:55:54Z</time>
      </trkpt>
      <trkpt lat="42.64517" lon="1.80797">
        <ele>1551.71</ele>
        <time>2014-02-03T09:56:01Z</time>
      </trkpt>
      <trkpt lat="42.64517" lon="1.80791">
        <ele>1551.22</ele>
        <time>2014-02-03T09:56:04Z</time>
      </trkpt>
      <trkpt lat="42.64514" lon="1.80781">
        <ele>1551.22</ele>
        <time>2014-02-03T09:56:11Z</time>
      </trkpt>
      <trkpt lat="42.64504" lon="1.8077">
        <ele>1552.19</ele>
        <time>2014-02-03T09:56:25Z</time>
      </trkpt>
      <trkpt lat="42.64495" lon="1.80756">
        <ele>1554.59</ele>
        <time>2014-02-03T09:56:38Z</time>
      </trkpt>
      <trkpt lat="42.64488" lon="1.80747">
        <ele>1556.51</ele>
        <time>2014-02-03T09:56:49Z</time>
      </trkpt>
      <trkpt lat="42.64486" lon="1.80732">
        <ele>1556.03</ele>
        <time>2014-02-03T09:56:58Z</time>
      </trkpt>
      <trkpt lat="42.64484" lon="1.80728">
        <ele>1555.55</ele>
        <time>2014-02-03T09:57:01Z</time>
      </trkpt>
      <trkpt lat="42.64478" lon="1.80712">
        <ele>1552.67</ele>
        <time>2014-02-03T09:57:13Z</time>
      </trkpt>
      <trkpt lat="42.64473" lon="1.80702">
        <ele>1553.63</ele>
        <time>2014-02-03T09:57:25Z</time>
      </trkpt>
      <trkpt lat="42.64468" lon="1.80695">
        <ele>1553.63</ele>
        <time>2014-02-03T09:57:37Z</time>
      </trkpt>
      <trkpt lat="42.64464" lon="1.80688">
        <ele>1556.03</ele>
        <time>2014-02-03T09:57:48Z</time>
      </trkpt>
      <trkpt lat="42.64463" lon="1.80685">
        <ele>1556.03</ele>
        <time>2014-02-03T09:57:51Z</time>
      </trkpt>
      <trkpt lat="42.64467" lon="1.80658">
        <ele>1553.15</ele>
        <time>2014-02-03T09:58:05Z</time>
      </trkpt>
      <trkpt lat="42.64468" lon="1.80652">
        <ele>1551.71</ele>
        <time>2014-02-03T09:58:09Z</time>
      </trkpt>
      <trkpt lat="42.64461" lon="1.80644">
        <ele>1551.22</ele>
        <time>2014-02-03T09:58:22Z</time>
      </trkpt>
      <trkpt lat="42.64454" lon="1.80635">
        <ele>1547.86</ele>
        <time>2014-02-03T09:58:34Z</time>
      </trkpt>
      <trkpt lat="42.6445" lon="1.80628">
        <ele>1547.38</ele>
        <time>2014-02-03T09:58:47Z</time>
      </trkpt>
      <trkpt lat="42.64449" lon="1.80616">
        <ele>1546.9</ele>
        <time>2014-02-03T09:58:59Z</time>
      </trkpt>
      <trkpt lat="42.64449" lon="1.80615">
        <ele>1546.9</ele>
        <time>2014-02-03T09:59:00Z</time>
      </trkpt>
      <trkpt lat="42.64446" lon="1.80604">
        <ele>1548.82</ele>
        <time>2014-02-03T09:59:12Z</time>
      </trkpt>
      <trkpt lat="42.64442" lon="1.806">
        <ele>1549.78</ele>
        <time>2014-02-03T09:59:20Z</time>
      </trkpt>
      <trkpt lat="42.64439" lon="1.80593">
        <ele>1551.71</ele>
        <time>2014-02-03T09:59:29Z</time>
      </trkpt>
      <trkpt lat="42.64438" lon="1.80586">
        <ele>1554.11</ele>
        <time>2014-02-03T09:59:40Z</time>
      </trkpt>
      <trkpt lat="42.64437" lon="1.80578">
        <ele>1556.03</ele>
        <time>2014-02-03T09:59:52Z</time>
      </trkpt>
      <trkpt lat="42.6443" lon="1.80569">
        <ele>1559.4</ele>
        <time>2014-02-03T10:00:05Z</time>
      </trkpt>
      <trkpt lat="42.64425" lon="1.80565">
        <ele>1560.84</ele>
        <time>2014-02-03T10:00:15Z</time>
      </trkpt>
      <trkpt lat="42.64422" lon="1.80556">
        <ele>1561.32</ele>
        <time>2014-02-03T10:00:28Z</time>
      </trkpt>
      <trkpt lat="42.6442" lon="1.80552">
        <ele>1559.4</ele>
        <time>2014-02-03T10:00:43Z</time>
      </trkpt>
      <trkpt lat="42.64418" lon="1.8055">
        <ele>1559.4</ele>
        <time>2014-02-03T10:00:54Z</time>
      </trkpt>
      <trkpt lat="42.6442" lon="1.80545">
        <ele>1557.47</ele>
        <time>2014-02-03T10:01:04Z</time>
      </trkpt>
      <trkpt lat="42.6442" lon="1.80545">
        <ele>1557.47</ele>
        <time>2014-02-03T10:01:06Z</time>
      </trkpt>
      <trkpt lat="42.64423" lon="1.80544">
        <ele>1557.47</ele>
        <time>2014-02-03T10:01:17Z</time>
      </trkpt>
      <trkpt lat="42.64422" lon="1.80544">
        <ele>1556.99</ele>
        <time>2014-02-03T10:01:33Z</time>
      </trkpt>
      <trkpt lat="42.64421" lon="1.80544">
        <ele>1557.95</ele>
        <time>2014-02-03T10:01:47Z</time>
      </trkpt>
      <trkpt lat="42.64417" lon="1.80544">
        <ele>1557.47</ele>
        <time>2014-02-03T10:01:59Z</time>
      </trkpt>
      <trkpt lat="42.64415" lon="1.80543">
        <ele>1557.95</ele>
        <time>2014-02-03T10:02:02Z</time>
      </trkpt>
      <trkpt lat="42.64411" lon="1.80537">
        <ele>1558.92</ele>
        <time>2014-02-03T10:02:12Z</time>
      </trkpt>
      <trkpt lat="42.64411" lon="1.80532">
        <ele>1558.92</ele>
        <time>2014-02-03T10:02:22Z</time>
      </trkpt>
      <trkpt lat="42.64415" lon="1.80531">
        <ele>1559.4</ele>
        <time>2014-02-03T10:02:37Z</time>
      </trkpt>
      <trkpt lat="42.64415" lon="1.8053">
        <ele>1558.92</ele>
        <time>2014-02-03T10:02:48Z</time>
      </trkpt>
      <trkpt lat="42.64417" lon="1.80527">
        <ele>1557.47</ele>
        <time>2014-02-03T10:03:06Z</time>
      </trkpt>
      <trkpt lat="42.64416" lon="1.80528">
        <ele>1556.51</ele>
        <time>2014-02-03T10:03:16Z</time>
      </trkpt>
      <trkpt lat="42.64415" lon="1.80531">
        <ele>1556.51</ele>
        <time>2014-02-03T10:03:31Z</time>
      </trkpt>
      <trkpt lat="42.64416" lon="1.80529">
        <ele>1556.03</ele>
        <time>2014-02-03T10:03:50Z</time>
      </trkpt>
      <trkpt lat="42.64415" lon="1.80528">
        <ele>1558.43</ele>
        <time>2014-02-03T10:04:04Z</time>
      </trkpt>
      <trkpt lat="42.64417" lon="1.80524">
        <ele>1558.92</ele>
        <time>2014-02-03T10:04:19Z</time>
      </trkpt>
      <trkpt lat="42.64415" lon="1.80527">
        <ele>1557.95</ele>
        <time>2014-02-03T10:04:37Z</time>
      </trkpt>
      <trkpt lat="42.64414" lon="1.80528">
        <ele>1554.59</ele>
        <time>2014-02-03T10:04:50Z</time>
      </trkpt>
      <trkpt lat="42.64414" lon="1.80529">
        <ele>1556.51</ele>
        <time>2014-02-03T10:05:10Z</time>
      </trkpt>
      <trkpt lat="42.64413" lon="1.80536">
        <ele>1555.07</ele>
        <time>2014-02-03T10:05:32Z</time>
      </trkpt>
      <trkpt lat="42.64414" lon="1.80528">
        <ele>1558.92</ele>
        <time>2014-02-03T10:05:44Z</time>
      </trkpt>
      <trkpt lat="42.64413" lon="1.80529">
        <ele>1560.84</ele>
        <time>2014-02-03T10:05:55Z</time>
      </trkpt>
      <trkpt lat="42.64416" lon="1.80532">
        <ele>1558.43</ele>
        <time>2014-02-03T10:06:15Z</time>
      </trkpt>
      <trkpt lat="42.64415" lon="1.80531">
        <ele>1558.92</ele>
        <time>2014-02-03T10:06:43Z</time>
      </trkpt>
      <trkpt lat="42.64416" lon="1.8053">
        <ele>1557.47</ele>
        <time>2014-02-03T10:07:07Z</time>
      </trkpt>
      <trkpt lat="42.64413" lon="1.80529">
        <ele>1556.99</ele>
        <time>2014-02-03T10:07:35Z</time>
      </trkpt>
      <trkpt lat="42.64407" lon="1.80528">
        <ele>1557.47</ele>
        <time>2014-02-03T10:07:42Z</time>
      </trkpt>
      <trkpt lat="42.64395" lon="1.80519">
        <ele>1562.28</ele>
        <time>2014-02-03T10:07:56Z</time>
      </trkpt>
      <trkpt lat="42.64389" lon="1.80516">
        <ele>1563.24</ele>
        <time>2014-02-03T10:08:03Z</time>
      </trkpt>
      <trkpt lat="42.64379" lon="1.8051">
        <ele>1565.64</ele>
        <time>2014-02-03T10:08:14Z</time>
      </trkpt>
      <trkpt lat="42.64373" lon="1.80508">
        <ele>1567.09</ele>
        <time>2014-02-03T10:08:22Z</time>
      </trkpt>
      <trkpt lat="42.64364" lon="1.80504">
        <ele>1569.01</ele>
        <time>2014-02-03T10:08:34Z</time>
      </trkpt>
      <trkpt lat="42.64356" lon="1.80497">
        <ele>1572.37</ele>
        <time>2014-02-03T10:08:46Z</time>
      </trkpt>
      <trkpt lat="42.64349" lon="1.8049">
        <ele>1573.82</ele>
        <time>2014-02-03T10:08:58Z</time>
      </trkpt>
      <trkpt lat="42.64343" lon="1.80482">
        <ele>1574.3</ele>
        <time>2014-02-03T10:09:10Z</time>
      </trkpt>
      <trkpt lat="42.64342" lon="1.8048">
        <ele>1574.3</ele>
        <time>2014-02-03T10:09:12Z</time>
      </trkpt>
      <trkpt lat="42.64336" lon="1.80472">
        <ele>1574.78</ele>
        <time>2014-02-03T10:09:25Z</time>
      </trkpt>
      <trkpt lat="42.64329" lon="1.80468">
        <ele>1573.33</ele>
        <time>2014-02-03T10:09:37Z</time>
      </trkpt>
      <trkpt lat="42.64326" lon="1.80465">
        <ele>1575.74</ele>
        <time>2014-02-03T10:09:49Z</time>
      </trkpt>
      <trkpt lat="42.64326" lon="1.80465">
        <ele>1575.74</ele>
        <time>2014-02-03T10:09:50Z</time>
      </trkpt>
      <trkpt lat="42.64318" lon="1.80467">
        <ele>1574.78</ele>
        <time>2014-02-03T10:10:03Z</time>
      </trkpt>
      <trkpt lat="42.64313" lon="1.80472">
        <ele>1577.66</ele>
        <time>2014-02-03T10:10:15Z</time>
      </trkpt>
      <trkpt lat="42.64306" lon="1.80478">
        <ele>1578.14</ele>
        <time>2014-02-03T10:10:27Z</time>
      </trkpt>
      <trkpt lat="42.64296" lon="1.80475">
        <ele>1579.58</ele>
        <time>2014-02-03T10:10:39Z</time>
      </trkpt>
      <trkpt lat="42.64296" lon="1.80475">
        <ele>1580.06</ele>
        <time>2014-02-03T10:10:40Z</time>
      </trkpt>
      <trkpt lat="42.64291" lon="1.80473">
        <ele>1581.99</ele>
        <time>2014-02-03T10:10:46Z</time>
      </trkpt>
      <trkpt lat="42.64288" lon="1.80474">
        <ele>1581.99</ele>
        <time>2014-02-03T10:10:50Z</time>
      </trkpt>
      <trkpt lat="42.64286" lon="1.80473">
        <ele>1581.99</ele>
        <time>2014-02-03T10:10:52Z</time>
      </trkpt>
      <trkpt lat="42.64283" lon="1.80473">
        <ele>1582.47</ele>
        <time>2014-02-03T10:10:56Z</time>
      </trkpt>
      <trkpt lat="42.64279" lon="1.8047">
        <ele>1583.43</ele>
        <time>2014-02-03T10:11:01Z</time>
      </trkpt>
      <trkpt lat="42.64274" lon="1.80461">
        <ele>1583.43</ele>
        <time>2014-02-03T10:11:12Z</time>
      </trkpt>
      <trkpt lat="42.64265" lon="1.80456">
        <ele>1585.35</ele>
        <time>2014-02-03T10:11:25Z</time>
      </trkpt>
      <trkpt lat="42.64258" lon="1.8045">
        <ele>1588.24</ele>
        <time>2014-02-03T10:11:38Z</time>
      </trkpt>
      <trkpt lat="42.64254" lon="1.80444">
        <ele>1589.2</ele>
        <time>2014-02-03T10:11:49Z</time>
      </trkpt>
      <trkpt lat="42.64256" lon="1.80442">
        <ele>1590.64</ele>
        <time>2014-02-03T10:12:03Z</time>
      </trkpt>
      <trkpt lat="42.64253" lon="1.80435">
        <ele>1591.12</ele>
        <time>2014-02-03T10:12:14Z</time>
      </trkpt>
      <trkpt lat="42.64252" lon="1.80438">
        <ele>1592.08</ele>
        <time>2014-02-03T10:12:26Z</time>
      </trkpt>
      <trkpt lat="42.64251" lon="1.80438">
        <ele>1590.64</ele>
        <time>2014-02-03T10:12:31Z</time>
      </trkpt>
      <trkpt lat="42.64249" lon="1.80432">
        <ele>1591.6</ele>
        <time>2014-02-03T10:12:40Z</time>
      </trkpt>
      <trkpt lat="42.64248" lon="1.80431">
        <ele>1593.04</ele>
        <time>2014-02-03T10:12:55Z</time>
      </trkpt>
      <trkpt lat="42.64244" lon="1.8043">
        <ele>1593.52</ele>
        <time>2014-02-03T10:13:00Z</time>
      </trkpt>
      <trkpt lat="42.64238" lon="1.80428">
        <ele>1594.96</ele>
        <time>2014-02-03T10:13:09Z</time>
      </trkpt>
      <trkpt lat="42.64231" lon="1.80415">
        <ele>1594.96</ele>
        <time>2014-02-03T10:13:23Z</time>
      </trkpt>
      <trkpt lat="42.64227" lon="1.80402">
        <ele>1596.41</ele>
        <time>2014-02-03T10:13:36Z</time>
      </trkpt>
      <trkpt lat="42.64224" lon="1.80394">
        <ele>1596.89</ele>
        <time>2014-02-03T10:13:47Z</time>
      </trkpt>
      <trkpt lat="42.64222" lon="1.80387">
        <ele>1597.85</ele>
        <time>2014-02-03T10:13:57Z</time>
      </trkpt>
      <trkpt lat="42.64216" lon="1.80377">
        <ele>1599.77</ele>
        <time>2014-02-03T10:14:10Z</time>
      </trkpt>
      <trkpt lat="42.64215" lon="1.80374">
        <ele>1599.77</ele>
        <time>2014-02-03T10:14:14Z</time>
      </trkpt>
      <trkpt lat="42.64212" lon="1.80362">
        <ele>1600.25</ele>
        <time>2014-02-03T10:14:27Z</time>
      </trkpt>
      <trkpt lat="42.64206" lon="1.80353">
        <ele>1602.17</ele>
        <time>2014-02-03T10:14:39Z</time>
      </trkpt>
      <trkpt lat="42.64206" lon="1.80351">
        <ele>1602.66</ele>
        <time>2014-02-03T10:14:41Z</time>
      </trkpt>
      <trkpt lat="42.64201" lon="1.80338">
        <ele>1605.06</ele>
        <time>2014-02-03T10:14:55Z</time>
      </trkpt>
      <trkpt lat="42.64196" lon="1.80322">
        <ele>1604.58</ele>
        <time>2014-02-03T10:15:10Z</time>
      </trkpt>
      <trkpt lat="42.64187" lon="1.80316">
        <ele>1604.58</ele>
        <time>2014-02-03T10:15:22Z</time>
      </trkpt>
      <trkpt lat="42.64177" lon="1.80312">
        <ele>1605.54</ele>
        <time>2014-02-03T10:15:36Z</time>
      </trkpt>
      <trkpt lat="42.6417" lon="1.80303">
        <ele>1608.9</ele>
        <time>2014-02-03T10:15:50Z</time>
      </trkpt>
      <trkpt lat="42.64162" lon="1.80297">
        <ele>1608.9</ele>
        <time>2014-02-03T10:16:04Z</time>
      </trkpt>
      <trkpt lat="42.64159" lon="1.80291">
        <ele>1610.83</ele>
        <time>2014-02-03T10:16:20Z</time>
      </trkpt>
      <trkpt lat="42.64154" lon="1.80289">
        <ele>1612.75</ele>
        <time>2014-02-03T10:16:38Z</time>
      </trkpt>
      <trkpt lat="42.64147" lon="1.8029">
        <ele>1610.35</ele>
        <time>2014-02-03T10:16:50Z</time>
      </trkpt>
      <trkpt lat="42.64141" lon="1.80294">
        <ele>1611.31</ele>
        <time>2014-02-03T10:17:02Z</time>
      </trkpt>
      <trkpt lat="42.64134" lon="1.8029">
        <ele>1614.19</ele>
        <time>2014-02-03T10:17:15Z</time>
      </trkpt>
      <trkpt lat="42.64132" lon="1.80288">
        <ele>1615.15</ele>
        <time>2014-02-03T10:17:19Z</time>
      </trkpt>
      <trkpt lat="42.64126" lon="1.80284">
        <ele>1617.56</ele>
        <time>2014-02-03T10:17:31Z</time>
      </trkpt>
      <trkpt lat="42.64116" lon="1.8028">
        <ele>1620.44</ele>
        <time>2014-02-03T10:17:45Z</time>
      </trkpt>
      <trkpt lat="42.6411" lon="1.80273">
        <ele>1622.36</ele>
        <time>2014-02-03T10:17:57Z</time>
      </trkpt>
      <trkpt lat="42.64103" lon="1.80268">
        <ele>1622.84</ele>
        <time>2014-02-03T10:18:08Z</time>
      </trkpt>
      <trkpt lat="42.64099" lon="1.80256">
        <ele>1624.28</ele>
        <time>2014-02-03T10:18:21Z</time>
      </trkpt>
      <trkpt lat="42.64099" lon="1.80252">
        <ele>1623.32</ele>
        <time>2014-02-03T10:18:25Z</time>
      </trkpt>
      <trkpt lat="42.64094" lon="1.80242">
        <ele>1621.88</ele>
        <time>2014-02-03T10:18:38Z</time>
      </trkpt>
      <trkpt lat="42.64089" lon="1.80226">
        <ele>1620.92</ele>
        <time>2014-02-03T10:18:55Z</time>
      </trkpt>
      <trkpt lat="42.64088" lon="1.8022">
        <ele>1619.96</ele>
        <time>2014-02-03T10:19:05Z</time>
      </trkpt>
      <trkpt lat="42.64089" lon="1.80213">
        <ele>1618.04</ele>
        <time>2014-02-03T10:19:13Z</time>
      </trkpt>
      <trkpt lat="42.64089" lon="1.80209">
        <ele>1616.11</ele>
        <time>2014-02-03T10:19:23Z</time>
      </trkpt>
      <trkpt lat="42.64086" lon="1.80205">
        <ele>1618.04</ele>
        <time>2014-02-03T10:19:35Z</time>
      </trkpt>
      <trkpt lat="42.64082" lon="1.802">
        <ele>1617.07</ele>
        <time>2014-02-03T10:19:47Z</time>
      </trkpt>
      <trkpt lat="42.64081" lon="1.80199">
        <ele>1617.07</ele>
        <time>2014-02-03T10:19:48Z</time>
      </trkpt>
      <trkpt lat="42.64075" lon="1.80187">
        <ele>1616.59</ele>
        <time>2014-02-03T10:20:00Z</time>
      </trkpt>
      <trkpt lat="42.64069" lon="1.80177">
        <ele>1622.36</ele>
        <time>2014-02-03T10:20:12Z</time>
      </trkpt>
      <trkpt lat="42.64069" lon="1.80169">
        <ele>1625.73</ele>
        <time>2014-02-03T10:20:24Z</time>
      </trkpt>
      <trkpt lat="42.64073" lon="1.80167">
        <ele>1626.69</ele>
        <time>2014-02-03T10:20:33Z</time>
      </trkpt>
      <trkpt lat="42.64072" lon="1.80165">
        <ele>1628.13</ele>
        <time>2014-02-03T10:20:45Z</time>
      </trkpt>
      <trkpt lat="42.64075" lon="1.80157">
        <ele>1630.05</ele>
        <time>2014-02-03T10:20:57Z</time>
      </trkpt>
      <trkpt lat="42.64069" lon="1.80154">
        <ele>1626.21</ele>
        <time>2014-02-03T10:21:08Z</time>
      </trkpt>
      <trkpt lat="42.64065" lon="1.80149">
        <ele>1628.13</ele>
        <time>2014-02-03T10:21:19Z</time>
      </trkpt>
      <trkpt lat="42.64064" lon="1.80138">
        <ele>1628.13</ele>
        <time>2014-02-03T10:21:29Z</time>
      </trkpt>
      <trkpt lat="42.64063" lon="1.80138">
        <ele>1631.01</ele>
        <time>2014-02-03T10:21:48Z</time>
      </trkpt>
      <trkpt lat="42.64061" lon="1.80138">
        <ele>1630.53</ele>
        <time>2014-02-03T10:22:00Z</time>
      </trkpt>
      <trkpt lat="42.64063" lon="1.80136">
        <ele>1630.53</ele>
        <time>2014-02-03T10:22:15Z</time>
      </trkpt>
      <trkpt lat="42.64061" lon="1.80135">
        <ele>1623.8</ele>
        <time>2014-02-03T10:22:36Z</time>
      </trkpt>
      <trkpt lat="42.64062" lon="1.80138">
        <ele>1626.21</ele>
        <time>2014-02-03T10:23:08Z</time>
      </trkpt>
      <trkpt lat="42.64064" lon="1.80139">
        <ele>1631.01</ele>
        <time>2014-02-03T10:23:40Z</time>
      </trkpt>
      <trkpt lat="42.64065" lon="1.80138">
        <ele>1631.01</ele>
        <time>2014-02-03T10:23:42Z</time>
      </trkpt>
      <trkpt lat="42.64064" lon="1.80137">
        <ele>1631.49</ele>
        <time>2014-02-03T10:23:53Z</time>
      </trkpt>
      <trkpt lat="42.64065" lon="1.8014">
        <ele>1630.53</ele>
        <time>2014-02-03T10:24:12Z</time>
      </trkpt>
      <trkpt lat="42.64061" lon="1.80132">
        <ele>1629.57</ele>
        <time>2014-02-03T10:24:25Z</time>
      </trkpt>
      <trkpt lat="42.64062" lon="1.80123">
        <ele>1630.05</ele>
        <time>2014-02-03T10:24:37Z</time>
      </trkpt>
      <trkpt lat="42.64065" lon="1.80116">
        <ele>1630.05</ele>
        <time>2014-02-03T10:24:50Z</time>
      </trkpt>
      <trkpt lat="42.64065" lon="1.80113">
        <ele>1629.57</ele>
        <time>2014-02-03T10:24:59Z</time>
      </trkpt>
      <trkpt lat="42.64067" lon="1.8011">
        <ele>1629.09</ele>
        <time>2014-02-03T10:25:14Z</time>
      </trkpt>
      <trkpt lat="42.64066" lon="1.8011">
        <ele>1626.69</ele>
        <time>2014-02-03T10:25:30Z</time>
      </trkpt>
      <trkpt lat="42.64065" lon="1.8011">
        <ele>1628.13</ele>
        <time>2014-02-03T10:25:52Z</time>
      </trkpt>
      <trkpt lat="42.64066" lon="1.8011">
        <ele>1627.65</ele>
        <time>2014-02-03T10:26:13Z</time>
      </trkpt>
      <trkpt lat="42.64066" lon="1.80107">
        <ele>1625.25</ele>
        <time>2014-02-03T10:26:33Z</time>
      </trkpt>
      <trkpt lat="42.64066" lon="1.8011">
        <ele>1626.69</ele>
        <time>2014-02-03T10:26:52Z</time>
      </trkpt>
      <trkpt lat="42.64061" lon="1.80109">
        <ele>1631.01</ele>
        <time>2014-02-03T10:27:10Z</time>
      </trkpt>
      <trkpt lat="42.64059" lon="1.80109">
        <ele>1633.42</ele>
        <time>2014-02-03T10:27:19Z</time>
      </trkpt>
      <trkpt lat="42.64057" lon="1.80108">
        <ele>1634.86</ele>
        <time>2014-02-03T10:27:37Z</time>
      </trkpt>
      <trkpt lat="42.64055" lon="1.80114">
        <ele>1633.42</ele>
        <time>2014-02-03T10:27:50Z</time>
      </trkpt>
      <trkpt lat="42.64059" lon="1.80107">
        <ele>1630.53</ele>
        <time>2014-02-03T10:28:04Z</time>
      </trkpt>
      <trkpt lat="42.64057" lon="1.80109">
        <ele>1628.61</ele>
        <time>2014-02-03T10:28:23Z</time>
      </trkpt>
      <trkpt lat="42.64056" lon="1.80103">
        <ele>1631.49</ele>
        <time>2014-02-03T10:28:35Z</time>
      </trkpt>
      <trkpt lat="42.64058" lon="1.801">
        <ele>1633.9</ele>
        <time>2014-02-03T10:28:47Z</time>
      </trkpt>
      <trkpt lat="42.64064" lon="1.80094">
        <ele>1634.38</ele>
        <time>2014-02-03T10:29:02Z</time>
      </trkpt>
      <trkpt lat="42.64065" lon="1.80093">
        <ele>1634.86</ele>
        <time>2014-02-03T10:29:13Z</time>
      </trkpt>
      <trkpt lat="42.64064" lon="1.80093">
        <ele>1634.38</ele>
        <time>2014-02-03T10:29:25Z</time>
      </trkpt>
      <trkpt lat="42.64065" lon="1.80092">
        <ele>1634.86</ele>
        <time>2014-02-03T10:29:37Z</time>
      </trkpt>
      <trkpt lat="42.64063" lon="1.80093">
        <ele>1634.86</ele>
        <time>2014-02-03T10:29:46Z</time>
      </trkpt>
      <trkpt lat="42.64062" lon="1.8009">
        <ele>1634.38</ele>
        <time>2014-02-03T10:29:52Z</time>
      </trkpt>
      <trkpt lat="42.64062" lon="1.80092">
        <ele>1638.22</ele>
        <time>2014-02-03T10:30:07Z</time>
      </trkpt>
      <trkpt lat="42.64063" lon="1.80092">
        <ele>1640.63</ele>
        <time>2014-02-03T10:30:38Z</time>
      </trkpt>
      <trkpt lat="42.64057" lon="1.8009">
        <ele>1641.59</ele>
        <time>2014-02-03T10:30:45Z</time>
      </trkpt>
      <trkpt lat="42.64052" lon="1.80086">
        <ele>1641.59</ele>
        <time>2014-02-03T10:30:51Z</time>
      </trkpt>
      <trkpt lat="42.64047" lon="1.80085">
        <ele>1642.55</ele>
        <time>2014-02-03T10:31:00Z</time>
      </trkpt>
      <trkpt lat="42.64049" lon="1.80081">
        <ele>1642.55</ele>
        <time>2014-02-03T10:31:07Z</time>
      </trkpt>
      <trkpt lat="42.6405" lon="1.80076">
        <ele>1642.55</ele>
        <time>2014-02-03T10:31:11Z</time>
      </trkpt>
      <trkpt lat="42.6405" lon="1.80067">
        <ele>1643.51</ele>
        <time>2014-02-03T10:31:23Z</time>
      </trkpt>
      <trkpt lat="42.64044" lon="1.80065">
        <ele>1646.88</ele>
        <time>2014-02-03T10:31:36Z</time>
      </trkpt>
      <trkpt lat="42.6404" lon="1.80065">
        <ele>1647.36</ele>
        <time>2014-02-03T10:31:53Z</time>
      </trkpt>
      <trkpt lat="42.64039" lon="1.8006">
        <ele>1647.84</ele>
        <time>2014-02-03T10:31:58Z</time>
      </trkpt>
      <trkpt lat="42.64039" lon="1.80055">
        <ele>1647.84</ele>
        <time>2014-02-03T10:32:02Z</time>
      </trkpt>
      <trkpt lat="42.6404" lon="1.80051">
        <ele>1648.32</ele>
        <time>2014-02-03T10:32:06Z</time>
      </trkpt>
      <trkpt lat="42.64037" lon="1.80035">
        <ele>1650.24</ele>
        <time>2014-02-03T10:32:19Z</time>
      </trkpt>
      <trkpt lat="42.64037" lon="1.80024">
        <ele>1650.72</ele>
        <time>2014-02-03T10:32:30Z</time>
      </trkpt>
      <trkpt lat="42.64037" lon="1.80023">
        <ele>1650.72</ele>
        <time>2014-02-03T10:32:31Z</time>
      </trkpt>
      <trkpt lat="42.64036" lon="1.80019">
        <ele>1652.64</ele>
        <time>2014-02-03T10:32:49Z</time>
      </trkpt>
      <trkpt lat="42.64038" lon="1.80012">
        <ele>1652.64</ele>
        <time>2014-02-03T10:32:57Z</time>
      </trkpt>
      <trkpt lat="42.64033" lon="1.80007">
        <ele>1653.6</ele>
        <time>2014-02-03T10:33:03Z</time>
      </trkpt>
      <trkpt lat="42.64028" lon="1.79996">
        <ele>1652.64</ele>
        <time>2014-02-03T10:33:09Z</time>
      </trkpt>
      <trkpt lat="42.6402" lon="1.79971">
        <ele>1651.68</ele>
        <time>2014-02-03T10:33:22Z</time>
      </trkpt>
      <trkpt lat="42.64014" lon="1.79956">
        <ele>1651.68</ele>
        <time>2014-02-03T10:33:33Z</time>
      </trkpt>
      <trkpt lat="42.64014" lon="1.79963">
        <ele>1652.16</ele>
        <time>2014-02-03T10:33:44Z</time>
      </trkpt>
      <trkpt lat="42.64014" lon="1.7996">
        <ele>1652.64</ele>
        <time>2014-02-03T10:33:59Z</time>
      </trkpt>
      <trkpt lat="42.64018" lon="1.79951">
        <ele>1650.24</ele>
        <time>2014-02-03T10:34:23Z</time>
      </trkpt>
      <trkpt lat="42.64016" lon="1.79953">
        <ele>1652.64</ele>
        <time>2014-02-03T10:34:39Z</time>
      </trkpt>
      <trkpt lat="42.64017" lon="1.79953">
        <ele>1653.12</ele>
        <time>2014-02-03T10:35:10Z</time>
      </trkpt>
      <trkpt lat="42.64016" lon="1.79952">
        <ele>1654.09</ele>
        <time>2014-02-03T10:35:48Z</time>
      </trkpt>
      <trkpt lat="42.64016" lon="1.79949">
        <ele>1653.12</ele>
        <time>2014-02-03T10:36:27Z</time>
      </trkpt>
      <trkpt lat="42.64017" lon="1.79954">
        <ele>1652.16</ele>
        <time>2014-02-03T10:36:37Z</time>
      </trkpt>
      <trkpt lat="42.64019" lon="1.7995">
        <ele>1651.68</ele>
        <time>2014-02-03T10:36:53Z</time>
      </trkpt>
      <trkpt lat="42.64018" lon="1.79953">
        <ele>1651.2</ele>
        <time>2014-02-03T10:37:14Z</time>
      </trkpt>
      <trkpt lat="42.64017" lon="1.79953">
        <ele>1652.16</ele>
        <time>2014-02-03T10:37:23Z</time>
      </trkpt>
      <trkpt lat="42.64018" lon="1.7995">
        <ele>1650.72</ele>
        <time>2014-02-03T10:37:36Z</time>
      </trkpt>
      <trkpt lat="42.64019" lon="1.79953">
        <ele>1651.68</ele>
        <time>2014-02-03T10:38:02Z</time>
      </trkpt>
      <trkpt lat="42.64018" lon="1.79949">
        <ele>1651.2</ele>
        <time>2014-02-03T10:38:11Z</time>
      </trkpt>
      <trkpt lat="42.64018" lon="1.79949">
        <ele>1649.76</ele>
        <time>2014-02-03T10:38:18Z</time>
      </trkpt>
      <trkpt lat="42.6402" lon="1.7995">
        <ele>1650.24</ele>
        <time>2014-02-03T10:38:25Z</time>
      </trkpt>
      <trkpt lat="42.6402" lon="1.7995">
        <ele>1650.24</ele>
        <time>2014-02-03T10:38:26Z</time>
      </trkpt>
      <trkpt lat="42.6403" lon="1.79941">
        <ele>1649.28</ele>
        <time>2014-02-03T10:38:38Z</time>
      </trkpt>
      <trkpt lat="42.64032" lon="1.79944">
        <ele>1651.2</ele>
        <time>2014-02-03T10:38:48Z</time>
      </trkpt>
      <trkpt lat="42.64032" lon="1.79941">
        <ele>1650.72</ele>
        <time>2014-02-03T10:38:59Z</time>
      </trkpt>
      <trkpt lat="42.64034" lon="1.7994">
        <ele>1651.2</ele>
        <time>2014-02-03T10:39:13Z</time>
      </trkpt>
      <trkpt lat="42.64035" lon="1.79941">
        <ele>1651.2</ele>
        <time>2014-02-03T10:39:23Z</time>
      </trkpt>
      <trkpt lat="42.64035" lon="1.7994">
        <ele>1650.72</ele>
        <time>2014-02-03T10:39:30Z</time>
      </trkpt>
      <trkpt lat="42.64033" lon="1.79939">
        <ele>1652.16</ele>
        <time>2014-02-03T10:39:35Z</time>
      </trkpt>
      <trkpt lat="42.64031" lon="1.79935">
        <ele>1651.68</ele>
        <time>2014-02-03T10:39:38Z</time>
      </trkpt>
      <trkpt lat="42.64027" lon="1.79914">
        <ele>1651.2</ele>
        <time>2014-02-03T10:39:50Z</time>
      </trkpt>
      <trkpt lat="42.64014" lon="1.79904">
        <ele>1651.2</ele>
        <time>2014-02-03T10:40:03Z</time>
      </trkpt>
      <trkpt lat="42.64008" lon="1.799">
        <ele>1651.2</ele>
        <time>2014-02-03T10:40:17Z</time>
      </trkpt>
      <trkpt lat="42.64006" lon="1.79904">
        <ele>1654.09</ele>
        <time>2014-02-03T10:40:33Z</time>
      </trkpt>
      <trkpt lat="42.63998" lon="1.79897">
        <ele>1653.6</ele>
        <time>2014-02-03T10:40:44Z</time>
      </trkpt>
      <trkpt lat="42.63979" lon="1.79889">
        <ele>1653.6</ele>
        <time>2014-02-03T10:41:00Z</time>
      </trkpt>
      <trkpt lat="42.63964" lon="1.79883">
        <ele>1653.6</ele>
        <time>2014-02-03T10:41:13Z</time>
      </trkpt>
      <trkpt lat="42.6395" lon="1.79874">
        <ele>1653.12</ele>
        <time>2014-02-03T10:41:26Z</time>
      </trkpt>
      <trkpt lat="42.63936" lon="1.79859">
        <ele>1652.64</ele>
        <time>2014-02-03T10:41:40Z</time>
      </trkpt>
      <trkpt lat="42.63924" lon="1.79845">
        <ele>1653.12</ele>
        <time>2014-02-03T10:41:54Z</time>
      </trkpt>
      <trkpt lat="42.63922" lon="1.79843">
        <ele>1653.6</ele>
        <time>2014-02-03T10:41:56Z</time>
      </trkpt>
      <trkpt lat="42.63913" lon="1.79829">
        <ele>1655.05</ele>
        <time>2014-02-03T10:42:09Z</time>
      </trkpt>
      <trkpt lat="42.63903" lon="1.79813">
        <ele>1654.57</ele>
        <time>2014-02-03T10:42:23Z</time>
      </trkpt>
      <trkpt lat="42.63888" lon="1.79798">
        <ele>1653.12</ele>
        <time>2014-02-03T10:42:37Z</time>
      </trkpt>
      <trkpt lat="42.63879" lon="1.79788">
        <ele>1654.09</ele>
        <time>2014-02-03T10:42:47Z</time>
      </trkpt>
      <trkpt lat="42.63868" lon="1.79778">
        <ele>1652.64</ele>
        <time>2014-02-03T10:42:59Z</time>
      </trkpt>
      <trkpt lat="42.63864" lon="1.79768">
        <ele>1655.05</ele>
        <time>2014-02-03T10:43:12Z</time>
      </trkpt>
      <trkpt lat="42.63862" lon="1.79765">
        <ele>1649.76</ele>
        <time>2014-02-03T10:43:29Z</time>
      </trkpt>
      <trkpt lat="42.63855" lon="1.79754">
        <ele>1650.72</ele>
        <time>2014-02-03T10:43:38Z</time>
      </trkpt>
      <trkpt lat="42.63845" lon="1.79734">
        <ele>1652.16</ele>
        <time>2014-02-03T10:43:52Z</time>
      </trkpt>
      <trkpt lat="42.63842" lon="1.79728">
        <ele>1652.64</ele>
        <time>2014-02-03T10:43:57Z</time>
      </trkpt>
      <trkpt lat="42.63836" lon="1.79723">
        <ele>1652.64</ele>
        <time>2014-02-03T10:44:08Z</time>
      </trkpt>
      <trkpt lat="42.63832" lon="1.79714">
        <ele>1651.68</ele>
        <time>2014-02-03T10:44:19Z</time>
      </trkpt>
      <trkpt lat="42.63821" lon="1.79702">
        <ele>1651.2</ele>
        <time>2014-02-03T10:44:30Z</time>
      </trkpt>
      <trkpt lat="42.6382" lon="1.79701">
        <ele>1650.72</ele>
        <time>2014-02-03T10:44:31Z</time>
      </trkpt>
      <trkpt lat="42.63812" lon="1.79693">
        <ele>1650.24</ele>
        <time>2014-02-03T10:44:41Z</time>
      </trkpt>
      <trkpt lat="42.63801" lon="1.79686">
        <ele>1651.68</ele>
        <time>2014-02-03T10:44:54Z</time>
      </trkpt>
      <trkpt lat="42.63794" lon="1.79679">
        <ele>1652.64</ele>
        <time>2014-02-03T10:45:06Z</time>
      </trkpt>
      <trkpt lat="42.63784" lon="1.7967">
        <ele>1654.09</ele>
        <time>2014-02-03T10:45:21Z</time>
      </trkpt>
      <trkpt lat="42.63778" lon="1.79663">
        <ele>1654.57</ele>
        <time>2014-02-03T10:45:34Z</time>
      </trkpt>
      <trkpt lat="42.63771" lon="1.79656">
        <ele>1655.05</ele>
        <time>2014-02-03T10:45:47Z</time>
      </trkpt>
      <trkpt lat="42.63763" lon="1.79646">
        <ele>1657.45</ele>
        <time>2014-02-03T10:46:01Z</time>
      </trkpt>
      <trkpt lat="42.6376" lon="1.79642">
        <ele>1657.45</ele>
        <time>2014-02-03T10:46:12Z</time>
      </trkpt>
      <trkpt lat="42.63755" lon="1.79632">
        <ele>1657.93</ele>
        <time>2014-02-03T10:46:29Z</time>
      </trkpt>
      <trkpt lat="42.63755" lon="1.79629">
        <ele>1657.93</ele>
        <time>2014-02-03T10:46:45Z</time>
      </trkpt>
      <trkpt lat="42.63757" lon="1.79624">
        <ele>1661.3</ele>
        <time>2014-02-03T10:46:54Z</time>
      </trkpt>
      <trkpt lat="42.63761" lon="1.79618">
        <ele>1664.18</ele>
        <time>2014-02-03T10:47:06Z</time>
      </trkpt>
      <trkpt lat="42.63765" lon="1.79612">
        <ele>1667.54</ele>
        <time>2014-02-03T10:47:17Z</time>
      </trkpt>
      <trkpt lat="42.63763" lon="1.79603">
        <ele>1669.95</ele>
        <time>2014-02-03T10:47:28Z</time>
      </trkpt>
      <trkpt lat="42.6376" lon="1.79595">
        <ele>1670.91</ele>
        <time>2014-02-03T10:47:40Z</time>
      </trkpt>
      <trkpt lat="42.63757" lon="1.79586">
        <ele>1672.83</ele>
        <time>2014-02-03T10:47:53Z</time>
      </trkpt>
      <trkpt lat="42.63753" lon="1.79579">
        <ele>1673.31</ele>
        <time>2014-02-03T10:48:04Z</time>
      </trkpt>
      <trkpt lat="42.63748" lon="1.79571">
        <ele>1676.2</ele>
        <time>2014-02-03T10:48:17Z</time>
      </trkpt>
      <trkpt lat="42.63744" lon="1.79563">
        <ele>1677.16</ele>
        <time>2014-02-03T10:48:28Z</time>
      </trkpt>
      <trkpt lat="42.6374" lon="1.79555">
        <ele>1678.12</ele>
        <time>2014-02-03T10:48:40Z</time>
      </trkpt>
      <trkpt lat="42.63736" lon="1.79548">
        <ele>1679.56</ele>
        <time>2014-02-03T10:48:52Z</time>
      </trkpt>
      <trkpt lat="42.63733" lon="1.79547">
        <ele>1678.6</ele>
        <time>2014-02-03T10:48:59Z</time>
      </trkpt>
      <trkpt lat="42.63732" lon="1.79545">
        <ele>1680.04</ele>
        <time>2014-02-03T10:49:08Z</time>
      </trkpt>
      <trkpt lat="42.63732" lon="1.79541">
        <ele>1682.44</ele>
        <time>2014-02-03T10:49:15Z</time>
      </trkpt>
      <trkpt lat="42.63732" lon="1.7954">
        <ele>1682.93</ele>
        <time>2014-02-03T10:49:21Z</time>
      </trkpt>
      <trkpt lat="42.6373" lon="1.79539">
        <ele>1683.41</ele>
        <time>2014-02-03T10:49:31Z</time>
      </trkpt>
      <trkpt lat="42.63725" lon="1.79534">
        <ele>1683.89</ele>
        <time>2014-02-03T10:49:43Z</time>
      </trkpt>
      <trkpt lat="42.63722" lon="1.79532">
        <ele>1684.37</ele>
        <time>2014-02-03T10:49:54Z</time>
      </trkpt>
      <trkpt lat="42.6372" lon="1.79526">
        <ele>1684.85</ele>
        <time>2014-02-03T10:50:06Z</time>
      </trkpt>
      <trkpt lat="42.63718" lon="1.79524">
        <ele>1683.89</ele>
        <time>2014-02-03T10:50:15Z</time>
      </trkpt>
      <trkpt lat="42.63715" lon="1.79518">
        <ele>1686.77</ele>
        <time>2014-02-03T10:50:26Z</time>
      </trkpt>
      <trkpt lat="42.63711" lon="1.79514">
        <ele>1688.69</ele>
        <time>2014-02-03T10:50:35Z</time>
      </trkpt>
      <trkpt lat="42.63709" lon="1.79512">
        <ele>1688.21</ele>
        <time>2014-02-03T10:50:45Z</time>
      </trkpt>
      <trkpt lat="42.63708" lon="1.79509">
        <ele>1687.73</ele>
        <time>2014-02-03T10:50:55Z</time>
      </trkpt>
      <trkpt lat="42.63704" lon="1.79506">
        <ele>1689.17</ele>
        <time>2014-02-03T10:51:05Z</time>
      </trkpt>
      <trkpt lat="42.63698" lon="1.79497">
        <ele>1691.58</ele>
        <time>2014-02-03T10:51:18Z</time>
      </trkpt>
      <trkpt lat="42.63694" lon="1.79492">
        <ele>1693.02</ele>
        <time>2014-02-03T10:51:29Z</time>
      </trkpt>
      <trkpt lat="42.63688" lon="1.79485">
        <ele>1694.46</ele>
        <time>2014-02-03T10:51:40Z</time>
      </trkpt>
      <trkpt lat="42.63684" lon="1.79478">
        <ele>1695.9</ele>
        <time>2014-02-03T10:51:51Z</time>
      </trkpt>
      <trkpt lat="42.63675" lon="1.79469">
        <ele>1694.46</ele>
        <time>2014-02-03T10:52:04Z</time>
      </trkpt>
      <trkpt lat="42.63669" lon="1.79463">
        <ele>1695.9</ele>
        <time>2014-02-03T10:52:17Z</time>
      </trkpt>
      <trkpt lat="42.63661" lon="1.79457">
        <ele>1697.83</ele>
        <time>2014-02-03T10:52:31Z</time>
      </trkpt>
      <trkpt lat="42.63657" lon="1.7945">
        <ele>1699.27</ele>
        <time>2014-02-03T10:52:41Z</time>
      </trkpt>
      <trkpt lat="42.63653" lon="1.79444">
        <ele>1700.23</ele>
        <time>2014-02-03T10:52:53Z</time>
      </trkpt>
      <trkpt lat="42.63647" lon="1.79441">
        <ele>1701.19</ele>
        <time>2014-02-03T10:53:05Z</time>
      </trkpt>
      <trkpt lat="42.63645" lon="1.79441">
        <ele>1701.19</ele>
        <time>2014-02-03T10:53:18Z</time>
      </trkpt>
      <trkpt lat="42.63646" lon="1.79441">
        <ele>1705.52</ele>
        <time>2014-02-03T10:53:44Z</time>
      </trkpt>
      <trkpt lat="42.63643" lon="1.79441">
        <ele>1705.04</ele>
        <time>2014-02-03T10:54:12Z</time>
      </trkpt>
      <trkpt lat="42.63644" lon="1.7944">
        <ele>1702.63</ele>
        <time>2014-02-03T10:54:39Z</time>
      </trkpt>
      <trkpt lat="42.63644" lon="1.7944">
        <ele>1706.48</ele>
        <time>2014-02-03T10:55:11Z</time>
      </trkpt>
      <trkpt lat="42.63644" lon="1.7944">
        <ele>1706</ele>
        <time>2014-02-03T10:55:17Z</time>
      </trkpt>
      <trkpt lat="42.63628" lon="1.79433">
        <ele>1704.55</ele>
        <time>2014-02-03T10:55:32Z</time>
      </trkpt>
      <trkpt lat="42.6362" lon="1.79431">
        <ele>1704.55</ele>
        <time>2014-02-03T10:55:39Z</time>
      </trkpt>
      <trkpt lat="42.63608" lon="1.7943">
        <ele>1704.55</ele>
        <time>2014-02-03T10:55:52Z</time>
      </trkpt>
      <trkpt lat="42.63608" lon="1.7943">
        <ele>1705.04</ele>
        <time>2014-02-03T10:56:00Z</time>
      </trkpt>
      <trkpt lat="42.63606" lon="1.79429">
        <ele>1705.52</ele>
        <time>2014-02-03T10:56:02Z</time>
      </trkpt>
      <trkpt lat="42.6359" lon="1.79426">
        <ele>1706.96</ele>
        <time>2014-02-03T10:56:16Z</time>
      </trkpt>
      <trkpt lat="42.63583" lon="1.79425">
        <ele>1707.44</ele>
        <time>2014-02-03T10:56:26Z</time>
      </trkpt>
      <trkpt lat="42.63574" lon="1.79426">
        <ele>1707.44</ele>
        <time>2014-02-03T10:56:36Z</time>
      </trkpt>
      <trkpt lat="42.63569" lon="1.79423">
        <ele>1707.92</ele>
        <time>2014-02-03T10:56:42Z</time>
      </trkpt>
      <trkpt lat="42.63562" lon="1.79419">
        <ele>1709.36</ele>
        <time>2014-02-03T10:56:51Z</time>
      </trkpt>
      <trkpt lat="42.63557" lon="1.79415">
        <ele>1709.84</ele>
        <time>2014-02-03T10:57:00Z</time>
      </trkpt>
      <trkpt lat="42.63549" lon="1.79408">
        <ele>1711.28</ele>
        <time>2014-02-03T10:57:13Z</time>
      </trkpt>
      <trkpt lat="42.6354" lon="1.79398">
        <ele>1711.76</ele>
        <time>2014-02-03T10:57:25Z</time>
      </trkpt>
      <trkpt lat="42.63537" lon="1.79396">
        <ele>1711.76</ele>
        <time>2014-02-03T10:57:29Z</time>
      </trkpt>
      <trkpt lat="42.63532" lon="1.79391">
        <ele>1711.76</ele>
        <time>2014-02-03T10:57:37Z</time>
      </trkpt>
      <trkpt lat="42.63529" lon="1.79387">
        <ele>1713.21</ele>
        <time>2014-02-03T10:57:41Z</time>
      </trkpt>
      <trkpt lat="42.63521" lon="1.79376">
        <ele>1714.17</ele>
        <time>2014-02-03T10:57:53Z</time>
      </trkpt>
      <trkpt lat="42.63512" lon="1.79365">
        <ele>1714.17</ele>
        <time>2014-02-03T10:58:06Z</time>
      </trkpt>
      <trkpt lat="42.63508" lon="1.79359">
        <ele>1714.65</ele>
        <time>2014-02-03T10:58:16Z</time>
      </trkpt>
      <trkpt lat="42.63501" lon="1.79349">
        <ele>1717.05</ele>
        <time>2014-02-03T10:58:29Z</time>
      </trkpt>
      <trkpt lat="42.63494" lon="1.79338">
        <ele>1717.53</ele>
        <time>2014-02-03T10:58:42Z</time>
      </trkpt>
      <trkpt lat="42.63491" lon="1.79334">
        <ele>1717.53</ele>
        <time>2014-02-03T10:58:47Z</time>
      </trkpt>
      <trkpt lat="42.63483" lon="1.79328">
        <ele>1718.97</ele>
        <time>2014-02-03T10:58:59Z</time>
      </trkpt>
      <trkpt lat="42.63482" lon="1.79328">
        <ele>1719.46</ele>
        <time>2014-02-03T10:59:00Z</time>
      </trkpt>
      <trkpt lat="42.63475" lon="1.79323">
        <ele>1719.94</ele>
        <time>2014-02-03T10:59:12Z</time>
      </trkpt>
      <trkpt lat="42.63478" lon="1.79323">
        <ele>1722.82</ele>
        <time>2014-02-03T10:59:26Z</time>
      </trkpt>
      <trkpt lat="42.63473" lon="1.7932">
        <ele>1721.38</ele>
        <time>2014-02-03T10:59:46Z</time>
      </trkpt>
      <trkpt lat="42.6347" lon="1.79319">
        <ele>1721.38</ele>
        <time>2014-02-03T10:59:53Z</time>
      </trkpt>
      <trkpt lat="42.63468" lon="1.79317">
        <ele>1721.86</ele>
        <time>2014-02-03T10:59:56Z</time>
      </trkpt>
      <trkpt lat="42.63464" lon="1.79313">
        <ele>1722.34</ele>
        <time>2014-02-03T11:00:08Z</time>
      </trkpt>
      <trkpt lat="42.63459" lon="1.79309">
        <ele>1722.34</ele>
        <time>2014-02-03T11:00:18Z</time>
      </trkpt>
      <trkpt lat="42.63457" lon="1.79308">
        <ele>1721.38</ele>
        <time>2014-02-03T11:00:35Z</time>
      </trkpt>
      <trkpt lat="42.63457" lon="1.79307">
        <ele>1721.38</ele>
        <time>2014-02-03T11:00:58Z</time>
      </trkpt>
      <trkpt lat="42.63458" lon="1.79307">
        <ele>1720.9</ele>
        <time>2014-02-03T11:01:12Z</time>
      </trkpt>
      <trkpt lat="42.63456" lon="1.79304">
        <ele>1721.86</ele>
        <time>2014-02-03T11:01:25Z</time>
      </trkpt>
      <trkpt lat="42.63456" lon="1.79303">
        <ele>1720.9</ele>
        <time>2014-02-03T11:01:45Z</time>
      </trkpt>
      <trkpt lat="42.63456" lon="1.79303">
        <ele>1721.86</ele>
        <time>2014-02-03T11:02:01Z</time>
      </trkpt>
      <trkpt lat="42.63458" lon="1.79301">
        <ele>1721.38</ele>
        <time>2014-02-03T11:02:23Z</time>
      </trkpt>
      <trkpt lat="42.63459" lon="1.79304">
        <ele>1720.9</ele>
        <time>2014-02-03T11:02:41Z</time>
      </trkpt>
      <trkpt lat="42.63459" lon="1.79303">
        <ele>1720.9</ele>
        <time>2014-02-03T11:02:44Z</time>
      </trkpt>
      <trkpt lat="42.63455" lon="1.79304">
        <ele>1720.9</ele>
        <time>2014-02-03T11:02:47Z</time>
      </trkpt>
      <trkpt lat="42.63441" lon="1.79313">
        <ele>1719.94</ele>
        <time>2014-02-03T11:02:59Z</time>
      </trkpt>
      <trkpt lat="42.63439" lon="1.79316">
        <ele>1719.46</ele>
        <time>2014-02-03T11:03:02Z</time>
      </trkpt>
      <trkpt lat="42.63438" lon="1.7932">
        <ele>1718.97</ele>
        <time>2014-02-03T11:03:04Z</time>
      </trkpt>
      <trkpt lat="42.63437" lon="1.79322">
        <ele>1718.49</ele>
        <time>2014-02-03T11:03:05Z</time>
      </trkpt>
      <trkpt lat="42.63437" lon="1.79324">
        <ele>1718.49</ele>
        <time>2014-02-03T11:03:06Z</time>
      </trkpt>
      <trkpt lat="42.63436" lon="1.79326">
        <ele>1718.49</ele>
        <time>2014-02-03T11:03:07Z</time>
      </trkpt>
      <trkpt lat="42.63436" lon="1.79326">
        <ele>1718.49</ele>
        <time>2014-02-03T11:03:08Z</time>
      </trkpt>
      <trkpt lat="42.63425" lon="1.79326">
        <ele>1717.53</ele>
        <time>2014-02-03T11:03:19Z</time>
      </trkpt>
      <trkpt lat="42.63419" lon="1.79328">
        <ele>1716.57</ele>
        <time>2014-02-03T11:03:24Z</time>
      </trkpt>
      <trkpt lat="42.63417" lon="1.79328">
        <ele>1716.57</ele>
        <time>2014-02-03T11:03:26Z</time>
      </trkpt>
      <trkpt lat="42.63411" lon="1.79331">
        <ele>1716.57</ele>
        <time>2014-02-03T11:03:36Z</time>
      </trkpt>
      <trkpt lat="42.63405" lon="1.79333">
        <ele>1716.57</ele>
        <time>2014-02-03T11:03:46Z</time>
      </trkpt>
      <trkpt lat="42.63396" lon="1.79339">
        <ele>1716.09</ele>
        <time>2014-02-03T11:03:59Z</time>
      </trkpt>
      <trkpt lat="42.63386" lon="1.79343">
        <ele>1716.57</ele>
        <time>2014-02-03T11:04:10Z</time>
      </trkpt>
      <trkpt lat="42.63375" lon="1.79348">
        <ele>1718.49</ele>
        <time>2014-02-03T11:04:23Z</time>
      </trkpt>
      <trkpt lat="42.6337" lon="1.79346">
        <ele>1719.46</ele>
        <time>2014-02-03T11:04:31Z</time>
      </trkpt>
      <trkpt lat="42.63364" lon="1.79347">
        <ele>1720.42</ele>
        <time>2014-02-03T11:04:39Z</time>
      </trkpt>
      <trkpt lat="42.63354" lon="1.7935">
        <ele>1720.9</ele>
        <time>2014-02-03T11:04:51Z</time>
      </trkpt>
      <trkpt lat="42.63344" lon="1.79352">
        <ele>1722.34</ele>
        <time>2014-02-03T11:05:03Z</time>
      </trkpt>
      <trkpt lat="42.63342" lon="1.79354">
        <ele>1722.82</ele>
        <time>2014-02-03T11:05:08Z</time>
      </trkpt>
      <trkpt lat="42.63341" lon="1.79354">
        <ele>1722.82</ele>
        <time>2014-02-03T11:05:11Z</time>
      </trkpt>
      <trkpt lat="42.63336" lon="1.79356">
        <ele>1724.26</ele>
        <time>2014-02-03T11:05:22Z</time>
      </trkpt>
      <trkpt lat="42.63335" lon="1.79358">
        <ele>1723.78</ele>
        <time>2014-02-03T11:05:36Z</time>
      </trkpt>
      <trkpt lat="42.63335" lon="1.79358">
        <ele>1725.22</ele>
        <time>2014-02-03T11:05:45Z</time>
      </trkpt>
      <trkpt lat="42.63335" lon="1.79358">
        <ele>1725.22</ele>
        <time>2014-02-03T11:05:58Z</time>
      </trkpt>
      <trkpt lat="42.63334" lon="1.79359">
        <ele>1723.78</ele>
        <time>2014-02-03T11:06:10Z</time>
      </trkpt>
      <trkpt lat="42.63333" lon="1.79361">
        <ele>1724.26</ele>
        <time>2014-02-03T11:06:12Z</time>
      </trkpt>
      <trkpt lat="42.63324" lon="1.7937">
        <ele>1727.15</ele>
        <time>2014-02-03T11:06:25Z</time>
      </trkpt>
      <trkpt lat="42.63319" lon="1.79378">
        <ele>1728.59</ele>
        <time>2014-02-03T11:06:34Z</time>
      </trkpt>
      <trkpt lat="42.63316" lon="1.79385">
        <ele>1730.51</ele>
        <time>2014-02-03T11:06:46Z</time>
      </trkpt>
      <trkpt lat="42.63314" lon="1.79387">
        <ele>1730.99</ele>
        <time>2014-02-03T11:06:48Z</time>
      </trkpt>
      <trkpt lat="42.63312" lon="1.79398">
        <ele>1733.39</ele>
        <time>2014-02-03T11:07:00Z</time>
      </trkpt>
      <trkpt lat="42.6331" lon="1.79401">
        <ele>1734.84</ele>
        <time>2014-02-03T11:07:03Z</time>
      </trkpt>
      <trkpt lat="42.63313" lon="1.79411">
        <ele>1737.72</ele>
        <time>2014-02-03T11:07:14Z</time>
      </trkpt>
      <trkpt lat="42.63316" lon="1.79418">
        <ele>1740.12</ele>
        <time>2014-02-03T11:07:26Z</time>
      </trkpt>
      <trkpt lat="42.6332" lon="1.79425">
        <ele>1742.53</ele>
        <time>2014-02-03T11:07:37Z</time>
      </trkpt>
      <trkpt lat="42.63318" lon="1.79431">
        <ele>1744.45</ele>
        <time>2014-02-03T11:07:48Z</time>
      </trkpt>
      <trkpt lat="42.63315" lon="1.79437">
        <ele>1745.41</ele>
        <time>2014-02-03T11:07:57Z</time>
      </trkpt>
      <trkpt lat="42.63308" lon="1.79442">
        <ele>1746.85</ele>
        <time>2014-02-03T11:08:10Z</time>
      </trkpt>
      <trkpt lat="42.63305" lon="1.79443">
        <ele>1749.26</ele>
        <time>2014-02-03T11:08:19Z</time>
      </trkpt>
      <trkpt lat="42.63303" lon="1.79445">
        <ele>1752.62</ele>
        <time>2014-02-03T11:08:28Z</time>
      </trkpt>
      <trkpt lat="42.63304" lon="1.79449">
        <ele>1753.58</ele>
        <time>2014-02-03T11:08:40Z</time>
      </trkpt>
      <trkpt lat="42.63306" lon="1.79456">
        <ele>1754.06</ele>
        <time>2014-02-03T11:08:52Z</time>
      </trkpt>
      <trkpt lat="42.63308" lon="1.79463">
        <ele>1754.54</ele>
        <time>2014-02-03T11:09:03Z</time>
      </trkpt>
      <trkpt lat="42.63314" lon="1.7947">
        <ele>1757.43</ele>
        <time>2014-02-03T11:09:17Z</time>
      </trkpt>
      <trkpt lat="42.63316" lon="1.79471">
        <ele>1757.43</ele>
        <time>2014-02-03T11:09:26Z</time>
      </trkpt>
      <trkpt lat="42.63312" lon="1.79473">
        <ele>1758.87</ele>
        <time>2014-02-03T11:09:35Z</time>
      </trkpt>
      <trkpt lat="42.63308" lon="1.79475">
        <ele>1761.75</ele>
        <time>2014-02-03T11:09:45Z</time>
      </trkpt>
      <trkpt lat="42.63302" lon="1.79476">
        <ele>1764.64</ele>
        <time>2014-02-03T11:10:00Z</time>
      </trkpt>
      <trkpt lat="42.63297" lon="1.79478">
        <ele>1766.08</ele>
        <time>2014-02-03T11:10:10Z</time>
      </trkpt>
      <trkpt lat="42.63292" lon="1.7948">
        <ele>1767.04</ele>
        <time>2014-02-03T11:10:22Z</time>
      </trkpt>
      <trkpt lat="42.63293" lon="1.79479">
        <ele>1768</ele>
        <time>2014-02-03T11:10:23Z</time>
      </trkpt>
      <trkpt lat="42.63295" lon="1.79488">
        <ele>1768.48</ele>
        <time>2014-02-03T11:10:34Z</time>
      </trkpt>
      <trkpt lat="42.63296" lon="1.79492">
        <ele>1768.96</ele>
        <time>2014-02-03T11:10:44Z</time>
      </trkpt>
      <trkpt lat="42.63298" lon="1.795">
        <ele>1769.44</ele>
        <time>2014-02-03T11:10:56Z</time>
      </trkpt>
      <trkpt lat="42.63299" lon="1.79508">
        <ele>1769.92</ele>
        <time>2014-02-03T11:11:10Z</time>
      </trkpt>
      <trkpt lat="42.63302" lon="1.79519">
        <ele>1772.33</ele>
        <time>2014-02-03T11:11:24Z</time>
      </trkpt>
      <trkpt lat="42.63301" lon="1.79517">
        <ele>1775.21</ele>
        <time>2014-02-03T11:11:48Z</time>
      </trkpt>
      <trkpt lat="42.63298" lon="1.79524">
        <ele>1775.21</ele>
        <time>2014-02-03T11:11:59Z</time>
      </trkpt>
      <trkpt lat="42.63294" lon="1.79524">
        <ele>1777.61</ele>
        <time>2014-02-03T11:12:09Z</time>
      </trkpt>
      <trkpt lat="42.63285" lon="1.79522">
        <ele>1780.98</ele>
        <time>2014-02-03T11:12:24Z</time>
      </trkpt>
      <trkpt lat="42.63279" lon="1.7952">
        <ele>1780.98</ele>
        <time>2014-02-03T11:12:36Z</time>
      </trkpt>
      <trkpt lat="42.63277" lon="1.79519">
        <ele>1782.9</ele>
        <time>2014-02-03T11:12:43Z</time>
      </trkpt>
      <trkpt lat="42.63276" lon="1.79524">
        <ele>1783.86</ele>
        <time>2014-02-03T11:12:55Z</time>
      </trkpt>
      <trkpt lat="42.63272" lon="1.79532">
        <ele>1785.79</ele>
        <time>2014-02-03T11:13:08Z</time>
      </trkpt>
      <trkpt lat="42.6327" lon="1.79541">
        <ele>1785.31</ele>
        <time>2014-02-03T11:13:20Z</time>
      </trkpt>
      <trkpt lat="42.6327" lon="1.79547">
        <ele>1787.23</ele>
        <time>2014-02-03T11:13:32Z</time>
      </trkpt>
      <trkpt lat="42.63268" lon="1.79557">
        <ele>1787.71</ele>
        <time>2014-02-03T11:13:43Z</time>
      </trkpt>
      <trkpt lat="42.63268" lon="1.79565">
        <ele>1789.63</ele>
        <time>2014-02-03T11:13:56Z</time>
      </trkpt>
      <trkpt lat="42.63269" lon="1.79576">
        <ele>1793</ele>
        <time>2014-02-03T11:14:09Z</time>
      </trkpt>
      <trkpt lat="42.6327" lon="1.79582">
        <ele>1793.48</ele>
        <time>2014-02-03T11:14:21Z</time>
      </trkpt>
      <trkpt lat="42.63271" lon="1.7959">
        <ele>1794.92</ele>
        <time>2014-02-03T11:14:35Z</time>
      </trkpt>
      <trkpt lat="42.63273" lon="1.79598">
        <ele>1797.8</ele>
        <time>2014-02-03T11:14:46Z</time>
      </trkpt>
      <trkpt lat="42.63276" lon="1.79605">
        <ele>1798.76</ele>
        <time>2014-02-03T11:14:57Z</time>
      </trkpt>
      <trkpt lat="42.63277" lon="1.79613">
        <ele>1799.73</ele>
        <time>2014-02-03T11:15:09Z</time>
      </trkpt>
      <trkpt lat="42.63282" lon="1.79625">
        <ele>1802.61</ele>
        <time>2014-02-03T11:15:25Z</time>
      </trkpt>
      <trkpt lat="42.63283" lon="1.7963">
        <ele>1803.09</ele>
        <time>2014-02-03T11:15:34Z</time>
      </trkpt>
      <trkpt lat="42.63285" lon="1.79635">
        <ele>1806.45</ele>
        <time>2014-02-03T11:15:46Z</time>
      </trkpt>
      <trkpt lat="42.63286" lon="1.79632">
        <ele>1806.45</ele>
        <time>2014-02-03T11:16:05Z</time>
      </trkpt>
      <trkpt lat="42.63286" lon="1.79631">
        <ele>1806.45</ele>
        <time>2014-02-03T11:16:21Z</time>
      </trkpt>
      <trkpt lat="42.63291" lon="1.79634">
        <ele>1805.97</ele>
        <time>2014-02-03T11:16:39Z</time>
      </trkpt>
      <trkpt lat="42.63293" lon="1.79634">
        <ele>1807.42</ele>
        <time>2014-02-03T11:17:00Z</time>
      </trkpt>
      <trkpt lat="42.63292" lon="1.79633">
        <ele>1806.45</ele>
        <time>2014-02-03T11:17:25Z</time>
      </trkpt>
      <trkpt lat="42.63295" lon="1.79636">
        <ele>1807.9</ele>
        <time>2014-02-03T11:17:42Z</time>
      </trkpt>
      <trkpt lat="42.63299" lon="1.79637">
        <ele>1810.3</ele>
        <time>2014-02-03T11:17:53Z</time>
      </trkpt>
      <trkpt lat="42.63303" lon="1.79641">
        <ele>1810.78</ele>
        <time>2014-02-03T11:18:05Z</time>
      </trkpt>
      <trkpt lat="42.63304" lon="1.79645">
        <ele>1811.26</ele>
        <time>2014-02-03T11:18:23Z</time>
      </trkpt>
      <trkpt lat="42.6331" lon="1.79652">
        <ele>1813.18</ele>
        <time>2014-02-03T11:18:35Z</time>
      </trkpt>
      <trkpt lat="42.63311" lon="1.79653">
        <ele>1813.66</ele>
        <time>2014-02-03T11:18:37Z</time>
      </trkpt>
      <trkpt lat="42.63317" lon="1.79659">
        <ele>1815.11</ele>
        <time>2014-02-03T11:18:50Z</time>
      </trkpt>
      <trkpt lat="42.63316" lon="1.7966">
        <ele>1816.07</ele>
        <time>2014-02-03T11:18:59Z</time>
      </trkpt>
      <trkpt lat="42.63314" lon="1.79665">
        <ele>1820.87</ele>
        <time>2014-02-03T11:19:10Z</time>
      </trkpt>
      <trkpt lat="42.63309" lon="1.79671">
        <ele>1823.76</ele>
        <time>2014-02-03T11:19:23Z</time>
      </trkpt>
      <trkpt lat="42.63303" lon="1.79675">
        <ele>1825.68</ele>
        <time>2014-02-03T11:19:32Z</time>
      </trkpt>
      <trkpt lat="42.633" lon="1.79674">
        <ele>1826.16</ele>
        <time>2014-02-03T11:19:43Z</time>
      </trkpt>
      <trkpt lat="42.63295" lon="1.79675">
        <ele>1826.64</ele>
        <time>2014-02-03T11:19:51Z</time>
      </trkpt>
      <trkpt lat="42.63288" lon="1.79676">
        <ele>1828.08</ele>
        <time>2014-02-03T11:20:01Z</time>
      </trkpt>
      <trkpt lat="42.63284" lon="1.7968">
        <ele>1830.97</ele>
        <time>2014-02-03T11:20:12Z</time>
      </trkpt>
      <trkpt lat="42.63277" lon="1.79687">
        <ele>1832.41</ele>
        <time>2014-02-03T11:20:25Z</time>
      </trkpt>
      <trkpt lat="42.63273" lon="1.7969">
        <ele>1834.33</ele>
        <time>2014-02-03T11:20:36Z</time>
      </trkpt>
      <trkpt lat="42.63267" lon="1.79693">
        <ele>1834.33</ele>
        <time>2014-02-03T11:20:48Z</time>
      </trkpt>
      <trkpt lat="42.63261" lon="1.79701">
        <ele>1835.77</ele>
        <time>2014-02-03T11:21:00Z</time>
      </trkpt>
      <trkpt lat="42.63256" lon="1.79706">
        <ele>1835.77</ele>
        <time>2014-02-03T11:21:11Z</time>
      </trkpt>
      <trkpt lat="42.63252" lon="1.79707">
        <ele>1837.22</ele>
        <time>2014-02-03T11:21:22Z</time>
      </trkpt>
      <trkpt lat="42.63244" lon="1.79712">
        <ele>1838.18</ele>
        <time>2014-02-03T11:21:38Z</time>
      </trkpt>
      <trkpt lat="42.63237" lon="1.79716">
        <ele>1841.06</ele>
        <time>2014-02-03T11:21:49Z</time>
      </trkpt>
      <trkpt lat="42.63232" lon="1.79723">
        <ele>1843.47</ele>
        <time>2014-02-03T11:22:03Z</time>
      </trkpt>
      <trkpt lat="42.63227" lon="1.7973">
        <ele>1844.91</ele>
        <time>2014-02-03T11:22:17Z</time>
      </trkpt>
      <trkpt lat="42.63222" lon="1.79741">
        <ele>1846.83</ele>
        <time>2014-02-03T11:22:32Z</time>
      </trkpt>
      <trkpt lat="42.63214" lon="1.79747">
        <ele>1846.83</ele>
        <time>2014-02-03T11:22:46Z</time>
      </trkpt>
      <trkpt lat="42.63208" lon="1.79754">
        <ele>1849.23</ele>
        <time>2014-02-03T11:23:03Z</time>
      </trkpt>
      <trkpt lat="42.63203" lon="1.79762">
        <ele>1852.6</ele>
        <time>2014-02-03T11:23:18Z</time>
      </trkpt>
      <trkpt lat="42.63199" lon="1.79768">
        <ele>1854.52</ele>
        <time>2014-02-03T11:23:28Z</time>
      </trkpt>
      <trkpt lat="42.63197" lon="1.79775">
        <ele>1855.48</ele>
        <time>2014-02-03T11:23:42Z</time>
      </trkpt>
      <trkpt lat="42.63195" lon="1.79779">
        <ele>1856.92</ele>
        <time>2014-02-03T11:23:55Z</time>
      </trkpt>
      <trkpt lat="42.63192" lon="1.79786">
        <ele>1857.89</ele>
        <time>2014-02-03T11:24:06Z</time>
      </trkpt>
      <trkpt lat="42.63191" lon="1.79791">
        <ele>1859.33</ele>
        <time>2014-02-03T11:24:18Z</time>
      </trkpt>
      <trkpt lat="42.63191" lon="1.79792">
        <ele>1859.81</ele>
        <time>2014-02-03T11:24:20Z</time>
      </trkpt>
      <trkpt lat="42.6319" lon="1.798">
        <ele>1861.73</ele>
        <time>2014-02-03T11:24:34Z</time>
      </trkpt>
      <trkpt lat="42.63189" lon="1.79802">
        <ele>1862.69</ele>
        <time>2014-02-03T11:24:45Z</time>
      </trkpt>
      <trkpt lat="42.63187" lon="1.79802">
        <ele>1863.17</ele>
        <time>2014-02-03T11:24:55Z</time>
      </trkpt>
      <trkpt lat="42.63189" lon="1.79801">
        <ele>1862.69</ele>
        <time>2014-02-03T11:25:17Z</time>
      </trkpt>
      <trkpt lat="42.63188" lon="1.79801">
        <ele>1865.09</ele>
        <time>2014-02-03T11:25:35Z</time>
      </trkpt>
      <trkpt lat="42.63182" lon="1.79797">
        <ele>1865.58</ele>
        <time>2014-02-03T11:25:46Z</time>
      </trkpt>
      <trkpt lat="42.63178" lon="1.79796">
        <ele>1866.06</ele>
        <time>2014-02-03T11:25:56Z</time>
      </trkpt>
      <trkpt lat="42.63175" lon="1.79794">
        <ele>1867.5</ele>
        <time>2014-02-03T11:26:07Z</time>
      </trkpt>
      <trkpt lat="42.63172" lon="1.79787">
        <ele>1867.02</ele>
        <time>2014-02-03T11:26:21Z</time>
      </trkpt>
      <trkpt lat="42.63169" lon="1.7978">
        <ele>1867.98</ele>
        <time>2014-02-03T11:26:34Z</time>
      </trkpt>
      <trkpt lat="42.63168" lon="1.79777">
        <ele>1867.5</ele>
        <time>2014-02-03T11:26:41Z</time>
      </trkpt>
      <trkpt lat="42.63167" lon="1.79769">
        <ele>1868.94</ele>
        <time>2014-02-03T11:26:54Z</time>
      </trkpt>
      <trkpt lat="42.63165" lon="1.79761">
        <ele>1870.38</ele>
        <time>2014-02-03T11:27:06Z</time>
      </trkpt>
      <trkpt lat="42.63166" lon="1.79752">
        <ele>1871.82</ele>
        <time>2014-02-03T11:27:20Z</time>
      </trkpt>
      <trkpt lat="42.63164" lon="1.79745">
        <ele>1872.79</ele>
        <time>2014-02-03T11:27:32Z</time>
      </trkpt>
      <trkpt lat="42.63162" lon="1.79737">
        <ele>1874.71</ele>
        <time>2014-02-03T11:27:46Z</time>
      </trkpt>
      <trkpt lat="42.6316" lon="1.79731">
        <ele>1876.15</ele>
        <time>2014-02-03T11:27:54Z</time>
      </trkpt>
      <trkpt lat="42.63156" lon="1.79727">
        <ele>1878.07</ele>
        <time>2014-02-03T11:28:04Z</time>
      </trkpt>
      <trkpt lat="42.63157" lon="1.79728">
        <ele>1878.07</ele>
        <time>2014-02-03T11:28:16Z</time>
      </trkpt>
      <trkpt lat="42.63158" lon="1.79728">
        <ele>1878.07</ele>
        <time>2014-02-03T11:28:29Z</time>
      </trkpt>
      <trkpt lat="42.63158" lon="1.79731">
        <ele>1879.51</ele>
        <time>2014-02-03T11:28:41Z</time>
      </trkpt>
      <trkpt lat="42.63158" lon="1.79735">
        <ele>1880.96</ele>
        <time>2014-02-03T11:28:54Z</time>
      </trkpt>
      <trkpt lat="42.63155" lon="1.79732">
        <ele>1881.44</ele>
        <time>2014-02-03T11:29:04Z</time>
      </trkpt>
      <trkpt lat="42.63155" lon="1.79734">
        <ele>1880.96</ele>
        <time>2014-02-03T11:29:14Z</time>
      </trkpt>
      <trkpt lat="42.63154" lon="1.79735">
        <ele>1881.44</ele>
        <time>2014-02-03T11:29:29Z</time>
      </trkpt>
      <trkpt lat="42.63154" lon="1.79736">
        <ele>1881.44</ele>
        <time>2014-02-03T11:29:42Z</time>
      </trkpt>
      <trkpt lat="42.63154" lon="1.79733">
        <ele>1880.96</ele>
        <time>2014-02-03T11:30:00Z</time>
      </trkpt>
      <trkpt lat="42.63153" lon="1.79731">
        <ele>1880</ele>
        <time>2014-02-03T11:30:23Z</time>
      </trkpt>
      <trkpt lat="42.63154" lon="1.79731">
        <ele>1883.36</ele>
        <time>2014-02-03T11:30:45Z</time>
      </trkpt>
      <trkpt lat="42.63155" lon="1.7973">
        <ele>1883.36</ele>
        <time>2014-02-03T11:30:58Z</time>
      </trkpt>
      <trkpt lat="42.63153" lon="1.79734">
        <ele>1880.96</ele>
        <time>2014-02-03T11:31:17Z</time>
      </trkpt>
      <trkpt lat="42.63154" lon="1.79733">
        <ele>1881.92</ele>
        <time>2014-02-03T11:31:32Z</time>
      </trkpt>
      <trkpt lat="42.63154" lon="1.79736">
        <ele>1881.92</ele>
        <time>2014-02-03T11:31:44Z</time>
      </trkpt>
      <trkpt lat="42.63154" lon="1.79734">
        <ele>1883.36</ele>
        <time>2014-02-03T11:32:00Z</time>
      </trkpt>
      <trkpt lat="42.63153" lon="1.79737">
        <ele>1883.36</ele>
        <time>2014-02-03T11:32:16Z</time>
      </trkpt>
      <trkpt lat="42.63153" lon="1.79737">
        <ele>1881.44</ele>
        <time>2014-02-03T11:32:32Z</time>
      </trkpt>
      <trkpt lat="42.63152" lon="1.79734">
        <ele>1884.8</ele>
        <time>2014-02-03T11:32:51Z</time>
      </trkpt>
      <trkpt lat="42.63151" lon="1.79738">
        <ele>1885.28</ele>
        <time>2014-02-03T11:33:00Z</time>
      </trkpt>
      <trkpt lat="42.63151" lon="1.7974">
        <ele>1886.24</ele>
        <time>2014-02-03T11:33:10Z</time>
      </trkpt>
      <trkpt lat="42.6315" lon="1.79743">
        <ele>1886.24</ele>
        <time>2014-02-03T11:33:14Z</time>
      </trkpt>
      <trkpt lat="42.63147" lon="1.79749">
        <ele>1887.21</ele>
        <time>2014-02-03T11:33:23Z</time>
      </trkpt>
      <trkpt lat="42.63145" lon="1.79754">
        <ele>1888.17</ele>
        <time>2014-02-03T11:33:34Z</time>
      </trkpt>
      <trkpt lat="42.63142" lon="1.7976">
        <ele>1890.09</ele>
        <time>2014-02-03T11:33:44Z</time>
      </trkpt>
      <trkpt lat="42.6314" lon="1.79768">
        <ele>1892.01</ele>
        <time>2014-02-03T11:33:56Z</time>
      </trkpt>
      <trkpt lat="42.63137" lon="1.79773">
        <ele>1893.93</ele>
        <time>2014-02-03T11:34:08Z</time>
      </trkpt>
      <trkpt lat="42.63135" lon="1.79776">
        <ele>1894.9</ele>
        <time>2014-02-03T11:34:12Z</time>
      </trkpt>
      <trkpt lat="42.63132" lon="1.79782">
        <ele>1897.3</ele>
        <time>2014-02-03T11:34:26Z</time>
      </trkpt>
      <trkpt lat="42.63128" lon="1.79791">
        <ele>1901.63</ele>
        <time>2014-02-03T11:34:39Z</time>
      </trkpt>
      <trkpt lat="42.63128" lon="1.79792">
        <ele>1900.18</ele>
        <time>2014-02-03T11:34:50Z</time>
      </trkpt>
      <trkpt lat="42.63128" lon="1.7979">
        <ele>1900.18</ele>
        <time>2014-02-03T11:35:01Z</time>
      </trkpt>
      <trkpt lat="42.63125" lon="1.79786">
        <ele>1897.78</ele>
        <time>2014-02-03T11:35:14Z</time>
      </trkpt>
      <trkpt lat="42.63126" lon="1.7979">
        <ele>1901.14</ele>
        <time>2014-02-03T11:35:26Z</time>
      </trkpt>
      <trkpt lat="42.63121" lon="1.79799">
        <ele>1904.99</ele>
        <time>2014-02-03T11:35:42Z</time>
      </trkpt>
      <trkpt lat="42.63116" lon="1.79804">
        <ele>1906.43</ele>
        <time>2014-02-03T11:35:54Z</time>
      </trkpt>
      <trkpt lat="42.63114" lon="1.79804">
        <ele>1907.87</ele>
        <time>2014-02-03T11:36:04Z</time>
      </trkpt>
      <trkpt lat="42.63112" lon="1.79804">
        <ele>1907.87</ele>
        <time>2014-02-03T11:36:13Z</time>
      </trkpt>
      <trkpt lat="42.63108" lon="1.79795">
        <ele>1908.35</ele>
        <time>2014-02-03T11:36:28Z</time>
      </trkpt>
      <trkpt lat="42.63105" lon="1.79785">
        <ele>1907.39</ele>
        <time>2014-02-03T11:36:43Z</time>
      </trkpt>
      <trkpt lat="42.63103" lon="1.79778">
        <ele>1911.24</ele>
        <time>2014-02-03T11:36:57Z</time>
      </trkpt>
      <trkpt lat="42.63095" lon="1.79775">
        <ele>1913.64</ele>
        <time>2014-02-03T11:37:08Z</time>
      </trkpt>
      <trkpt lat="42.63094" lon="1.79775">
        <ele>1914.12</ele>
        <time>2014-02-03T11:37:09Z</time>
      </trkpt>
      <trkpt lat="42.63084" lon="1.79774">
        <ele>1915.08</ele>
        <time>2014-02-03T11:37:22Z</time>
      </trkpt>
      <trkpt lat="42.63075" lon="1.79775">
        <ele>1916.53</ele>
        <time>2014-02-03T11:37:36Z</time>
      </trkpt>
      <trkpt lat="42.63067" lon="1.79775">
        <ele>1917.01</ele>
        <time>2014-02-03T11:37:48Z</time>
      </trkpt>
      <trkpt lat="42.63058" lon="1.79772">
        <ele>1918.93</ele>
        <time>2014-02-03T11:38:01Z</time>
      </trkpt>
      <trkpt lat="42.6305" lon="1.79769">
        <ele>1919.41</ele>
        <time>2014-02-03T11:38:14Z</time>
      </trkpt>
      <trkpt lat="42.63041" lon="1.79765">
        <ele>1921.81</ele>
        <time>2014-02-03T11:38:27Z</time>
      </trkpt>
      <trkpt lat="42.63034" lon="1.79761">
        <ele>1923.25</ele>
        <time>2014-02-03T11:38:40Z</time>
      </trkpt>
      <trkpt lat="42.63033" lon="1.79759">
        <ele>1923.74</ele>
        <time>2014-02-03T11:38:51Z</time>
      </trkpt>
      <trkpt lat="42.6303" lon="1.79759">
        <ele>1924.22</ele>
        <time>2014-02-03T11:39:00Z</time>
      </trkpt>
      <trkpt lat="42.63023" lon="1.79757">
        <ele>1924.22</ele>
        <time>2014-02-03T11:39:11Z</time>
      </trkpt>
      <trkpt lat="42.63016" lon="1.79754">
        <ele>1925.66</ele>
        <time>2014-02-03T11:39:23Z</time>
      </trkpt>
      <trkpt lat="42.63009" lon="1.79756">
        <ele>1928.06</ele>
        <time>2014-02-03T11:39:35Z</time>
      </trkpt>
      <trkpt lat="42.63003" lon="1.7976">
        <ele>1930.46</ele>
        <time>2014-02-03T11:39:48Z</time>
      </trkpt>
      <trkpt lat="42.62999" lon="1.79765">
        <ele>1932.39</ele>
        <time>2014-02-03T11:39:59Z</time>
      </trkpt>
      <trkpt lat="42.62994" lon="1.79771">
        <ele>1933.83</ele>
        <time>2014-02-03T11:40:11Z</time>
      </trkpt>
      <trkpt lat="42.62989" lon="1.79771">
        <ele>1934.31</ele>
        <time>2014-02-03T11:40:22Z</time>
      </trkpt>
      <trkpt lat="42.62984" lon="1.79764">
        <ele>1934.31</ele>
        <time>2014-02-03T11:40:34Z</time>
      </trkpt>
      <trkpt lat="42.62983" lon="1.79763">
        <ele>1937.19</ele>
        <time>2014-02-03T11:40:46Z</time>
      </trkpt>
      <trkpt lat="42.62975" lon="1.79772">
        <ele>1937.19</ele>
        <time>2014-02-03T11:41:01Z</time>
      </trkpt>
      <trkpt lat="42.62971" lon="1.79775">
        <ele>1939.12</ele>
        <time>2014-02-03T11:41:11Z</time>
      </trkpt>
      <trkpt lat="42.62966" lon="1.7978">
        <ele>1940.56</ele>
        <time>2014-02-03T11:41:23Z</time>
      </trkpt>
      <trkpt lat="42.62965" lon="1.79781">
        <ele>1940.56</ele>
        <time>2014-02-03T11:41:24Z</time>
      </trkpt>
      <trkpt lat="42.62961" lon="1.79785">
        <ele>1942.96</ele>
        <time>2014-02-03T11:41:37Z</time>
      </trkpt>
      <trkpt lat="42.62955" lon="1.79793">
        <ele>1943.92</ele>
        <time>2014-02-03T11:41:50Z</time>
      </trkpt>
      <trkpt lat="42.62951" lon="1.79796">
        <ele>1946.33</ele>
        <time>2014-02-03T11:42:00Z</time>
      </trkpt>
      <trkpt lat="42.62945" lon="1.79802">
        <ele>1947.77</ele>
        <time>2014-02-03T11:42:12Z</time>
      </trkpt>
      <trkpt lat="42.62938" lon="1.79806">
        <ele>1951.13</ele>
        <time>2014-02-03T11:42:25Z</time>
      </trkpt>
      <trkpt lat="42.62929" lon="1.7981">
        <ele>1952.57</ele>
        <time>2014-02-03T11:42:38Z</time>
      </trkpt>
      <trkpt lat="42.62927" lon="1.79815">
        <ele>1954.02</ele>
        <time>2014-02-03T11:42:47Z</time>
      </trkpt>
      <trkpt lat="42.62928" lon="1.79821">
        <ele>1956.42</ele>
        <time>2014-02-03T11:42:58Z</time>
      </trkpt>
      <trkpt lat="42.6292" lon="1.79825">
        <ele>1957.38</ele>
        <time>2014-02-03T11:43:15Z</time>
      </trkpt>
      <trkpt lat="42.62915" lon="1.7983">
        <ele>1958.34</ele>
        <time>2014-02-03T11:43:30Z</time>
      </trkpt>
      <trkpt lat="42.62915" lon="1.79835">
        <ele>1958.34</ele>
        <time>2014-02-03T11:43:43Z</time>
      </trkpt>
      <trkpt lat="42.62914" lon="1.79837">
        <ele>1960.27</ele>
        <time>2014-02-03T11:44:06Z</time>
      </trkpt>
      <trkpt lat="42.62914" lon="1.79847">
        <ele>1960.27</ele>
        <time>2014-02-03T11:44:19Z</time>
      </trkpt>
      <trkpt lat="42.6291" lon="1.79851">
        <ele>1961.23</ele>
        <time>2014-02-03T11:44:29Z</time>
      </trkpt>
      <trkpt lat="42.62907" lon="1.79852">
        <ele>1963.15</ele>
        <time>2014-02-03T11:44:37Z</time>
      </trkpt>
      <trkpt lat="42.62907" lon="1.79858">
        <ele>1964.11</ele>
        <time>2014-02-03T11:44:48Z</time>
      </trkpt>
      <trkpt lat="42.62908" lon="1.79863">
        <ele>1966.03</ele>
        <time>2014-02-03T11:45:00Z</time>
      </trkpt>
      <trkpt lat="42.62907" lon="1.79862">
        <ele>1967.48</ele>
        <time>2014-02-03T11:45:10Z</time>
      </trkpt>
      <trkpt lat="42.62904" lon="1.79862">
        <ele>1970.36</ele>
        <time>2014-02-03T11:45:19Z</time>
      </trkpt>
      <trkpt lat="42.629" lon="1.79862">
        <ele>1971.32</ele>
        <time>2014-02-03T11:45:30Z</time>
      </trkpt>
      <trkpt lat="42.62896" lon="1.79861">
        <ele>1971.8</ele>
        <time>2014-02-03T11:45:40Z</time>
      </trkpt>
      <trkpt lat="42.62895" lon="1.79862">
        <ele>1974.2</ele>
        <time>2014-02-03T11:45:51Z</time>
      </trkpt>
      <trkpt lat="42.62893" lon="1.79865">
        <ele>1973.72</ele>
        <time>2014-02-03T11:46:01Z</time>
      </trkpt>
      <trkpt lat="42.62894" lon="1.79873">
        <ele>1975.65</ele>
        <time>2014-02-03T11:46:11Z</time>
      </trkpt>
      <trkpt lat="42.62894" lon="1.79877">
        <ele>1975.65</ele>
        <time>2014-02-03T11:46:21Z</time>
      </trkpt>
      <trkpt lat="42.6289" lon="1.79877">
        <ele>1975.65</ele>
        <time>2014-02-03T11:46:32Z</time>
      </trkpt>
      <trkpt lat="42.62889" lon="1.79876">
        <ele>1975.65</ele>
        <time>2014-02-03T11:46:34Z</time>
      </trkpt>
      <trkpt lat="42.62884" lon="1.79875">
        <ele>1978.53</ele>
        <time>2014-02-03T11:46:46Z</time>
      </trkpt>
      <trkpt lat="42.62882" lon="1.79876">
        <ele>1979.97</ele>
        <time>2014-02-03T11:46:57Z</time>
      </trkpt>
      <trkpt lat="42.62881" lon="1.79884">
        <ele>1979.97</ele>
        <time>2014-02-03T11:47:08Z</time>
      </trkpt>
      <trkpt lat="42.62881" lon="1.79889">
        <ele>1982.86</ele>
        <time>2014-02-03T11:47:20Z</time>
      </trkpt>
      <trkpt lat="42.62878" lon="1.79887">
        <ele>1983.82</ele>
        <time>2014-02-03T11:47:33Z</time>
      </trkpt>
      <trkpt lat="42.62872" lon="1.79888">
        <ele>1985.26</ele>
        <time>2014-02-03T11:47:42Z</time>
      </trkpt>
      <trkpt lat="42.62871" lon="1.7989">
        <ele>1986.22</ele>
        <time>2014-02-03T11:47:54Z</time>
      </trkpt>
      <trkpt lat="42.62871" lon="1.79898">
        <ele>1987.18</ele>
        <time>2014-02-03T11:48:05Z</time>
      </trkpt>
      <trkpt lat="42.62871" lon="1.79901">
        <ele>1987.18</ele>
        <time>2014-02-03T11:48:10Z</time>
      </trkpt>
      <trkpt lat="42.62866" lon="1.799">
        <ele>1989.1</ele>
        <time>2014-02-03T11:48:21Z</time>
      </trkpt>
      <trkpt lat="42.62861" lon="1.79899">
        <ele>1991.03</ele>
        <time>2014-02-03T11:48:34Z</time>
      </trkpt>
      <trkpt lat="42.62858" lon="1.79906">
        <ele>1992.95</ele>
        <time>2014-02-03T11:48:45Z</time>
      </trkpt>
      <trkpt lat="42.62857" lon="1.79906">
        <ele>1992.95</ele>
        <time>2014-02-03T11:48:56Z</time>
      </trkpt>
      <trkpt lat="42.62857" lon="1.79908">
        <ele>1993.43</ele>
        <time>2014-02-03T11:49:19Z</time>
      </trkpt>
      <trkpt lat="42.62856" lon="1.7991">
        <ele>1992.95</ele>
        <time>2014-02-03T11:49:44Z</time>
      </trkpt>
      <trkpt lat="42.6285" lon="1.79909">
        <ele>1995.35</ele>
        <time>2014-02-03T11:49:54Z</time>
      </trkpt>
      <trkpt lat="42.62849" lon="1.79908">
        <ele>1996.32</ele>
        <time>2014-02-03T11:49:57Z</time>
      </trkpt>
      <trkpt lat="42.62849" lon="1.7991">
        <ele>1995.83</ele>
        <time>2014-02-03T11:50:09Z</time>
      </trkpt>
      <trkpt lat="42.62846" lon="1.79914">
        <ele>1998.72</ele>
        <time>2014-02-03T11:50:18Z</time>
      </trkpt>
      <trkpt lat="42.62842" lon="1.79913">
        <ele>1999.68</ele>
        <time>2014-02-03T11:50:32Z</time>
      </trkpt>
      <trkpt lat="42.62835" lon="1.79917">
        <ele>2001.6</ele>
        <time>2014-02-03T11:50:46Z</time>
      </trkpt>
      <trkpt lat="42.62833" lon="1.79918">
        <ele>2002.56</ele>
        <time>2014-02-03T11:50:58Z</time>
      </trkpt>
      <trkpt lat="42.62831" lon="1.79919">
        <ele>2001.6</ele>
        <time>2014-02-03T11:51:25Z</time>
      </trkpt>
      <trkpt lat="42.62827" lon="1.79917">
        <ele>2004.01</ele>
        <time>2014-02-03T11:51:39Z</time>
      </trkpt>
      <trkpt lat="42.62826" lon="1.79918">
        <ele>2003.52</ele>
        <time>2014-02-03T11:51:58Z</time>
      </trkpt>
      <trkpt lat="42.62826" lon="1.79918">
        <ele>2003.52</ele>
        <time>2014-02-03T11:52:27Z</time>
      </trkpt>
      <trkpt lat="42.62827" lon="1.79919">
        <ele>2003.52</ele>
        <time>2014-02-03T11:52:39Z</time>
      </trkpt>
      <trkpt lat="42.62826" lon="1.79918">
        <ele>2001.6</ele>
        <time>2014-02-03T11:52:57Z</time>
      </trkpt>
      <trkpt lat="42.62825" lon="1.79919">
        <ele>2003.52</ele>
        <time>2014-02-03T11:53:09Z</time>
      </trkpt>
      <trkpt lat="42.62821" lon="1.7992">
        <ele>2002.56</ele>
        <time>2014-02-03T11:53:17Z</time>
      </trkpt>
      <trkpt lat="42.62804" lon="1.79925">
        <ele>2001.12</ele>
        <time>2014-02-03T11:53:31Z</time>
      </trkpt>
      <trkpt lat="42.62799" lon="1.79926">
        <ele>2001.12</ele>
        <time>2014-02-03T11:53:38Z</time>
      </trkpt>
      <trkpt lat="42.62796" lon="1.79926">
        <ele>2001.12</ele>
        <time>2014-02-03T11:53:42Z</time>
      </trkpt>
      <trkpt lat="42.62791" lon="1.79928">
        <ele>2000.64</ele>
        <time>2014-02-03T11:53:46Z</time>
      </trkpt>
      <trkpt lat="42.62789" lon="1.79928">
        <ele>2000.64</ele>
        <time>2014-02-03T11:53:48Z</time>
      </trkpt>
      <trkpt lat="42.62782" lon="1.79929">
        <ele>2000.16</ele>
        <time>2014-02-03T11:53:56Z</time>
      </trkpt>
      <trkpt lat="42.62768" lon="1.79927">
        <ele>2000.64</ele>
        <time>2014-02-03T11:54:11Z</time>
      </trkpt>
      <trkpt lat="42.62756" lon="1.79927">
        <ele>2000.64</ele>
        <time>2014-02-03T11:54:23Z</time>
      </trkpt>
      <trkpt lat="42.62755" lon="1.79927">
        <ele>2000.16</ele>
        <time>2014-02-03T11:54:24Z</time>
      </trkpt>
      <trkpt lat="42.62752" lon="1.79927">
        <ele>2000.64</ele>
        <time>2014-02-03T11:54:28Z</time>
      </trkpt>
      <trkpt lat="42.62748" lon="1.79926">
        <ele>2001.6</ele>
        <time>2014-02-03T11:54:32Z</time>
      </trkpt>
      <trkpt lat="42.62737" lon="1.7992">
        <ele>2001.12</ele>
        <time>2014-02-03T11:54:45Z</time>
      </trkpt>
      <trkpt lat="42.6273" lon="1.79918">
        <ele>2000.64</ele>
        <time>2014-02-03T11:54:53Z</time>
      </trkpt>
      <trkpt lat="42.62721" lon="1.79913">
        <ele>2001.12</ele>
        <time>2014-02-03T11:55:05Z</time>
      </trkpt>
      <trkpt lat="42.62716" lon="1.79911">
        <ele>2001.12</ele>
        <time>2014-02-03T11:55:12Z</time>
      </trkpt>
      <trkpt lat="42.62713" lon="1.79909">
        <ele>2001.12</ele>
        <time>2014-02-03T11:55:16Z</time>
      </trkpt>
      <trkpt lat="42.62706" lon="1.79903">
        <ele>2002.56</ele>
        <time>2014-02-03T11:55:28Z</time>
      </trkpt>
      <trkpt lat="42.62705" lon="1.79903">
        <ele>2002.56</ele>
        <time>2014-02-03T11:55:29Z</time>
      </trkpt>
      <trkpt lat="42.62702" lon="1.79899">
        <ele>2003.52</ele>
        <time>2014-02-03T11:55:36Z</time>
      </trkpt>
      <trkpt lat="42.62694" lon="1.79894">
        <ele>2004.97</ele>
        <time>2014-02-03T11:55:48Z</time>
      </trkpt>
      <trkpt lat="42.62688" lon="1.79891">
        <ele>2006.41</ele>
        <time>2014-02-03T11:55:57Z</time>
      </trkpt>
      <trkpt lat="42.62678" lon="1.79888">
        <ele>2007.37</ele>
        <time>2014-02-03T11:56:10Z</time>
      </trkpt>
      <trkpt lat="42.62668" lon="1.79883">
        <ele>2008.33</ele>
        <time>2014-02-03T11:56:23Z</time>
      </trkpt>
      <trkpt lat="42.62659" lon="1.79881">
        <ele>2010.73</ele>
        <time>2014-02-03T11:56:35Z</time>
      </trkpt>
      <trkpt lat="42.62656" lon="1.7988">
        <ele>2010.73</ele>
        <time>2014-02-03T11:56:40Z</time>
      </trkpt>
      <trkpt lat="42.62652" lon="1.79878">
        <ele>2011.22</ele>
        <time>2014-02-03T11:56:46Z</time>
      </trkpt>
      <trkpt lat="42.62642" lon="1.79877">
        <ele>2011.7</ele>
        <time>2014-02-03T11:57:00Z</time>
      </trkpt>
      <trkpt lat="42.62637" lon="1.79876">
        <ele>2012.18</ele>
        <time>2014-02-03T11:57:11Z</time>
      </trkpt>
      <trkpt lat="42.62633" lon="1.79875">
        <ele>2011.7</ele>
        <time>2014-02-03T11:57:20Z</time>
      </trkpt>
      <trkpt lat="42.6263" lon="1.79875">
        <ele>2012.66</ele>
        <time>2014-02-03T11:57:38Z</time>
      </trkpt>
      <trkpt lat="42.62632" lon="1.79877">
        <ele>2012.66</ele>
        <time>2014-02-03T11:57:48Z</time>
      </trkpt>
      <trkpt lat="42.62637" lon="1.79878">
        <ele>2013.62</ele>
        <time>2014-02-03T11:57:56Z</time>
      </trkpt>
      <trkpt lat="42.62642" lon="1.79866">
        <ele>2009.29</ele>
        <time>2014-02-03T11:58:08Z</time>
      </trkpt>
      <trkpt lat="42.62639" lon="1.79864">
        <ele>2007.37</ele>
        <time>2014-02-03T11:58:20Z</time>
      </trkpt>
      <trkpt lat="42.62641" lon="1.79866">
        <ele>2006.89</ele>
        <time>2014-02-03T11:58:35Z</time>
      </trkpt>
      <trkpt lat="42.62641" lon="1.79863">
        <ele>2009.29</ele>
        <time>2014-02-03T11:58:50Z</time>
      </trkpt>
      <trkpt lat="42.6264" lon="1.79861">
        <ele>2005.93</ele>
        <time>2014-02-03T11:59:11Z</time>
      </trkpt>
      <trkpt lat="42.62637" lon="1.79861">
        <ele>2005.93</ele>
        <time>2014-02-03T11:59:29Z</time>
      </trkpt>
      <trkpt lat="42.62634" lon="1.7986">
        <ele>2004.01</ele>
        <time>2014-02-03T11:59:44Z</time>
      </trkpt>
      <trkpt lat="42.62637" lon="1.7986">
        <ele>2004.01</ele>
        <time>2014-02-03T11:59:56Z</time>
      </trkpt>
      <trkpt lat="42.6264" lon="1.7986">
        <ele>2010.25</ele>
        <time>2014-02-03T12:00:17Z</time>
      </trkpt>
      <trkpt lat="42.62643" lon="1.79865">
        <ele>2011.22</ele>
        <time>2014-02-03T12:00:40Z</time>
      </trkpt>
      <trkpt lat="42.62644" lon="1.79866">
        <ele>2008.81</ele>
        <time>2014-02-03T12:01:02Z</time>
      </trkpt>
      <trkpt lat="42.62641" lon="1.7986">
        <ele>2008.33</ele>
        <time>2014-02-03T12:01:28Z</time>
      </trkpt>
      <trkpt lat="42.62639" lon="1.79858">
        <ele>2007.37</ele>
        <time>2014-02-03T12:01:53Z</time>
      </trkpt>
      <trkpt lat="42.62638" lon="1.79852">
        <ele>2010.73</ele>
        <time>2014-02-03T12:02:28Z</time>
      </trkpt>
      <trkpt lat="42.62642" lon="1.79855">
        <ele>2010.25</ele>
        <time>2014-02-03T12:02:57Z</time>
      </trkpt>
      <trkpt lat="42.62642" lon="1.79863">
        <ele>2004.97</ele>
        <time>2014-02-03T12:03:29Z</time>
      </trkpt>
      <trkpt lat="42.62646" lon="1.79863">
        <ele>2001.6</ele>
        <time>2014-02-03T12:04:03Z</time>
      </trkpt>
      <trkpt lat="42.62652" lon="1.7987">
        <ele>2000.16</ele>
        <time>2014-02-03T12:04:42Z</time>
      </trkpt>
      <trkpt lat="42.62644" lon="1.79868">
        <ele>2004.49</ele>
        <time>2014-02-03T12:05:21Z</time>
      </trkpt>
      <trkpt lat="42.62636" lon="1.79856">
        <ele>2012.18</ele>
        <time>2014-02-03T12:05:55Z</time>
      </trkpt>
      <trkpt lat="42.62639" lon="1.79849">
        <ele>2002.56</ele>
        <time>2014-02-03T12:06:29Z</time>
      </trkpt>
      <trkpt lat="42.62639" lon="1.7985">
        <ele>2006.41</ele>
        <time>2014-02-03T12:07:03Z</time>
      </trkpt>
      <trkpt lat="42.62635" lon="1.79858">
        <ele>2007.37</ele>
        <time>2014-02-03T12:07:30Z</time>
      </trkpt>
      <trkpt lat="42.62638" lon="1.79864">
        <ele>2009.77</ele>
        <time>2014-02-03T12:08:03Z</time>
      </trkpt>
      <trkpt lat="42.62639" lon="1.7986">
        <ele>2004.97</ele>
        <time>2014-02-03T12:08:29Z</time>
      </trkpt>
      <trkpt lat="42.62641" lon="1.79854">
        <ele>2006.41</ele>
        <time>2014-02-03T12:08:57Z</time>
      </trkpt>
      <trkpt lat="42.62639" lon="1.79858">
        <ele>2006.41</ele>
        <time>2014-02-03T12:09:32Z</time>
      </trkpt>
      <trkpt lat="42.62637" lon="1.79859">
        <ele>2004.01</ele>
        <time>2014-02-03T12:10:07Z</time>
      </trkpt>
      <trkpt lat="42.62635" lon="1.79848">
        <ele>2002.56</ele>
        <time>2014-02-03T12:10:42Z</time>
      </trkpt>
      <trkpt lat="42.62632" lon="1.79844">
        <ele>2004.01</ele>
        <time>2014-02-03T12:11:13Z</time>
      </trkpt>
      <trkpt lat="42.62633" lon="1.79845">
        <ele>2007.85</ele>
        <time>2014-02-03T12:11:42Z</time>
      </trkpt>
      <trkpt lat="42.6264" lon="1.79854">
        <ele>2003.52</ele>
        <time>2014-02-03T12:12:14Z</time>
      </trkpt>
      <trkpt lat="42.62636" lon="1.79846">
        <ele>2006.41</ele>
        <time>2014-02-03T12:12:44Z</time>
      </trkpt>
      <trkpt lat="42.62639" lon="1.79852">
        <ele>2009.77</ele>
        <time>2014-02-03T12:13:15Z</time>
      </trkpt>
      <trkpt lat="42.62639" lon="1.79852">
        <ele>2013.62</ele>
        <time>2014-02-03T12:13:44Z</time>
      </trkpt>
      <trkpt lat="42.62642" lon="1.79853">
        <ele>2010.73</ele>
        <time>2014-02-03T12:14:09Z</time>
      </trkpt>
      <trkpt lat="42.6264" lon="1.79854">
        <ele>2008.81</ele>
        <time>2014-02-03T12:14:38Z</time>
      </trkpt>
      <trkpt lat="42.62639" lon="1.79854">
        <ele>2010.25</ele>
        <time>2014-02-03T12:15:09Z</time>
      </trkpt>
      <trkpt lat="42.62637" lon="1.79856">
        <ele>2014.58</ele>
        <time>2014-02-03T12:15:46Z</time>
      </trkpt>
      <trkpt lat="42.62641" lon="1.7986">
        <ele>2007.85</ele>
        <time>2014-02-03T12:16:17Z</time>
      </trkpt>
      <trkpt lat="42.6264" lon="1.79863">
        <ele>2003.04</ele>
        <time>2014-02-03T12:16:48Z</time>
      </trkpt>
      <trkpt lat="42.62636" lon="1.79859">
        <ele>2006.89</ele>
        <time>2014-02-03T12:17:16Z</time>
      </trkpt>
      <trkpt lat="42.62636" lon="1.79857">
        <ele>2010.73</ele>
        <time>2014-02-03T12:17:55Z</time>
      </trkpt>
      <trkpt lat="42.62638" lon="1.79856">
        <ele>2007.85</ele>
        <time>2014-02-03T12:18:33Z</time>
      </trkpt>
      <trkpt lat="42.62636" lon="1.79857">
        <ele>2005.93</ele>
        <time>2014-02-03T12:19:05Z</time>
      </trkpt>
      <trkpt lat="42.6264" lon="1.79862">
        <ele>1999.2</ele>
        <time>2014-02-03T12:19:45Z</time>
      </trkpt>
      <trkpt lat="42.62642" lon="1.79865">
        <ele>2000.16</ele>
        <time>2014-02-03T12:20:22Z</time>
      </trkpt>
      <trkpt lat="42.62641" lon="1.79866">
        <ele>2004.01</ele>
        <time>2014-02-03T12:20:54Z</time>
      </trkpt>
      <trkpt lat="42.62638" lon="1.79863">
        <ele>2002.08</ele>
        <time>2014-02-03T12:21:26Z</time>
      </trkpt>
      <trkpt lat="42.62639" lon="1.79865">
        <ele>2004.01</ele>
        <time>2014-02-03T12:21:58Z</time>
      </trkpt>
      <trkpt lat="42.62636" lon="1.79859">
        <ele>2004.49</ele>
        <time>2014-02-03T12:22:25Z</time>
      </trkpt>
      <trkpt lat="42.62638" lon="1.7986">
        <ele>2004.97</ele>
        <time>2014-02-03T12:22:50Z</time>
      </trkpt>
      <trkpt lat="42.62637" lon="1.79859">
        <ele>2008.33</ele>
        <time>2014-02-03T12:23:06Z</time>
      </trkpt>
      <trkpt lat="42.62635" lon="1.79854">
        <ele>2007.37</ele>
        <time>2014-02-03T12:23:25Z</time>
      </trkpt>
      <trkpt lat="42.62634" lon="1.79852">
        <ele>2004.49</ele>
        <time>2014-02-03T12:23:42Z</time>
      </trkpt>
      <trkpt lat="42.6264" lon="1.79857">
        <ele>2009.77</ele>
        <time>2014-02-03T12:24:08Z</time>
      </trkpt>
      <trkpt lat="42.62642" lon="1.79858">
        <ele>2007.37</ele>
        <time>2014-02-03T12:24:32Z</time>
      </trkpt>
      <trkpt lat="42.6264" lon="1.79856">
        <ele>2006.89</ele>
        <time>2014-02-03T12:24:57Z</time>
      </trkpt>
      <trkpt lat="42.62643" lon="1.79858">
        <ele>2008.81</ele>
        <time>2014-02-03T12:25:15Z</time>
      </trkpt>
      <trkpt lat="42.62645" lon="1.79867">
        <ele>2003.52</ele>
        <time>2014-02-03T12:25:32Z</time>
      </trkpt>
      <trkpt lat="42.62643" lon="1.79864">
        <ele>2001.6</ele>
        <time>2014-02-03T12:25:50Z</time>
      </trkpt>
      <trkpt lat="42.62645" lon="1.79862">
        <ele>2006.89</ele>
        <time>2014-02-03T12:26:15Z</time>
      </trkpt>
      <trkpt lat="42.62641" lon="1.7986">
        <ele>2008.81</ele>
        <time>2014-02-03T12:26:40Z</time>
      </trkpt>
      <trkpt lat="42.62639" lon="1.79858">
        <ele>2010.25</ele>
        <time>2014-02-03T12:26:48Z</time>
      </trkpt>
      <trkpt lat="42.62639" lon="1.79859">
        <ele>2007.37</ele>
        <time>2014-02-03T12:27:02Z</time>
      </trkpt>
      <trkpt lat="42.62641" lon="1.79862">
        <ele>2008.33</ele>
        <time>2014-02-03T12:27:15Z</time>
      </trkpt>
      <trkpt lat="42.62638" lon="1.79864">
        <ele>2008.33</ele>
        <time>2014-02-03T12:27:29Z</time>
      </trkpt>
      <trkpt lat="42.62637" lon="1.79861">
        <ele>2007.85</ele>
        <time>2014-02-03T12:27:44Z</time>
      </trkpt>
      <trkpt lat="42.62639" lon="1.79861">
        <ele>2010.25</ele>
        <time>2014-02-03T12:27:57Z</time>
      </trkpt>
      <trkpt lat="42.62637" lon="1.79861">
        <ele>2011.22</ele>
        <time>2014-02-03T12:28:16Z</time>
      </trkpt>
      <trkpt lat="42.62637" lon="1.79859">
        <ele>2012.66</ele>
        <time>2014-02-03T12:28:28Z</time>
      </trkpt>
      <trkpt lat="42.62634" lon="1.79861">
        <ele>2012.66</ele>
        <time>2014-02-03T12:28:39Z</time>
      </trkpt>
      <trkpt lat="42.6263" lon="1.79864">
        <ele>2010.73</ele>
        <time>2014-02-03T12:28:52Z</time>
      </trkpt>
      <trkpt lat="42.62631" lon="1.79869">
        <ele>2009.77</ele>
        <time>2014-02-03T12:28:58Z</time>
      </trkpt>
      <trkpt lat="42.62631" lon="1.79872">
        <ele>2010.25</ele>
        <time>2014-02-03T12:29:08Z</time>
      </trkpt>
      <trkpt lat="42.6263" lon="1.79872">
        <ele>2010.25</ele>
        <time>2014-02-03T12:29:09Z</time>
      </trkpt>
      <trkpt lat="42.62629" lon="1.79868">
        <ele>2012.66</ele>
        <time>2014-02-03T12:29:25Z</time>
      </trkpt>
      <trkpt lat="42.62627" lon="1.79862">
        <ele>2012.66</ele>
        <time>2014-02-03T12:29:50Z</time>
      </trkpt>
      <trkpt lat="42.62619" lon="1.7985">
        <ele>2013.62</ele>
        <time>2014-02-03T12:30:02Z</time>
      </trkpt>
      <trkpt lat="42.62619" lon="1.79849">
        <ele>2013.62</ele>
        <time>2014-02-03T12:30:03Z</time>
      </trkpt>
      <trkpt lat="42.62615" lon="1.79845">
        <ele>2013.62</ele>
        <time>2014-02-03T12:30:07Z</time>
      </trkpt>
      <trkpt lat="42.62613" lon="1.7984">
        <ele>2014.1</ele>
        <time>2014-02-03T12:30:12Z</time>
      </trkpt>
      <trkpt lat="42.62608" lon="1.79828">
        <ele>2015.06</ele>
        <time>2014-02-03T12:30:25Z</time>
      </trkpt>
      <trkpt lat="42.62607" lon="1.79818">
        <ele>2016.5</ele>
        <time>2014-02-03T12:30:36Z</time>
      </trkpt>
      <trkpt lat="42.62607" lon="1.79818">
        <ele>2016.98</ele>
        <time>2014-02-03T12:30:37Z</time>
      </trkpt>
      <trkpt lat="42.62603" lon="1.79809">
        <ele>2016.98</ele>
        <time>2014-02-03T12:30:46Z</time>
      </trkpt>
      <trkpt lat="42.62599" lon="1.79802">
        <ele>2016.5</ele>
        <time>2014-02-03T12:30:53Z</time>
      </trkpt>
      <trkpt lat="42.62594" lon="1.79789">
        <ele>2016.98</ele>
        <time>2014-02-03T12:31:07Z</time>
      </trkpt>
      <trkpt lat="42.62593" lon="1.79786">
        <ele>2016.98</ele>
        <time>2014-02-03T12:31:10Z</time>
      </trkpt>
      <trkpt lat="42.62588" lon="1.7978">
        <ele>2017.94</ele>
        <time>2014-02-03T12:31:18Z</time>
      </trkpt>
      <trkpt lat="42.62586" lon="1.79772">
        <ele>2019.39</ele>
        <time>2014-02-03T12:31:30Z</time>
      </trkpt>
      <trkpt lat="42.62585" lon="1.79765">
        <ele>2022.27</ele>
        <time>2014-02-03T12:31:40Z</time>
      </trkpt>
      <trkpt lat="42.62583" lon="1.79754">
        <ele>2024.67</ele>
        <time>2014-02-03T12:31:54Z</time>
      </trkpt>
      <trkpt lat="42.62581" lon="1.79749">
        <ele>2025.64</ele>
        <time>2014-02-03T12:32:04Z</time>
      </trkpt>
      <trkpt lat="42.62577" lon="1.7975">
        <ele>2027.08</ele>
        <time>2014-02-03T12:32:14Z</time>
      </trkpt>
      <trkpt lat="42.62574" lon="1.79751">
        <ele>2029</ele>
        <time>2014-02-03T12:32:35Z</time>
      </trkpt>
      <trkpt lat="42.62566" lon="1.79757">
        <ele>2032.36</ele>
        <time>2014-02-03T12:32:47Z</time>
      </trkpt>
      <trkpt lat="42.62565" lon="1.79759">
        <ele>2033.81</ele>
        <time>2014-02-03T12:32:50Z</time>
      </trkpt>
      <trkpt lat="42.62562" lon="1.79759">
        <ele>2035.73</ele>
        <time>2014-02-03T12:33:01Z</time>
      </trkpt>
      <trkpt lat="42.62562" lon="1.79758">
        <ele>2035.25</ele>
        <time>2014-02-03T12:33:02Z</time>
      </trkpt>
      <trkpt lat="42.62562" lon="1.79752">
        <ele>2036.69</ele>
        <time>2014-02-03T12:33:13Z</time>
      </trkpt>
      <trkpt lat="42.62562" lon="1.79748">
        <ele>2037.17</ele>
        <time>2014-02-03T12:33:22Z</time>
      </trkpt>
      <trkpt lat="42.62559" lon="1.79744">
        <ele>2037.17</ele>
        <time>2014-02-03T12:33:32Z</time>
      </trkpt>
      <trkpt lat="42.62555" lon="1.79746">
        <ele>2040.54</ele>
        <time>2014-02-03T12:33:41Z</time>
      </trkpt>
      <trkpt lat="42.62551" lon="1.79749">
        <ele>2041.98</ele>
        <time>2014-02-03T12:33:51Z</time>
      </trkpt>
      <trkpt lat="42.62551" lon="1.79748">
        <ele>2041.98</ele>
        <time>2014-02-03T12:34:02Z</time>
      </trkpt>
      <trkpt lat="42.62552" lon="1.79738">
        <ele>2042.46</ele>
        <time>2014-02-03T12:34:13Z</time>
      </trkpt>
      <trkpt lat="42.62552" lon="1.79734">
        <ele>2044.86</ele>
        <time>2014-02-03T12:34:24Z</time>
      </trkpt>
      <trkpt lat="42.62545" lon="1.79734">
        <ele>2046.78</ele>
        <time>2014-02-03T12:34:35Z</time>
      </trkpt>
      <trkpt lat="42.62544" lon="1.79734">
        <ele>2046.78</ele>
        <time>2014-02-03T12:34:36Z</time>
      </trkpt>
      <trkpt lat="42.62539" lon="1.7974">
        <ele>2046.3</ele>
        <time>2014-02-03T12:34:50Z</time>
      </trkpt>
      <trkpt lat="42.6254" lon="1.79736">
        <ele>2048.23</ele>
        <time>2014-02-03T12:34:59Z</time>
      </trkpt>
      <trkpt lat="42.62539" lon="1.79728">
        <ele>2049.19</ele>
        <time>2014-02-03T12:35:11Z</time>
      </trkpt>
      <trkpt lat="42.62536" lon="1.79721">
        <ele>2051.11</ele>
        <time>2014-02-03T12:35:25Z</time>
      </trkpt>
      <trkpt lat="42.62534" lon="1.7972">
        <ele>2053.51</ele>
        <time>2014-02-03T12:35:31Z</time>
      </trkpt>
      <trkpt lat="42.62529" lon="1.79718">
        <ele>2053.03</ele>
        <time>2014-02-03T12:35:43Z</time>
      </trkpt>
      <trkpt lat="42.62527" lon="1.79723">
        <ele>2054.96</ele>
        <time>2014-02-03T12:35:54Z</time>
      </trkpt>
      <trkpt lat="42.62523" lon="1.79729">
        <ele>2057.36</ele>
        <time>2014-02-03T12:36:06Z</time>
      </trkpt>
      <trkpt lat="42.62521" lon="1.79735">
        <ele>2059.76</ele>
        <time>2014-02-03T12:36:19Z</time>
      </trkpt>
      <trkpt lat="42.62521" lon="1.79734">
        <ele>2059.76</ele>
        <time>2014-02-03T12:36:22Z</time>
      </trkpt>
      <trkpt lat="42.62518" lon="1.7973">
        <ele>2061.2</ele>
        <time>2014-02-03T12:36:35Z</time>
      </trkpt>
      <trkpt lat="42.62514" lon="1.79722">
        <ele>2064.09</ele>
        <time>2014-02-03T12:36:46Z</time>
      </trkpt>
      <trkpt lat="42.62509" lon="1.79716">
        <ele>2065.05</ele>
        <time>2014-02-03T12:37:01Z</time>
      </trkpt>
      <trkpt lat="42.62505" lon="1.79717">
        <ele>2064.57</ele>
        <time>2014-02-03T12:37:10Z</time>
      </trkpt>
      <trkpt lat="42.62503" lon="1.79712">
        <ele>2066.01</ele>
        <time>2014-02-03T12:37:21Z</time>
      </trkpt>
      <trkpt lat="42.62497" lon="1.79702">
        <ele>2066.97</ele>
        <time>2014-02-03T12:37:38Z</time>
      </trkpt>
      <trkpt lat="42.62491" lon="1.79699">
        <ele>2069.86</ele>
        <time>2014-02-03T12:37:49Z</time>
      </trkpt>
      <trkpt lat="42.62487" lon="1.79699">
        <ele>2071.3</ele>
        <time>2014-02-03T12:37:58Z</time>
      </trkpt>
      <trkpt lat="42.62485" lon="1.79695">
        <ele>2072.74</ele>
        <time>2014-02-03T12:38:06Z</time>
      </trkpt>
      <trkpt lat="42.62485" lon="1.79687">
        <ele>2072.74</ele>
        <time>2014-02-03T12:38:16Z</time>
      </trkpt>
      <trkpt lat="42.62484" lon="1.79681">
        <ele>2074.18</ele>
        <time>2014-02-03T12:38:33Z</time>
      </trkpt>
      <trkpt lat="42.62482" lon="1.79678">
        <ele>2076.59</ele>
        <time>2014-02-03T12:38:45Z</time>
      </trkpt>
      <trkpt lat="42.62479" lon="1.79678">
        <ele>2077.55</ele>
        <time>2014-02-03T12:38:53Z</time>
      </trkpt>
      <trkpt lat="42.62475" lon="1.79682">
        <ele>2077.55</ele>
        <time>2014-02-03T12:39:05Z</time>
      </trkpt>
      <trkpt lat="42.62472" lon="1.79682">
        <ele>2080.91</ele>
        <time>2014-02-03T12:39:20Z</time>
      </trkpt>
      <trkpt lat="42.62467" lon="1.79687">
        <ele>2081.87</ele>
        <time>2014-02-03T12:39:33Z</time>
      </trkpt>
      <trkpt lat="42.62461" lon="1.79692">
        <ele>2082.35</ele>
        <time>2014-02-03T12:39:45Z</time>
      </trkpt>
      <trkpt lat="42.62458" lon="1.79701">
        <ele>2082.35</ele>
        <time>2014-02-03T12:39:55Z</time>
      </trkpt>
      <trkpt lat="42.62457" lon="1.79704">
        <ele>2082.35</ele>
        <time>2014-02-03T12:39:59Z</time>
      </trkpt>
      <trkpt lat="42.62456" lon="1.79713">
        <ele>2083.31</ele>
        <time>2014-02-03T12:40:13Z</time>
      </trkpt>
      <trkpt lat="42.62454" lon="1.79719">
        <ele>2085.24</ele>
        <time>2014-02-03T12:40:24Z</time>
      </trkpt>
      <trkpt lat="42.62453" lon="1.79726">
        <ele>2086.68</ele>
        <time>2014-02-03T12:40:35Z</time>
      </trkpt>
      <trkpt lat="42.62451" lon="1.79727">
        <ele>2088.6</ele>
        <time>2014-02-03T12:40:45Z</time>
      </trkpt>
      <trkpt lat="42.62447" lon="1.79727">
        <ele>2090.52</ele>
        <time>2014-02-03T12:40:56Z</time>
      </trkpt>
      <trkpt lat="42.62443" lon="1.79727">
        <ele>2091.49</ele>
        <time>2014-02-03T12:41:09Z</time>
      </trkpt>
      <trkpt lat="42.62437" lon="1.79729">
        <ele>2092.45</ele>
        <time>2014-02-03T12:41:21Z</time>
      </trkpt>
      <trkpt lat="42.62431" lon="1.79733">
        <ele>2096.77</ele>
        <time>2014-02-03T12:41:39Z</time>
      </trkpt>
      <trkpt lat="42.62426" lon="1.79732">
        <ele>2098.21</ele>
        <time>2014-02-03T12:41:52Z</time>
      </trkpt>
      <trkpt lat="42.62419" lon="1.7973">
        <ele>2099.66</ele>
        <time>2014-02-03T12:42:03Z</time>
      </trkpt>
      <trkpt lat="42.62415" lon="1.79731">
        <ele>2101.58</ele>
        <time>2014-02-03T12:42:12Z</time>
      </trkpt>
      <trkpt lat="42.62411" lon="1.79738">
        <ele>2102.06</ele>
        <time>2014-02-03T12:42:25Z</time>
      </trkpt>
      <trkpt lat="42.62411" lon="1.79746">
        <ele>2102.54</ele>
        <time>2014-02-03T12:42:36Z</time>
      </trkpt>
      <trkpt lat="42.6241" lon="1.79749">
        <ele>2103.5</ele>
        <time>2014-02-03T12:42:48Z</time>
      </trkpt>
      <trkpt lat="42.62407" lon="1.79751">
        <ele>2103.02</ele>
        <time>2014-02-03T12:43:00Z</time>
      </trkpt>
      <trkpt lat="42.62401" lon="1.79749">
        <ele>2109.75</ele>
        <time>2014-02-03T12:43:14Z</time>
      </trkpt>
      <trkpt lat="42.62395" lon="1.7975">
        <ele>2112.63</ele>
        <time>2014-02-03T12:43:26Z</time>
      </trkpt>
      <trkpt lat="42.62393" lon="1.79751">
        <ele>2111.19</ele>
        <time>2014-02-03T12:43:42Z</time>
      </trkpt>
      <trkpt lat="42.62388" lon="1.7975">
        <ele>2108.79</ele>
        <time>2014-02-03T12:43:58Z</time>
      </trkpt>
      <trkpt lat="42.62383" lon="1.79747">
        <ele>2111.19</ele>
        <time>2014-02-03T12:44:08Z</time>
      </trkpt>
      <trkpt lat="42.62379" lon="1.79744">
        <ele>2113.12</ele>
        <time>2014-02-03T12:44:17Z</time>
      </trkpt>
      <trkpt lat="42.62377" lon="1.7975">
        <ele>2115.04</ele>
        <time>2014-02-03T12:44:28Z</time>
      </trkpt>
      <trkpt lat="42.62375" lon="1.79756">
        <ele>2115.52</ele>
        <time>2014-02-03T12:44:41Z</time>
      </trkpt>
      <trkpt lat="42.62375" lon="1.79757">
        <ele>2115.52</ele>
        <time>2014-02-03T12:44:42Z</time>
      </trkpt>
      <trkpt lat="42.62374" lon="1.79761">
        <ele>2116</ele>
        <time>2014-02-03T12:44:56Z</time>
      </trkpt>
      <trkpt lat="42.62371" lon="1.79757">
        <ele>2117.92</ele>
        <time>2014-02-03T12:45:05Z</time>
      </trkpt>
      <trkpt lat="42.62369" lon="1.79756">
        <ele>2121.29</ele>
        <time>2014-02-03T12:45:18Z</time>
      </trkpt>
      <trkpt lat="42.62367" lon="1.7976">
        <ele>2121.77</ele>
        <time>2014-02-03T12:45:33Z</time>
      </trkpt>
      <trkpt lat="42.62367" lon="1.79763">
        <ele>2123.21</ele>
        <time>2014-02-03T12:45:41Z</time>
      </trkpt>
      <trkpt lat="42.62368" lon="1.79764">
        <ele>2122.25</ele>
        <time>2014-02-03T12:45:52Z</time>
      </trkpt>
      <trkpt lat="42.62367" lon="1.7976">
        <ele>2121.77</ele>
        <time>2014-02-03T12:46:12Z</time>
      </trkpt>
      <trkpt lat="42.62366" lon="1.79757">
        <ele>2121.77</ele>
        <time>2014-02-03T12:46:24Z</time>
      </trkpt>
      <trkpt lat="42.62363" lon="1.79753">
        <ele>2123.69</ele>
        <time>2014-02-03T12:46:35Z</time>
      </trkpt>
      <trkpt lat="42.62358" lon="1.79749">
        <ele>2124.65</ele>
        <time>2014-02-03T12:46:47Z</time>
      </trkpt>
      <trkpt lat="42.62358" lon="1.79749">
        <ele>2124.17</ele>
        <time>2014-02-03T12:46:57Z</time>
      </trkpt>
      <trkpt lat="42.62354" lon="1.79751">
        <ele>2126.09</ele>
        <time>2014-02-03T12:47:08Z</time>
      </trkpt>
      <trkpt lat="42.62355" lon="1.79751">
        <ele>2127.05</ele>
        <time>2014-02-03T12:47:17Z</time>
      </trkpt>
      <trkpt lat="42.62354" lon="1.79749">
        <ele>2127.05</ele>
        <time>2014-02-03T12:47:25Z</time>
      </trkpt>
      <trkpt lat="42.62352" lon="1.79741">
        <ele>2128.02</ele>
        <time>2014-02-03T12:47:35Z</time>
      </trkpt>
      <trkpt lat="42.62347" lon="1.79744">
        <ele>2129.94</ele>
        <time>2014-02-03T12:47:45Z</time>
      </trkpt>
      <trkpt lat="42.62344" lon="1.79747">
        <ele>2130.9</ele>
        <time>2014-02-03T12:47:55Z</time>
      </trkpt>
      <trkpt lat="42.62345" lon="1.79744">
        <ele>2129.94</ele>
        <time>2014-02-03T12:48:09Z</time>
      </trkpt>
      <trkpt lat="42.62344" lon="1.7974">
        <ele>2131.38</ele>
        <time>2014-02-03T12:48:17Z</time>
      </trkpt>
      <trkpt lat="42.6234" lon="1.79736">
        <ele>2134.26</ele>
        <time>2014-02-03T12:48:30Z</time>
      </trkpt>
      <trkpt lat="42.62333" lon="1.7973">
        <ele>2133.78</ele>
        <time>2014-02-03T12:48:43Z</time>
      </trkpt>
      <trkpt lat="42.62326" lon="1.79725">
        <ele>2133.78</ele>
        <time>2014-02-03T12:48:53Z</time>
      </trkpt>
      <trkpt lat="42.62324" lon="1.79726">
        <ele>2133.78</ele>
        <time>2014-02-03T12:48:56Z</time>
      </trkpt>
      <trkpt lat="42.62319" lon="1.79726">
        <ele>2133.3</ele>
        <time>2014-02-03T12:49:08Z</time>
      </trkpt>
      <trkpt lat="42.62316" lon="1.79729">
        <ele>2133.3</ele>
        <time>2014-02-03T12:49:18Z</time>
      </trkpt>
      <trkpt lat="42.62313" lon="1.79733">
        <ele>2135.23</ele>
        <time>2014-02-03T12:49:29Z</time>
      </trkpt>
      <trkpt lat="42.62314" lon="1.79734">
        <ele>2136.19</ele>
        <time>2014-02-03T12:49:43Z</time>
      </trkpt>
      <trkpt lat="42.62316" lon="1.79732">
        <ele>2135.71</ele>
        <time>2014-02-03T12:49:54Z</time>
      </trkpt>
      <trkpt lat="42.62317" lon="1.7973">
        <ele>2136.19</ele>
        <time>2014-02-03T12:50:01Z</time>
      </trkpt>
      <trkpt lat="42.62318" lon="1.79726">
        <ele>2136.19</ele>
        <time>2014-02-03T12:50:10Z</time>
      </trkpt>
      <trkpt lat="42.62318" lon="1.7972">
        <ele>2137.63</ele>
        <time>2014-02-03T12:50:21Z</time>
      </trkpt>
      <trkpt lat="42.62318" lon="1.79714">
        <ele>2138.11</ele>
        <time>2014-02-03T12:50:31Z</time>
      </trkpt>
      <trkpt lat="42.62319" lon="1.79714">
        <ele>2138.59</ele>
        <time>2014-02-03T12:50:46Z</time>
      </trkpt>
      <trkpt lat="42.62319" lon="1.79714">
        <ele>2140.03</ele>
        <time>2014-02-03T12:51:08Z</time>
      </trkpt>
      <trkpt lat="42.62318" lon="1.79713">
        <ele>2139.07</ele>
        <time>2014-02-03T12:51:22Z</time>
      </trkpt>
      <trkpt lat="42.6232" lon="1.7971">
        <ele>2138.11</ele>
        <time>2014-02-03T12:51:35Z</time>
      </trkpt>
      <trkpt lat="42.62319" lon="1.79709">
        <ele>2139.07</ele>
        <time>2014-02-03T12:51:44Z</time>
      </trkpt>
      <trkpt lat="42.62315" lon="1.79709">
        <ele>2139.07</ele>
        <time>2014-02-03T12:51:54Z</time>
      </trkpt>
      <trkpt lat="42.62314" lon="1.79709">
        <ele>2139.07</ele>
        <time>2014-02-03T12:51:58Z</time>
      </trkpt>
      <trkpt lat="42.62309" lon="1.79712">
        <ele>2139.07</ele>
        <time>2014-02-03T12:52:10Z</time>
      </trkpt>
      <trkpt lat="42.62307" lon="1.79715">
        <ele>2141.47</ele>
        <time>2014-02-03T12:52:19Z</time>
      </trkpt>
      <trkpt lat="42.62308" lon="1.7971">
        <ele>2142.44</ele>
        <time>2014-02-03T12:52:33Z</time>
      </trkpt>
      <trkpt lat="42.62308" lon="1.79709">
        <ele>2142.92</ele>
        <time>2014-02-03T12:52:44Z</time>
      </trkpt>
      <trkpt lat="42.6231" lon="1.79704">
        <ele>2143.88</ele>
        <time>2014-02-03T12:52:55Z</time>
      </trkpt>
      <trkpt lat="42.62309" lon="1.79704">
        <ele>2144.36</ele>
        <time>2014-02-03T12:53:02Z</time>
      </trkpt>
      <trkpt lat="42.62308" lon="1.79704">
        <ele>2143.88</ele>
        <time>2014-02-03T12:53:15Z</time>
      </trkpt>
      <trkpt lat="42.62304" lon="1.79705">
        <ele>2145.8</ele>
        <time>2014-02-03T12:53:28Z</time>
      </trkpt>
      <trkpt lat="42.62298" lon="1.79706">
        <ele>2148.68</ele>
        <time>2014-02-03T12:53:41Z</time>
      </trkpt>
      <trkpt lat="42.62299" lon="1.79707">
        <ele>2148.2</ele>
        <time>2014-02-03T12:53:57Z</time>
      </trkpt>
      <trkpt lat="42.62296" lon="1.79705">
        <ele>2148.68</ele>
        <time>2014-02-03T12:54:13Z</time>
      </trkpt>
      <trkpt lat="42.62296" lon="1.79705">
        <ele>2148.68</ele>
        <time>2014-02-03T12:54:26Z</time>
      </trkpt>
      <trkpt lat="42.62293" lon="1.79705">
        <ele>2146.28</ele>
        <time>2014-02-03T12:54:45Z</time>
      </trkpt>
      <trkpt lat="42.62297" lon="1.79706">
        <ele>2148.2</ele>
        <time>2014-02-03T12:55:13Z</time>
      </trkpt>
      <trkpt lat="42.62297" lon="1.79701">
        <ele>2148.2</ele>
        <time>2014-02-03T12:55:40Z</time>
      </trkpt>
      <trkpt lat="42.62295" lon="1.79699">
        <ele>2147.24</ele>
        <time>2014-02-03T12:56:03Z</time>
      </trkpt>
      <trkpt lat="42.62293" lon="1.79699">
        <ele>2147.24</ele>
        <time>2014-02-03T12:56:26Z</time>
      </trkpt>
      <trkpt lat="42.62278" lon="1.79695">
        <ele>2148.2</ele>
        <time>2014-02-03T12:56:41Z</time>
      </trkpt>
      <trkpt lat="42.6227" lon="1.79688">
        <ele>2149.65</ele>
        <time>2014-02-03T12:56:55Z</time>
      </trkpt>
      <trkpt lat="42.62263" lon="1.7968">
        <ele>2149.16</ele>
        <time>2014-02-03T12:57:07Z</time>
      </trkpt>
      <trkpt lat="42.6226" lon="1.79671">
        <ele>2150.61</ele>
        <time>2014-02-03T12:57:18Z</time>
      </trkpt>
      <trkpt lat="42.6226" lon="1.79667">
        <ele>2152.05</ele>
        <time>2014-02-03T12:57:22Z</time>
      </trkpt>
      <trkpt lat="42.62255" lon="1.79657">
        <ele>2150.61</ele>
        <time>2014-02-03T12:57:33Z</time>
      </trkpt>
      <trkpt lat="42.62254" lon="1.79653">
        <ele>2151.09</ele>
        <time>2014-02-03T12:57:36Z</time>
      </trkpt>
      <trkpt lat="42.62248" lon="1.79641">
        <ele>2153.49</ele>
        <time>2014-02-03T12:57:49Z</time>
      </trkpt>
      <trkpt lat="42.6224" lon="1.79631">
        <ele>2153.49</ele>
        <time>2014-02-03T12:58:02Z</time>
      </trkpt>
      <trkpt lat="42.62235" lon="1.79618">
        <ele>2154.93</ele>
        <time>2014-02-03T12:58:15Z</time>
      </trkpt>
      <trkpt lat="42.62228" lon="1.79604">
        <ele>2154.45</ele>
        <time>2014-02-03T12:58:30Z</time>
      </trkpt>
      <trkpt lat="42.62223" lon="1.79595">
        <ele>2155.41</ele>
        <time>2014-02-03T12:58:42Z</time>
      </trkpt>
      <trkpt lat="42.62222" lon="1.79589">
        <ele>2155.89</ele>
        <time>2014-02-03T12:58:49Z</time>
      </trkpt>
      <trkpt lat="42.62218" lon="1.79582">
        <ele>2155.41</ele>
        <time>2014-02-03T12:58:56Z</time>
      </trkpt>
      <trkpt lat="42.62216" lon="1.79575">
        <ele>2155.89</ele>
        <time>2014-02-03T12:59:02Z</time>
      </trkpt>
      <trkpt lat="42.62214" lon="1.79568">
        <ele>2158.78</ele>
        <time>2014-02-03T12:59:13Z</time>
      </trkpt>
      <trkpt lat="42.62211" lon="1.79562">
        <ele>2159.74</ele>
        <time>2014-02-03T12:59:22Z</time>
      </trkpt>
      <trkpt lat="42.62206" lon="1.7955">
        <ele>2160.7</ele>
        <time>2014-02-03T12:59:38Z</time>
      </trkpt>
      <trkpt lat="42.62203" lon="1.79548">
        <ele>2161.18</ele>
        <time>2014-02-03T12:59:42Z</time>
      </trkpt>
      <trkpt lat="42.62199" lon="1.79541">
        <ele>2164.55</ele>
        <time>2014-02-03T12:59:53Z</time>
      </trkpt>
      <trkpt lat="42.62196" lon="1.7953">
        <ele>2164.06</ele>
        <time>2014-02-03T13:00:08Z</time>
      </trkpt>
      <trkpt lat="42.62192" lon="1.79519">
        <ele>2166.47</ele>
        <time>2014-02-03T13:00:21Z</time>
      </trkpt>
      <trkpt lat="42.62188" lon="1.79511">
        <ele>2166.95</ele>
        <time>2014-02-03T13:00:35Z</time>
      </trkpt>
      <trkpt lat="42.6218" lon="1.79502">
        <ele>2169.83</ele>
        <time>2014-02-03T13:00:49Z</time>
      </trkpt>
      <trkpt lat="42.62176" lon="1.79496">
        <ele>2172.72</ele>
        <time>2014-02-03T13:01:01Z</time>
      </trkpt>
      <trkpt lat="42.62168" lon="1.79484">
        <ele>2173.68</ele>
        <time>2014-02-03T13:01:17Z</time>
      </trkpt>
      <trkpt lat="42.62162" lon="1.79477">
        <ele>2174.16</ele>
        <time>2014-02-03T13:01:29Z</time>
      </trkpt>
      <trkpt lat="42.62159" lon="1.79472">
        <ele>2175.6</ele>
        <time>2014-02-03T13:01:44Z</time>
      </trkpt>
      <trkpt lat="42.62155" lon="1.79464">
        <ele>2178</ele>
        <time>2014-02-03T13:01:58Z</time>
      </trkpt>
      <trkpt lat="42.62151" lon="1.79455">
        <ele>2178.48</ele>
        <time>2014-02-03T13:02:09Z</time>
      </trkpt>
      <trkpt lat="42.62149" lon="1.79451">
        <ele>2180.89</ele>
        <time>2014-02-03T13:02:22Z</time>
      </trkpt>
      <trkpt lat="42.62146" lon="1.79442">
        <ele>2182.33</ele>
        <time>2014-02-03T13:02:33Z</time>
      </trkpt>
      <trkpt lat="42.62144" lon="1.79434">
        <ele>2184.25</ele>
        <time>2014-02-03T13:02:48Z</time>
      </trkpt>
      <trkpt lat="42.62143" lon="1.79427">
        <ele>2184.73</ele>
        <time>2014-02-03T13:03:06Z</time>
      </trkpt>
      <trkpt lat="42.62138" lon="1.79417">
        <ele>2186.18</ele>
        <time>2014-02-03T13:03:21Z</time>
      </trkpt>
      <trkpt lat="42.62133" lon="1.79408">
        <ele>2191.46</ele>
        <time>2014-02-03T13:03:40Z</time>
      </trkpt>
      <trkpt lat="42.62129" lon="1.79399">
        <ele>2194.35</ele>
        <time>2014-02-03T13:03:53Z</time>
      </trkpt>
      <trkpt lat="42.62124" lon="1.79392">
        <ele>2193.39</ele>
        <time>2014-02-03T13:04:04Z</time>
      </trkpt>
      <trkpt lat="42.6212" lon="1.79386">
        <ele>2196.27</ele>
        <time>2014-02-03T13:04:20Z</time>
      </trkpt>
      <trkpt lat="42.62114" lon="1.79377">
        <ele>2199.63</ele>
        <time>2014-02-03T13:04:35Z</time>
      </trkpt>
      <trkpt lat="42.6211" lon="1.79372">
        <ele>2199.63</ele>
        <time>2014-02-03T13:04:47Z</time>
      </trkpt>
      <trkpt lat="42.6211" lon="1.79369">
        <ele>2199.15</ele>
        <time>2014-02-03T13:04:58Z</time>
      </trkpt>
      <trkpt lat="42.62106" lon="1.79362">
        <ele>2200.59</ele>
        <time>2014-02-03T13:05:13Z</time>
      </trkpt>
      <trkpt lat="42.62103" lon="1.79355">
        <ele>2202.04</ele>
        <time>2014-02-03T13:05:23Z</time>
      </trkpt>
      <trkpt lat="42.62101" lon="1.79349">
        <ele>2203.96</ele>
        <time>2014-02-03T13:05:36Z</time>
      </trkpt>
      <trkpt lat="42.621" lon="1.79344">
        <ele>2203.96</ele>
        <time>2014-02-03T13:05:48Z</time>
      </trkpt>
      <trkpt lat="42.62098" lon="1.79342">
        <ele>2205.88</ele>
        <time>2014-02-03T13:06:02Z</time>
      </trkpt>
      <trkpt lat="42.62097" lon="1.79336">
        <ele>2208.29</ele>
        <time>2014-02-03T13:06:12Z</time>
      </trkpt>
      <trkpt lat="42.62095" lon="1.7933">
        <ele>2208.29</ele>
        <time>2014-02-03T13:06:24Z</time>
      </trkpt>
      <trkpt lat="42.62093" lon="1.79322">
        <ele>2209.73</ele>
        <time>2014-02-03T13:06:36Z</time>
      </trkpt>
      <trkpt lat="42.6209" lon="1.79315">
        <ele>2211.65</ele>
        <time>2014-02-03T13:06:48Z</time>
      </trkpt>
      <trkpt lat="42.62087" lon="1.79309">
        <ele>2213.57</ele>
        <time>2014-02-03T13:07:00Z</time>
      </trkpt>
      <trkpt lat="42.62086" lon="1.79303">
        <ele>2215.5</ele>
        <time>2014-02-03T13:07:12Z</time>
      </trkpt>
      <trkpt lat="42.62083" lon="1.79296">
        <ele>2215.5</ele>
        <time>2014-02-03T13:07:25Z</time>
      </trkpt>
      <trkpt lat="42.62083" lon="1.79294">
        <ele>2217.9</ele>
        <time>2014-02-03T13:07:36Z</time>
      </trkpt>
      <trkpt lat="42.62081" lon="1.79288">
        <ele>2220.78</ele>
        <time>2014-02-03T13:07:48Z</time>
      </trkpt>
      <trkpt lat="42.62077" lon="1.79281">
        <ele>2221.26</ele>
        <time>2014-02-03T13:08:00Z</time>
      </trkpt>
      <trkpt lat="42.62073" lon="1.79273">
        <ele>2223.67</ele>
        <time>2014-02-03T13:08:16Z</time>
      </trkpt>
      <trkpt lat="42.62069" lon="1.79266">
        <ele>2225.11</ele>
        <time>2014-02-03T13:08:27Z</time>
      </trkpt>
      <trkpt lat="42.62067" lon="1.7926">
        <ele>2227.03</ele>
        <time>2014-02-03T13:08:39Z</time>
      </trkpt>
      <trkpt lat="42.62062" lon="1.79253">
        <ele>2230.4</ele>
        <time>2014-02-03T13:08:55Z</time>
      </trkpt>
      <trkpt lat="42.62061" lon="1.79253">
        <ele>2230.88</ele>
        <time>2014-02-03T13:09:07Z</time>
      </trkpt>
      <trkpt lat="42.62061" lon="1.79253">
        <ele>2229.43</ele>
        <time>2014-02-03T13:09:32Z</time>
      </trkpt>
      <trkpt lat="42.62057" lon="1.79254">
        <ele>2227.99</ele>
        <time>2014-02-03T13:09:51Z</time>
      </trkpt>
      <trkpt lat="42.62056" lon="1.79253">
        <ele>2222.71</ele>
        <time>2014-02-03T13:10:15Z</time>
      </trkpt>
      <trkpt lat="42.62055" lon="1.79255">
        <ele>2227.03</ele>
        <time>2014-02-03T13:10:37Z</time>
      </trkpt>
      <trkpt lat="42.62057" lon="1.79256">
        <ele>2229.43</ele>
        <time>2014-02-03T13:11:10Z</time>
      </trkpt>
      <trkpt lat="42.62054" lon="1.79251">
        <ele>2218.38</ele>
        <time>2014-02-03T13:11:41Z</time>
      </trkpt>
      <trkpt lat="42.6206" lon="1.79251">
        <ele>2225.11</ele>
        <time>2014-02-03T13:12:03Z</time>
      </trkpt>
      <trkpt lat="42.62059" lon="1.79252">
        <ele>2232.8</ele>
        <time>2014-02-03T13:12:20Z</time>
      </trkpt>
      <trkpt lat="42.62064" lon="1.79256">
        <ele>2235.68</ele>
        <time>2014-02-03T13:12:40Z</time>
      </trkpt>
      <trkpt lat="42.62059" lon="1.79251">
        <ele>2235.68</ele>
        <time>2014-02-03T13:12:54Z</time>
      </trkpt>
      <trkpt lat="42.62056" lon="1.79245">
        <ele>2237.61</ele>
        <time>2014-02-03T13:13:05Z</time>
      </trkpt>
      <trkpt lat="42.62052" lon="1.79239">
        <ele>2234.72</ele>
        <time>2014-02-03T13:13:17Z</time>
      </trkpt>
      <trkpt lat="42.62054" lon="1.79237">
        <ele>2234.24</ele>
        <time>2014-02-03T13:13:25Z</time>
      </trkpt>
      <trkpt lat="42.6205" lon="1.79226">
        <ele>2235.68</ele>
        <time>2014-02-03T13:13:40Z</time>
      </trkpt>
      <trkpt lat="42.62049" lon="1.79225">
        <ele>2236.16</ele>
        <time>2014-02-03T13:13:42Z</time>
      </trkpt>
      <trkpt lat="42.62048" lon="1.79219">
        <ele>2237.13</ele>
        <time>2014-02-03T13:13:56Z</time>
      </trkpt>
      <trkpt lat="42.62046" lon="1.79209">
        <ele>2240.01</ele>
        <time>2014-02-03T13:14:09Z</time>
      </trkpt>
      <trkpt lat="42.62045" lon="1.79206">
        <ele>2241.93</ele>
        <time>2014-02-03T13:14:20Z</time>
      </trkpt>
      <trkpt lat="42.62043" lon="1.79197">
        <ele>2245.3</ele>
        <time>2014-02-03T13:14:34Z</time>
      </trkpt>
      <trkpt lat="42.62043" lon="1.79193">
        <ele>2246.74</ele>
        <time>2014-02-03T13:14:45Z</time>
      </trkpt>
      <trkpt lat="42.62043" lon="1.79187">
        <ele>2249.62</ele>
        <time>2014-02-03T13:14:56Z</time>
      </trkpt>
      <trkpt lat="42.62045" lon="1.7918">
        <ele>2252.99</ele>
        <time>2014-02-03T13:15:09Z</time>
      </trkpt>
      <trkpt lat="42.62045" lon="1.79175">
        <ele>2254.91</ele>
        <time>2014-02-03T13:15:21Z</time>
      </trkpt>
      <trkpt lat="42.62047" lon="1.79167">
        <ele>2255.87</ele>
        <time>2014-02-03T13:15:34Z</time>
      </trkpt>
      <trkpt lat="42.62048" lon="1.7916">
        <ele>2259.24</ele>
        <time>2014-02-03T13:15:47Z</time>
      </trkpt>
      <trkpt lat="42.62048" lon="1.79154">
        <ele>2259.72</ele>
        <time>2014-02-03T13:15:59Z</time>
      </trkpt>
      <trkpt lat="42.62048" lon="1.79154">
        <ele>2261.64</ele>
        <time>2014-02-03T13:16:06Z</time>
      </trkpt>
      <trkpt lat="42.62046" lon="1.79153">
        <ele>2261.16</ele>
        <time>2014-02-03T13:16:10Z</time>
      </trkpt>
      <trkpt lat="42.62041" lon="1.79152">
        <ele>2265.48</ele>
        <time>2014-02-03T13:16:21Z</time>
      </trkpt>
      <trkpt lat="42.62036" lon="1.79153">
        <ele>2267.41</ele>
        <time>2014-02-03T13:16:31Z</time>
      </trkpt>
      <trkpt lat="42.62032" lon="1.79153">
        <ele>2270.77</ele>
        <time>2014-02-03T13:16:42Z</time>
      </trkpt>
      <trkpt lat="42.62029" lon="1.79155">
        <ele>2272.21</ele>
        <time>2014-02-03T13:16:53Z</time>
      </trkpt>
      <trkpt lat="42.62025" lon="1.79156">
        <ele>2273.17</ele>
        <time>2014-02-03T13:17:03Z</time>
      </trkpt>
      <trkpt lat="42.62024" lon="1.79158">
        <ele>2273.66</ele>
        <time>2014-02-03T13:17:14Z</time>
      </trkpt>
      <trkpt lat="42.62026" lon="1.79158">
        <ele>2273.17</ele>
        <time>2014-02-03T13:17:23Z</time>
      </trkpt>
      <trkpt lat="42.62028" lon="1.79152">
        <ele>2272.21</ele>
        <time>2014-02-03T13:17:34Z</time>
      </trkpt>
      <trkpt lat="42.62029" lon="1.79145">
        <ele>2272.21</ele>
        <time>2014-02-03T13:17:45Z</time>
      </trkpt>
      <trkpt lat="42.62031" lon="1.79141">
        <ele>2275.1</ele>
        <time>2014-02-03T13:17:56Z</time>
      </trkpt>
      <trkpt lat="42.62032" lon="1.79136">
        <ele>2276.54</ele>
        <time>2014-02-03T13:18:07Z</time>
      </trkpt>
      <trkpt lat="42.62035" lon="1.79129">
        <ele>2278.46</ele>
        <time>2014-02-03T13:18:19Z</time>
      </trkpt>
      <trkpt lat="42.62036" lon="1.79124">
        <ele>2279.42</ele>
        <time>2014-02-03T13:18:30Z</time>
      </trkpt>
      <trkpt lat="42.62038" lon="1.79121">
        <ele>2280.87</ele>
        <time>2014-02-03T13:18:42Z</time>
      </trkpt>
      <trkpt lat="42.6204" lon="1.79116">
        <ele>2282.79</ele>
        <time>2014-02-03T13:18:53Z</time>
      </trkpt>
      <trkpt lat="42.62041" lon="1.79114">
        <ele>2283.27</ele>
        <time>2014-02-03T13:19:05Z</time>
      </trkpt>
      <trkpt lat="42.62037" lon="1.79113">
        <ele>2282.79</ele>
        <time>2014-02-03T13:19:14Z</time>
      </trkpt>
      <trkpt lat="42.62032" lon="1.79111">
        <ele>2283.75</ele>
        <time>2014-02-03T13:19:27Z</time>
      </trkpt>
      <trkpt lat="42.62028" lon="1.79111">
        <ele>2286.63</ele>
        <time>2014-02-03T13:19:38Z</time>
      </trkpt>
      <trkpt lat="42.62023" lon="1.79112">
        <ele>2289.52</ele>
        <time>2014-02-03T13:19:49Z</time>
      </trkpt>
      <trkpt lat="42.62022" lon="1.79112">
        <ele>2290.48</ele>
        <time>2014-02-03T13:19:52Z</time>
      </trkpt>
      <trkpt lat="42.62019" lon="1.79113">
        <ele>2292.4</ele>
        <time>2014-02-03T13:20:04Z</time>
      </trkpt>
      <trkpt lat="42.62017" lon="1.79115">
        <ele>2294.32</ele>
        <time>2014-02-03T13:20:13Z</time>
      </trkpt>
      <trkpt lat="42.62013" lon="1.79118">
        <ele>2295.28</ele>
        <time>2014-02-03T13:20:22Z</time>
      </trkpt>
      <trkpt lat="42.62014" lon="1.79117">
        <ele>2295.28</ele>
        <time>2014-02-03T13:20:27Z</time>
      </trkpt>
      <trkpt lat="42.62017" lon="1.79119">
        <ele>2293.84</ele>
        <time>2014-02-03T13:20:39Z</time>
      </trkpt>
      <trkpt lat="42.62018" lon="1.79115">
        <ele>2292.88</ele>
        <time>2014-02-03T13:20:54Z</time>
      </trkpt>
      <trkpt lat="42.6202" lon="1.79113">
        <ele>2290.48</ele>
        <time>2014-02-03T13:21:09Z</time>
      </trkpt>
      <trkpt lat="42.62022" lon="1.79107">
        <ele>2291.92</ele>
        <time>2014-02-03T13:21:19Z</time>
      </trkpt>
      <trkpt lat="42.62024" lon="1.79104">
        <ele>2292.4</ele>
        <time>2014-02-03T13:21:30Z</time>
      </trkpt>
      <trkpt lat="42.62027" lon="1.79099">
        <ele>2294.8</ele>
        <time>2014-02-03T13:21:41Z</time>
      </trkpt>
      <trkpt lat="42.6203" lon="1.79094">
        <ele>2296.25</ele>
        <time>2014-02-03T13:21:52Z</time>
      </trkpt>
      <trkpt lat="42.62032" lon="1.79092">
        <ele>2297.21</ele>
        <time>2014-02-03T13:22:05Z</time>
      </trkpt>
      <trkpt lat="42.62034" lon="1.79087">
        <ele>2298.17</ele>
        <time>2014-02-03T13:22:15Z</time>
      </trkpt>
      <trkpt lat="42.62033" lon="1.79086">
        <ele>2299.13</ele>
        <time>2014-02-03T13:22:28Z</time>
      </trkpt>
      <trkpt lat="42.62031" lon="1.79086">
        <ele>2299.13</ele>
        <time>2014-02-03T13:22:38Z</time>
      </trkpt>
      <trkpt lat="42.62025" lon="1.79084">
        <ele>2302.49</ele>
        <time>2014-02-03T13:22:48Z</time>
      </trkpt>
      <trkpt lat="42.62022" lon="1.79086">
        <ele>2306.34</ele>
        <time>2014-02-03T13:22:59Z</time>
      </trkpt>
      <trkpt lat="42.6202" lon="1.79089">
        <ele>2303.94</ele>
        <time>2014-02-03T13:23:13Z</time>
      </trkpt>
      <trkpt lat="42.62017" lon="1.79087">
        <ele>2304.9</ele>
        <time>2014-02-03T13:23:24Z</time>
      </trkpt>
      <trkpt lat="42.62013" lon="1.79089">
        <ele>2308.26</ele>
        <time>2014-02-03T13:23:34Z</time>
      </trkpt>
      <trkpt lat="42.6201" lon="1.7909">
        <ele>2310.19</ele>
        <time>2014-02-03T13:23:45Z</time>
      </trkpt>
      <trkpt lat="42.62006" lon="1.79091">
        <ele>2311.63</ele>
        <time>2014-02-03T13:23:55Z</time>
      </trkpt>
      <trkpt lat="42.62003" lon="1.79094">
        <ele>2312.59</ele>
        <time>2014-02-03T13:24:05Z</time>
      </trkpt>
      <trkpt lat="42.62003" lon="1.79098">
        <ele>2311.15</ele>
        <time>2014-02-03T13:24:18Z</time>
      </trkpt>
      <trkpt lat="42.62004" lon="1.79095">
        <ele>2310.19</ele>
        <time>2014-02-03T13:24:37Z</time>
      </trkpt>
      <trkpt lat="42.62006" lon="1.79097">
        <ele>2307.3</ele>
        <time>2014-02-03T13:24:52Z</time>
      </trkpt>
      <trkpt lat="42.62007" lon="1.79096">
        <ele>2305.38</ele>
        <time>2014-02-03T13:25:07Z</time>
      </trkpt>
      <trkpt lat="42.62008" lon="1.79092">
        <ele>2305.86</ele>
        <time>2014-02-03T13:25:17Z</time>
      </trkpt>
      <trkpt lat="42.62009" lon="1.79091">
        <ele>2306.82</ele>
        <time>2014-02-03T13:25:25Z</time>
      </trkpt>
      <trkpt lat="42.62011" lon="1.79087">
        <ele>2306.82</ele>
        <time>2014-02-03T13:25:35Z</time>
      </trkpt>
      <trkpt lat="42.62012" lon="1.79084">
        <ele>2308.74</ele>
        <time>2014-02-03T13:25:45Z</time>
      </trkpt>
      <trkpt lat="42.62015" lon="1.79081">
        <ele>2309.7</ele>
        <time>2014-02-03T13:25:56Z</time>
      </trkpt>
      <trkpt lat="42.62016" lon="1.79082">
        <ele>2312.59</ele>
        <time>2014-02-03T13:26:08Z</time>
      </trkpt>
      <trkpt lat="42.62015" lon="1.79081">
        <ele>2307.3</ele>
        <time>2014-02-03T13:26:22Z</time>
      </trkpt>
      <trkpt lat="42.62014" lon="1.79079">
        <ele>2311.63</ele>
        <time>2014-02-03T13:26:40Z</time>
      </trkpt>
      <trkpt lat="42.62015" lon="1.79081">
        <ele>2311.63</ele>
        <time>2014-02-03T13:26:58Z</time>
      </trkpt>
      <trkpt lat="42.62017" lon="1.79077">
        <ele>2312.11</ele>
        <time>2014-02-03T13:27:09Z</time>
      </trkpt>
      <trkpt lat="42.62021" lon="1.79071">
        <ele>2313.07</ele>
        <time>2014-02-03T13:27:19Z</time>
      </trkpt>
      <trkpt lat="42.62023" lon="1.79067">
        <ele>2314.03</ele>
        <time>2014-02-03T13:27:30Z</time>
      </trkpt>
      <trkpt lat="42.62025" lon="1.79063">
        <ele>2313.55</ele>
        <time>2014-02-03T13:27:40Z</time>
      </trkpt>
      <trkpt lat="42.62027" lon="1.7906">
        <ele>2315.47</ele>
        <time>2014-02-03T13:27:51Z</time>
      </trkpt>
      <trkpt lat="42.62029" lon="1.79056">
        <ele>2315.95</ele>
        <time>2014-02-03T13:28:01Z</time>
      </trkpt>
      <trkpt lat="42.6203" lon="1.79052">
        <ele>2315.47</ele>
        <time>2014-02-03T13:28:11Z</time>
      </trkpt>
      <trkpt lat="42.62031" lon="1.79052">
        <ele>2314.99</ele>
        <time>2014-02-03T13:28:24Z</time>
      </trkpt>
      <trkpt lat="42.62031" lon="1.79051">
        <ele>2315.95</ele>
        <time>2014-02-03T13:28:37Z</time>
      </trkpt>
      <trkpt lat="42.62029" lon="1.79051">
        <ele>2315.95</ele>
        <time>2014-02-03T13:28:47Z</time>
      </trkpt>
      <trkpt lat="42.62027" lon="1.79053">
        <ele>2317.88</ele>
        <time>2014-02-03T13:28:59Z</time>
      </trkpt>
      <trkpt lat="42.62025" lon="1.79052">
        <ele>2317.4</ele>
        <time>2014-02-03T13:29:08Z</time>
      </trkpt>
      <trkpt lat="42.62023" lon="1.79052">
        <ele>2319.32</ele>
        <time>2014-02-03T13:29:20Z</time>
      </trkpt>
      <trkpt lat="42.62022" lon="1.79055">
        <ele>2319.8</ele>
        <time>2014-02-03T13:29:30Z</time>
      </trkpt>
      <trkpt lat="42.62021" lon="1.79054">
        <ele>2320.76</ele>
        <time>2014-02-03T13:29:42Z</time>
      </trkpt>
      <trkpt lat="42.62021" lon="1.79055">
        <ele>2320.28</ele>
        <time>2014-02-03T13:29:56Z</time>
      </trkpt>
      <trkpt lat="42.62021" lon="1.79056">
        <ele>2319.8</ele>
        <time>2014-02-03T13:30:11Z</time>
      </trkpt>
      <trkpt lat="42.62022" lon="1.79055">
        <ele>2318.84</ele>
        <time>2014-02-03T13:30:24Z</time>
      </trkpt>
      <trkpt lat="42.62022" lon="1.79054">
        <ele>2318.36</ele>
        <time>2014-02-03T13:30:49Z</time>
      </trkpt>
      <trkpt lat="42.62022" lon="1.79052">
        <ele>2318.36</ele>
        <time>2014-02-03T13:31:06Z</time>
      </trkpt>
      <trkpt lat="42.62023" lon="1.79056">
        <ele>2317.88</ele>
        <time>2014-02-03T13:31:16Z</time>
      </trkpt>
      <trkpt lat="42.62022" lon="1.79054">
        <ele>2317.4</ele>
        <time>2014-02-03T13:31:37Z</time>
      </trkpt>
      <trkpt lat="42.6202" lon="1.79054">
        <ele>2316.91</ele>
        <time>2014-02-03T13:32:02Z</time>
      </trkpt>
      <trkpt lat="42.6202" lon="1.79053">
        <ele>2317.88</ele>
        <time>2014-02-03T13:32:30Z</time>
      </trkpt>
      <trkpt lat="42.6202" lon="1.79051">
        <ele>2318.84</ele>
        <time>2014-02-03T13:32:57Z</time>
      </trkpt>
      <trkpt lat="42.62022" lon="1.79055">
        <ele>2317.4</ele>
        <time>2014-02-03T13:33:27Z</time>
      </trkpt>
      <trkpt lat="42.62022" lon="1.79054">
        <ele>2319.32</ele>
        <time>2014-02-03T13:33:40Z</time>
      </trkpt>
      <trkpt lat="42.62022" lon="1.79055">
        <ele>2318.84</ele>
        <time>2014-02-03T13:34:01Z</time>
      </trkpt>
      <trkpt lat="42.62021" lon="1.79053">
        <ele>2314.51</ele>
        <time>2014-02-03T13:34:27Z</time>
      </trkpt>
      <trkpt lat="42.62022" lon="1.79054">
        <ele>2318.36</ele>
        <time>2014-02-03T13:34:52Z</time>
      </trkpt>
      <trkpt lat="42.62019" lon="1.79052">
        <ele>2315.95</ele>
        <time>2014-02-03T13:35:12Z</time>
      </trkpt>
      <trkpt lat="42.6202" lon="1.79053">
        <ele>2316.43</ele>
        <time>2014-02-03T13:35:36Z</time>
      </trkpt>
      <trkpt lat="42.6202" lon="1.79054">
        <ele>2320.76</ele>
        <time>2014-02-03T13:36:01Z</time>
      </trkpt>
      <trkpt lat="42.6202" lon="1.79053">
        <ele>2320.76</ele>
        <time>2014-02-03T13:36:14Z</time>
      </trkpt>
      <trkpt lat="42.6202" lon="1.79061">
        <ele>2318.36</ele>
        <time>2014-02-03T13:36:38Z</time>
      </trkpt>
      <trkpt lat="42.62023" lon="1.7905">
        <ele>2317.88</ele>
        <time>2014-02-03T13:37:04Z</time>
      </trkpt>
      <trkpt lat="42.62023" lon="1.79054">
        <ele>2319.32</ele>
        <time>2014-02-03T13:37:25Z</time>
      </trkpt>
      <trkpt lat="42.62023" lon="1.79051">
        <ele>2319.32</ele>
        <time>2014-02-03T13:37:52Z</time>
      </trkpt>
      <trkpt lat="42.62021" lon="1.79055">
        <ele>2319.32</ele>
        <time>2014-02-03T13:38:18Z</time>
      </trkpt>
      <trkpt lat="42.6202" lon="1.79052">
        <ele>2319.8</ele>
        <time>2014-02-03T13:38:44Z</time>
      </trkpt>
      <trkpt lat="42.6202" lon="1.79057">
        <ele>2318.84</ele>
        <time>2014-02-03T13:39:05Z</time>
      </trkpt>
      <trkpt lat="42.62023" lon="1.79057">
        <ele>2321.72</ele>
        <time>2014-02-03T13:39:35Z</time>
      </trkpt>
      <trkpt lat="42.62021" lon="1.79053">
        <ele>2321.72</ele>
        <time>2014-02-03T13:39:59Z</time>
      </trkpt>
      <trkpt lat="42.62022" lon="1.79055">
        <ele>2322.68</ele>
        <time>2014-02-03T13:40:21Z</time>
      </trkpt>
      <trkpt lat="42.62021" lon="1.79054">
        <ele>2321.72</ele>
        <time>2014-02-03T13:40:44Z</time>
      </trkpt>
      <trkpt lat="42.62023" lon="1.79056">
        <ele>2320.76</ele>
        <time>2014-02-03T13:41:04Z</time>
      </trkpt>
      <trkpt lat="42.62023" lon="1.79056">
        <ele>2319.8</ele>
        <time>2014-02-03T13:41:21Z</time>
      </trkpt>
      <trkpt lat="42.62025" lon="1.79054">
        <ele>2320.28</ele>
        <time>2014-02-03T13:41:34Z</time>
      </trkpt>
      <trkpt lat="42.62025" lon="1.79053">
        <ele>2322.2</ele>
        <time>2014-02-03T13:41:45Z</time>
      </trkpt>
      <trkpt lat="42.62025" lon="1.79053">
        <ele>2324.12</ele>
        <time>2014-02-03T13:41:59Z</time>
      </trkpt>
      <trkpt lat="42.62023" lon="1.79053">
        <ele>2324.61</ele>
        <time>2014-02-03T13:42:14Z</time>
      </trkpt>
      <trkpt lat="42.62022" lon="1.79052">
        <ele>2325.09</ele>
        <time>2014-02-03T13:42:26Z</time>
      </trkpt>
      <trkpt lat="42.62022" lon="1.7905">
        <ele>2325.57</ele>
        <time>2014-02-03T13:42:40Z</time>
      </trkpt>
      <trkpt lat="42.62023" lon="1.7905">
        <ele>2325.57</ele>
        <time>2014-02-03T13:42:50Z</time>
      </trkpt>
      <trkpt lat="42.62022" lon="1.79049">
        <ele>2328.45</ele>
        <time>2014-02-03T13:43:04Z</time>
      </trkpt>
      <trkpt lat="42.62022" lon="1.79048">
        <ele>2327.01</ele>
        <time>2014-02-03T13:43:15Z</time>
      </trkpt>
      <trkpt lat="42.62023" lon="1.79048">
        <ele>2327.97</ele>
        <time>2014-02-03T13:43:26Z</time>
      </trkpt>
      <trkpt lat="42.62021" lon="1.79047">
        <ele>2326.53</ele>
        <time>2014-02-03T13:43:39Z</time>
      </trkpt>
      <trkpt lat="42.62021" lon="1.79048">
        <ele>2327.49</ele>
        <time>2014-02-03T13:43:52Z</time>
      </trkpt>
      <trkpt lat="42.62021" lon="1.79048">
        <ele>2327.49</ele>
        <time>2014-02-03T13:44:03Z</time>
      </trkpt>
      <trkpt lat="42.62019" lon="1.79047">
        <ele>2329.41</ele>
        <time>2014-02-03T13:44:14Z</time>
      </trkpt>
      <trkpt lat="42.62019" lon="1.79046">
        <ele>2329.89</ele>
        <time>2014-02-03T13:44:27Z</time>
      </trkpt>
      <trkpt lat="42.62018" lon="1.79045">
        <ele>2333.26</ele>
        <time>2014-02-03T13:44:41Z</time>
      </trkpt>
      <trkpt lat="42.62017" lon="1.79043">
        <ele>2333.74</ele>
        <time>2014-02-03T13:44:54Z</time>
      </trkpt>
      <trkpt lat="42.62016" lon="1.79043">
        <ele>2335.66</ele>
        <time>2014-02-03T13:45:05Z</time>
      </trkpt>
      <trkpt lat="42.62017" lon="1.79042">
        <ele>2336.62</ele>
        <time>2014-02-03T13:45:15Z</time>
      </trkpt>
      <trkpt lat="42.62015" lon="1.79041">
        <ele>2335.18</ele>
        <time>2014-02-03T13:45:25Z</time>
      </trkpt>
      <trkpt lat="42.62015" lon="1.7904">
        <ele>2335.66</ele>
        <time>2014-02-03T13:45:37Z</time>
      </trkpt>
      <trkpt lat="42.62015" lon="1.79039">
        <ele>2337.58</ele>
        <time>2014-02-03T13:45:49Z</time>
      </trkpt>
      <trkpt lat="42.62016" lon="1.79037">
        <ele>2338.06</ele>
        <time>2014-02-03T13:46:01Z</time>
      </trkpt>
      <trkpt lat="42.62015" lon="1.79034">
        <ele>2337.1</ele>
        <time>2014-02-03T13:46:12Z</time>
      </trkpt>
      <trkpt lat="42.62015" lon="1.79035">
        <ele>2338.54</ele>
        <time>2014-02-03T13:46:22Z</time>
      </trkpt>
      <trkpt lat="42.62015" lon="1.79035">
        <ele>2338.54</ele>
        <time>2014-02-03T13:46:33Z</time>
      </trkpt>
      <trkpt lat="42.62015" lon="1.79034">
        <ele>2337.1</ele>
        <time>2014-02-03T13:46:41Z</time>
      </trkpt>
      <trkpt lat="42.62015" lon="1.79035">
        <ele>2338.06</ele>
        <time>2014-02-03T13:46:55Z</time>
      </trkpt>
      <trkpt lat="42.62015" lon="1.79032">
        <ele>2337.1</ele>
        <time>2014-02-03T13:47:07Z</time>
      </trkpt>
      <trkpt lat="42.62016" lon="1.7903">
        <ele>2336.62</ele>
        <time>2014-02-03T13:47:19Z</time>
      </trkpt>
      <trkpt lat="42.62015" lon="1.79031">
        <ele>2336.14</ele>
        <time>2014-02-03T13:47:32Z</time>
      </trkpt>
      <trkpt lat="42.62016" lon="1.79028">
        <ele>2336.62</ele>
        <time>2014-02-03T13:47:41Z</time>
      </trkpt>
      <trkpt lat="42.62017" lon="1.79028">
        <ele>2338.06</ele>
        <time>2014-02-03T13:47:52Z</time>
      </trkpt>
      <trkpt lat="42.62017" lon="1.79027">
        <ele>2340.47</ele>
        <time>2014-02-03T13:48:05Z</time>
      </trkpt>
      <trkpt lat="42.62018" lon="1.79026">
        <ele>2339.51</ele>
        <time>2014-02-03T13:48:16Z</time>
      </trkpt>
      <trkpt lat="42.62018" lon="1.79025">
        <ele>2339.51</ele>
        <time>2014-02-03T13:48:24Z</time>
      </trkpt>
      <trkpt lat="42.62018" lon="1.79026">
        <ele>2339.99</ele>
        <time>2014-02-03T13:48:36Z</time>
      </trkpt>
      <trkpt lat="42.62019" lon="1.79026">
        <ele>2341.91</ele>
        <time>2014-02-03T13:48:51Z</time>
      </trkpt>
      <trkpt lat="42.62019" lon="1.79026">
        <ele>2341.43</ele>
        <time>2014-02-03T13:49:01Z</time>
      </trkpt>
      <trkpt lat="42.6202" lon="1.79026">
        <ele>2342.39</ele>
        <time>2014-02-03T13:49:18Z</time>
      </trkpt>
      <trkpt lat="42.62021" lon="1.79024">
        <ele>2341.43</ele>
        <time>2014-02-03T13:49:28Z</time>
      </trkpt>
      <trkpt lat="42.6202" lon="1.79022">
        <ele>2340.47</ele>
        <time>2014-02-03T13:49:39Z</time>
      </trkpt>
      <trkpt lat="42.62019" lon="1.79021">
        <ele>2339.02</ele>
        <time>2014-02-03T13:49:49Z</time>
      </trkpt>
      <trkpt lat="42.62021" lon="1.7902">
        <ele>2339.99</ele>
        <time>2014-02-03T13:50:00Z</time>
      </trkpt>
      <trkpt lat="42.62021" lon="1.79019">
        <ele>2339.99</ele>
        <time>2014-02-03T13:50:10Z</time>
      </trkpt>
      <trkpt lat="42.6202" lon="1.79018">
        <ele>2340.95</ele>
        <time>2014-02-03T13:50:24Z</time>
      </trkpt>
      <trkpt lat="42.6202" lon="1.79017">
        <ele>2340.47</ele>
        <time>2014-02-03T13:50:36Z</time>
      </trkpt>
      <trkpt lat="42.62019" lon="1.79016">
        <ele>2340.47</ele>
        <time>2014-02-03T13:50:48Z</time>
      </trkpt>
      <trkpt lat="42.62021" lon="1.79016">
        <ele>2342.87</ele>
        <time>2014-02-03T13:51:02Z</time>
      </trkpt>
      <trkpt lat="42.62022" lon="1.79015">
        <ele>2344.31</ele>
        <time>2014-02-03T13:51:14Z</time>
      </trkpt>
      <trkpt lat="42.62021" lon="1.79013">
        <ele>2343.83</ele>
        <time>2014-02-03T13:51:26Z</time>
      </trkpt>
      <trkpt lat="42.62022" lon="1.79012">
        <ele>2344.31</ele>
        <time>2014-02-03T13:51:37Z</time>
      </trkpt>
      <trkpt lat="42.62021" lon="1.79012">
        <ele>2345.27</ele>
        <time>2014-02-03T13:51:53Z</time>
      </trkpt>
      <trkpt lat="42.62021" lon="1.79011">
        <ele>2347.68</ele>
        <time>2014-02-03T13:52:07Z</time>
      </trkpt>
      <trkpt lat="42.62021" lon="1.79015">
        <ele>2343.35</ele>
        <time>2014-02-03T13:52:20Z</time>
      </trkpt>
      <trkpt lat="42.6202" lon="1.79018">
        <ele>2338.06</ele>
        <time>2014-02-03T13:52:32Z</time>
      </trkpt>
      <trkpt lat="42.6202" lon="1.79021">
        <ele>2336.62</ele>
        <time>2014-02-03T13:52:40Z</time>
      </trkpt>
      <trkpt lat="42.6202" lon="1.79021">
        <ele>2334.7</ele>
        <time>2014-02-03T13:52:52Z</time>
      </trkpt>
      <trkpt lat="42.6202" lon="1.79021">
        <ele>2335.18</ele>
        <time>2014-02-03T13:53:14Z</time>
      </trkpt>
      <trkpt lat="42.62019" lon="1.79022">
        <ele>2335.66</ele>
        <time>2014-02-03T13:53:38Z</time>
      </trkpt>
      <trkpt lat="42.62021" lon="1.79021">
        <ele>2339.02</ele>
        <time>2014-02-03T13:54:02Z</time>
      </trkpt>
      <trkpt lat="42.6202" lon="1.79024">
        <ele>2337.58</ele>
        <time>2014-02-03T13:54:23Z</time>
      </trkpt>
      <trkpt lat="42.62018" lon="1.79024">
        <ele>2336.62</ele>
        <time>2014-02-03T13:54:36Z</time>
      </trkpt>
      <trkpt lat="42.62018" lon="1.79023">
        <ele>2336.62</ele>
        <time>2014-02-03T13:54:48Z</time>
      </trkpt>
      <trkpt lat="42.62018" lon="1.79026">
        <ele>2334.22</ele>
        <time>2014-02-03T13:55:01Z</time>
      </trkpt>
      <trkpt lat="42.6202" lon="1.79024">
        <ele>2335.18</ele>
        <time>2014-02-03T13:55:19Z</time>
      </trkpt>
      <trkpt lat="42.62021" lon="1.79025">
        <ele>2339.99</ele>
        <time>2014-02-03T13:55:41Z</time>
      </trkpt>
      <trkpt lat="42.62023" lon="1.79026">
        <ele>2340.47</ele>
        <time>2014-02-03T13:56:06Z</time>
      </trkpt>
      <trkpt lat="42.62021" lon="1.79025">
        <ele>2339.51</ele>
        <time>2014-02-03T13:56:28Z</time>
      </trkpt>
      <trkpt lat="42.62019" lon="1.79025">
        <ele>2338.54</ele>
        <time>2014-02-03T13:56:53Z</time>
      </trkpt>
      <trkpt lat="42.62019" lon="1.79022">
        <ele>2341.43</ele>
        <time>2014-02-03T13:57:18Z</time>
      </trkpt>
      <trkpt lat="42.62019" lon="1.79024">
        <ele>2340.95</ele>
        <time>2014-02-03T13:57:46Z</time>
      </trkpt>
      <trkpt lat="42.62021" lon="1.79026">
        <ele>2339.02</ele>
        <time>2014-02-03T13:58:15Z</time>
      </trkpt>
      <trkpt lat="42.6202" lon="1.79025">
        <ele>2338.06</ele>
        <time>2014-02-03T13:58:27Z</time>
      </trkpt>
      <trkpt lat="42.62018" lon="1.79026">
        <ele>2336.62</ele>
        <time>2014-02-03T13:58:42Z</time>
      </trkpt>
      <trkpt lat="42.62018" lon="1.79024">
        <ele>2332.78</ele>
        <time>2014-02-03T13:58:59Z</time>
      </trkpt>
      <trkpt lat="42.62018" lon="1.79024">
        <ele>2333.26</ele>
        <time>2014-02-03T13:59:16Z</time>
      </trkpt>
      <trkpt lat="42.62019" lon="1.79023">
        <ele>2331.81</ele>
        <time>2014-02-03T13:59:28Z</time>
      </trkpt>
      <trkpt lat="42.62019" lon="1.79024">
        <ele>2333.74</ele>
        <time>2014-02-03T13:59:42Z</time>
      </trkpt>
      <trkpt lat="42.62019" lon="1.79026">
        <ele>2333.74</ele>
        <time>2014-02-03T13:59:52Z</time>
      </trkpt>
      <trkpt lat="42.62018" lon="1.7903">
        <ele>2331.81</ele>
        <time>2014-02-03T14:00:05Z</time>
      </trkpt>
      <trkpt lat="42.62017" lon="1.79031">
        <ele>2331.81</ele>
        <time>2014-02-03T14:00:06Z</time>
      </trkpt>
      <trkpt lat="42.62011" lon="1.79049">
        <ele>2326.53</ele>
        <time>2014-02-03T14:00:19Z</time>
      </trkpt>
      <trkpt lat="42.62006" lon="1.79064">
        <ele>2320.76</ele>
        <time>2014-02-03T14:00:29Z</time>
      </trkpt>
      <trkpt lat="42.62001" lon="1.79073">
        <ele>2317.88</ele>
        <time>2014-02-03T14:00:37Z</time>
      </trkpt>
      <trkpt lat="42.61991" lon="1.79094">
        <ele>2312.11</ele>
        <time>2014-02-03T14:00:49Z</time>
      </trkpt>
      <trkpt lat="42.6199" lon="1.79098">
        <ele>2310.67</ele>
        <time>2014-02-03T14:00:59Z</time>
      </trkpt>
      <trkpt lat="42.6199" lon="1.791">
        <ele>2309.7</ele>
        <time>2014-02-03T14:01:00Z</time>
      </trkpt>
      <trkpt lat="42.61992" lon="1.79103">
        <ele>2307.3</ele>
        <time>2014-02-03T14:01:02Z</time>
      </trkpt>
      <trkpt lat="42.62" lon="1.79115">
        <ele>2297.21</ele>
        <time>2014-02-03T14:01:09Z</time>
      </trkpt>
      <trkpt lat="42.62002" lon="1.79122">
        <ele>2289.52</ele>
        <time>2014-02-03T14:01:15Z</time>
      </trkpt>
      <trkpt lat="42.62009" lon="1.79139">
        <ele>2280.38</ele>
        <time>2014-02-03T14:01:21Z</time>
      </trkpt>
      <trkpt lat="42.62013" lon="1.79144">
        <ele>2273.66</ele>
        <time>2014-02-03T14:01:25Z</time>
      </trkpt>
      <trkpt lat="42.62021" lon="1.79152">
        <ele>2266.93</ele>
        <time>2014-02-03T14:01:31Z</time>
      </trkpt>
      <trkpt lat="42.62024" lon="1.7915">
        <ele>2265.96</ele>
        <time>2014-02-03T14:01:34Z</time>
      </trkpt>
      <trkpt lat="42.62027" lon="1.79149">
        <ele>2265.48</ele>
        <time>2014-02-03T14:01:36Z</time>
      </trkpt>
      <trkpt lat="42.62038" lon="1.79161">
        <ele>2258.75</ele>
        <time>2014-02-03T14:01:41Z</time>
      </trkpt>
      <trkpt lat="42.62042" lon="1.79178">
        <ele>2250.1</ele>
        <time>2014-02-03T14:01:46Z</time>
      </trkpt>
      <trkpt lat="42.62041" lon="1.79189">
        <ele>2245.3</ele>
        <time>2014-02-03T14:01:52Z</time>
      </trkpt>
      <trkpt lat="42.62042" lon="1.79189">
        <ele>2248.18</ele>
        <time>2014-02-03T14:02:08Z</time>
      </trkpt>
      <trkpt lat="42.6205" lon="1.79188">
        <ele>2248.18</ele>
        <time>2014-02-03T14:02:16Z</time>
      </trkpt>
      <trkpt lat="42.62059" lon="1.79195">
        <ele>2243.37</ele>
        <time>2014-02-03T14:02:19Z</time>
      </trkpt>
      <trkpt lat="42.62074" lon="1.79218">
        <ele>2230.88</ele>
        <time>2014-02-03T14:02:25Z</time>
      </trkpt>
      <trkpt lat="42.6208" lon="1.79235">
        <ele>2224.15</ele>
        <time>2014-02-03T14:02:30Z</time>
      </trkpt>
      <trkpt lat="42.62079" lon="1.79235">
        <ele>2225.59</ele>
        <time>2014-02-03T14:02:48Z</time>
      </trkpt>
      <trkpt lat="42.62079" lon="1.79233">
        <ele>2224.15</ele>
        <time>2014-02-03T14:03:05Z</time>
      </trkpt>
      <trkpt lat="42.6208" lon="1.79235">
        <ele>2224.63</ele>
        <time>2014-02-03T14:03:19Z</time>
      </trkpt>
      <trkpt lat="42.6208" lon="1.79235">
        <ele>2224.63</ele>
        <time>2014-02-03T14:03:25Z</time>
      </trkpt>
      <trkpt lat="42.62089" lon="1.79256">
        <ele>2219.82</ele>
        <time>2014-02-03T14:03:32Z</time>
      </trkpt>
      <trkpt lat="42.621" lon="1.7927">
        <ele>2209.73</ele>
        <time>2014-02-03T14:03:38Z</time>
      </trkpt>
      <trkpt lat="42.62105" lon="1.79262">
        <ele>2207.81</ele>
        <time>2014-02-03T14:03:40Z</time>
      </trkpt>
      <trkpt lat="42.62121" lon="1.79248">
        <ele>2204.44</ele>
        <time>2014-02-03T14:03:45Z</time>
      </trkpt>
      <trkpt lat="42.62123" lon="1.79249">
        <ele>2203.96</ele>
        <time>2014-02-03T14:03:48Z</time>
      </trkpt>
      <trkpt lat="42.62116" lon="1.79268">
        <ele>2202.52</ele>
        <time>2014-02-03T14:03:54Z</time>
      </trkpt>
      <trkpt lat="42.62111" lon="1.79308">
        <ele>2198.67</ele>
        <time>2014-02-03T14:04:00Z</time>
      </trkpt>
      <trkpt lat="42.62119" lon="1.79364">
        <ele>2193.39</ele>
        <time>2014-02-03T14:04:11Z</time>
      </trkpt>
      <trkpt lat="42.62126" lon="1.79383">
        <ele>2192.9</ele>
        <time>2014-02-03T14:04:18Z</time>
      </trkpt>
      <trkpt lat="42.62138" lon="1.79432">
        <ele>2189.54</ele>
        <time>2014-02-03T14:04:35Z</time>
      </trkpt>
      <trkpt lat="42.62144" lon="1.79467">
        <ele>2184.25</ele>
        <time>2014-02-03T14:04:40Z</time>
      </trkpt>
      <trkpt lat="42.62158" lon="1.79504">
        <ele>2179.93</ele>
        <time>2014-02-03T14:04:49Z</time>
      </trkpt>
      <trkpt lat="42.62175" lon="1.79504">
        <ele>2175.12</ele>
        <time>2014-02-03T14:04:54Z</time>
      </trkpt>
      <trkpt lat="42.62191" lon="1.79529">
        <ele>2167.91</ele>
        <time>2014-02-03T14:05:00Z</time>
      </trkpt>
      <trkpt lat="42.62191" lon="1.79533">
        <ele>2167.43</ele>
        <time>2014-02-03T14:05:10Z</time>
      </trkpt>
      <trkpt lat="42.62191" lon="1.79532">
        <ele>2166.47</ele>
        <time>2014-02-03T14:05:23Z</time>
      </trkpt>
      <trkpt lat="42.6219" lon="1.79534">
        <ele>2164.06</ele>
        <time>2014-02-03T14:05:39Z</time>
      </trkpt>
      <trkpt lat="42.62192" lon="1.79532">
        <ele>2165.51</ele>
        <time>2014-02-03T14:06:06Z</time>
      </trkpt>
      <trkpt lat="42.62191" lon="1.79533">
        <ele>2166.95</ele>
        <time>2014-02-03T14:06:31Z</time>
      </trkpt>
      <trkpt lat="42.62191" lon="1.79532">
        <ele>2166.47</ele>
        <time>2014-02-03T14:06:43Z</time>
      </trkpt>
      <trkpt lat="42.62192" lon="1.79532">
        <ele>2166.47</ele>
        <time>2014-02-03T14:06:58Z</time>
      </trkpt>
      <trkpt lat="42.62194" lon="1.79538">
        <ele>2166.47</ele>
        <time>2014-02-03T14:07:04Z</time>
      </trkpt>
      <trkpt lat="42.62206" lon="1.79552">
        <ele>2162.14</ele>
        <time>2014-02-03T14:07:08Z</time>
      </trkpt>
      <trkpt lat="42.62236" lon="1.79624">
        <ele>2152.05</ele>
        <time>2014-02-03T14:07:17Z</time>
      </trkpt>
      <trkpt lat="42.62238" lon="1.79629">
        <ele>2152.05</ele>
        <time>2014-02-03T14:07:18Z</time>
      </trkpt>
      <trkpt lat="42.62244" lon="1.79635">
        <ele>2153.01</ele>
        <time>2014-02-03T14:07:22Z</time>
      </trkpt>
      <trkpt lat="42.62257" lon="1.79664">
        <ele>2151.57</ele>
        <time>2014-02-03T14:07:34Z</time>
      </trkpt>
      <trkpt lat="42.62261" lon="1.79678">
        <ele>2151.09</ele>
        <time>2014-02-03T14:07:40Z</time>
      </trkpt>
      <trkpt lat="42.62287" lon="1.79708">
        <ele>2147.72</ele>
        <time>2014-02-03T14:07:50Z</time>
      </trkpt>
      <trkpt lat="42.62292" lon="1.79714">
        <ele>2147.72</ele>
        <time>2014-02-03T14:07:55Z</time>
      </trkpt>
      <trkpt lat="42.62299" lon="1.79715">
        <ele>2146.76</ele>
        <time>2014-02-03T14:08:05Z</time>
      </trkpt>
      <trkpt lat="42.62305" lon="1.79714">
        <ele>2145.8</ele>
        <time>2014-02-03T14:08:16Z</time>
      </trkpt>
      <trkpt lat="42.62313" lon="1.79707">
        <ele>2143.88</ele>
        <time>2014-02-03T14:08:20Z</time>
      </trkpt>
      <trkpt lat="42.62329" lon="1.79729">
        <ele>2130.9</ele>
        <time>2014-02-03T14:08:27Z</time>
      </trkpt>
      <trkpt lat="42.62329" lon="1.79733">
        <ele>2129.94</ele>
        <time>2014-02-03T14:08:29Z</time>
      </trkpt>
      <trkpt lat="42.62331" lon="1.79731">
        <ele>2130.42</ele>
        <time>2014-02-03T14:08:38Z</time>
      </trkpt>
      <trkpt lat="42.62333" lon="1.79731">
        <ele>2130.9</ele>
        <time>2014-02-03T14:08:46Z</time>
      </trkpt>
      <trkpt lat="42.62338" lon="1.79738">
        <ele>2129.94</ele>
        <time>2014-02-03T14:09:00Z</time>
      </trkpt>
      <trkpt lat="42.62341" lon="1.7974">
        <ele>2129.46</ele>
        <time>2014-02-03T14:09:02Z</time>
      </trkpt>
      <trkpt lat="42.6235" lon="1.79749">
        <ele>2124.65</ele>
        <time>2014-02-03T14:09:10Z</time>
      </trkpt>
      <trkpt lat="42.62352" lon="1.79749">
        <ele>2122.73</ele>
        <time>2014-02-03T14:09:22Z</time>
      </trkpt>
      <trkpt lat="42.62353" lon="1.79752">
        <ele>2123.21</ele>
        <time>2014-02-03T14:09:25Z</time>
      </trkpt>
      <trkpt lat="42.62369" lon="1.79762">
        <ele>2117.44</ele>
        <time>2014-02-03T14:09:32Z</time>
      </trkpt>
      <trkpt lat="42.6237" lon="1.79762">
        <ele>2116.48</ele>
        <time>2014-02-03T14:09:33Z</time>
      </trkpt>
      <trkpt lat="42.62381" lon="1.7976">
        <ele>2108.79</ele>
        <time>2014-02-03T14:09:38Z</time>
      </trkpt>
      <trkpt lat="42.62385" lon="1.79758">
        <ele>2108.31</ele>
        <time>2014-02-03T14:09:39Z</time>
      </trkpt>
      <trkpt lat="42.62392" lon="1.79757">
        <ele>2107.35</ele>
        <time>2014-02-03T14:09:46Z</time>
      </trkpt>
      <trkpt lat="42.62392" lon="1.79755">
        <ele>2110.71</ele>
        <time>2014-02-03T14:10:02Z</time>
      </trkpt>
      <trkpt lat="42.62393" lon="1.79753">
        <ele>2113.12</ele>
        <time>2014-02-03T14:10:16Z</time>
      </trkpt>
      <trkpt lat="42.624" lon="1.79753">
        <ele>2112.15</ele>
        <time>2014-02-03T14:10:22Z</time>
      </trkpt>
      <trkpt lat="42.62427" lon="1.79744">
        <ele>2103.98</ele>
        <time>2014-02-03T14:10:29Z</time>
      </trkpt>
      <trkpt lat="42.62453" lon="1.79737">
        <ele>2093.89</ele>
        <time>2014-02-03T14:10:35Z</time>
      </trkpt>
      <trkpt lat="42.62476" lon="1.7973">
        <ele>2088.12</ele>
        <time>2014-02-03T14:10:41Z</time>
      </trkpt>
      <trkpt lat="42.62479" lon="1.79728">
        <ele>2087.16</ele>
        <time>2014-02-03T14:10:42Z</time>
      </trkpt>
      <trkpt lat="42.62487" lon="1.79722">
        <ele>2082.35</ele>
        <time>2014-02-03T14:10:45Z</time>
      </trkpt>
      <trkpt lat="42.62504" lon="1.79712">
        <ele>2070.82</ele>
        <time>2014-02-03T14:10:51Z</time>
      </trkpt>
      <trkpt lat="42.62501" lon="1.79712">
        <ele>2064.57</ele>
        <time>2014-02-03T14:11:12Z</time>
      </trkpt>
      <trkpt lat="42.62501" lon="1.79713">
        <ele>2065.05</ele>
        <time>2014-02-03T14:11:29Z</time>
      </trkpt>
      <trkpt lat="42.62501" lon="1.79713">
        <ele>2064.57</ele>
        <time>2014-02-03T14:11:41Z</time>
      </trkpt>
      <trkpt lat="42.6251" lon="1.79722">
        <ele>2062.65</ele>
        <time>2014-02-03T14:11:46Z</time>
      </trkpt>
      <trkpt lat="42.62537" lon="1.79739">
        <ele>2052.55</ele>
        <time>2014-02-03T14:11:53Z</time>
      </trkpt>
      <trkpt lat="42.62552" lon="1.79745">
        <ele>2043.42</ele>
        <time>2014-02-03T14:11:58Z</time>
      </trkpt>
      <trkpt lat="42.62567" lon="1.79767">
        <ele>2033.81</ele>
        <time>2014-02-03T14:12:03Z</time>
      </trkpt>
      <trkpt lat="42.62593" lon="1.79814">
        <ele>2021.79</ele>
        <time>2014-02-03T14:12:11Z</time>
      </trkpt>
      <trkpt lat="42.62595" lon="1.79818">
        <ele>2020.83</ele>
        <time>2014-02-03T14:12:12Z</time>
      </trkpt>
      <trkpt lat="42.62601" lon="1.79827">
        <ele>2018.43</ele>
        <time>2014-02-03T14:12:14Z</time>
      </trkpt>
      <trkpt lat="42.62608" lon="1.7984">
        <ele>2015.06</ele>
        <time>2014-02-03T14:12:16Z</time>
      </trkpt>
      <trkpt lat="42.62632" lon="1.79875">
        <ele>2007.85</ele>
        <time>2014-02-03T14:12:26Z</time>
      </trkpt>
      <trkpt lat="42.62635" lon="1.79878">
        <ele>2007.37</ele>
        <time>2014-02-03T14:12:34Z</time>
      </trkpt>
      <trkpt lat="42.62635" lon="1.79878">
        <ele>2007.37</ele>
        <time>2014-02-03T14:12:35Z</time>
      </trkpt>
      <trkpt lat="42.62638" lon="1.79878">
        <ele>2007.37</ele>
        <time>2014-02-03T14:12:40Z</time>
      </trkpt>
      <trkpt lat="42.62641" lon="1.79879">
        <ele>2007.37</ele>
        <time>2014-02-03T14:12:44Z</time>
      </trkpt>
      <trkpt lat="42.62648" lon="1.79883">
        <ele>2007.37</ele>
        <time>2014-02-03T14:12:48Z</time>
      </trkpt>
      <trkpt lat="42.62664" lon="1.79888">
        <ele>2009.29</ele>
        <time>2014-02-03T14:12:58Z</time>
      </trkpt>
      <trkpt lat="42.6269" lon="1.79895">
        <ele>2007.85</ele>
        <time>2014-02-03T14:13:11Z</time>
      </trkpt>
      <trkpt lat="42.62696" lon="1.79898">
        <ele>2007.37</ele>
        <time>2014-02-03T14:13:13Z</time>
      </trkpt>
      <trkpt lat="42.62736" lon="1.79925">
        <ele>2000.64</ele>
        <time>2014-02-03T14:13:25Z</time>
      </trkpt>
      <trkpt lat="42.62747" lon="1.7993">
        <ele>1998.24</ele>
        <time>2014-02-03T14:13:32Z</time>
      </trkpt>
      <trkpt lat="42.62759" lon="1.79932">
        <ele>1997.28</ele>
        <time>2014-02-03T14:13:40Z</time>
      </trkpt>
      <trkpt lat="42.62763" lon="1.79932">
        <ele>1996.8</ele>
        <time>2014-02-03T14:13:43Z</time>
      </trkpt>
      <trkpt lat="42.62766" lon="1.79932">
        <ele>1996.32</ele>
        <time>2014-02-03T14:13:47Z</time>
      </trkpt>
      <trkpt lat="42.62776" lon="1.79932">
        <ele>1996.8</ele>
        <time>2014-02-03T14:13:59Z</time>
      </trkpt>
      <trkpt lat="42.62786" lon="1.79932">
        <ele>1995.83</ele>
        <time>2014-02-03T14:14:08Z</time>
      </trkpt>
      <trkpt lat="42.6279" lon="1.79931">
        <ele>1996.32</ele>
        <time>2014-02-03T14:14:14Z</time>
      </trkpt>
      <trkpt lat="42.62796" lon="1.79931">
        <ele>1996.8</ele>
        <time>2014-02-03T14:14:23Z</time>
      </trkpt>
      <trkpt lat="42.62801" lon="1.7993">
        <ele>1997.28</ele>
        <time>2014-02-03T14:14:32Z</time>
      </trkpt>
      <trkpt lat="42.62807" lon="1.79928">
        <ele>1996.32</ele>
        <time>2014-02-03T14:14:41Z</time>
      </trkpt>
      <trkpt lat="42.6281" lon="1.79927">
        <ele>1996.32</ele>
        <time>2014-02-03T14:14:50Z</time>
      </trkpt>
      <trkpt lat="42.62813" lon="1.79925">
        <ele>1997.28</ele>
        <time>2014-02-03T14:14:55Z</time>
      </trkpt>
      <trkpt lat="42.62817" lon="1.79924">
        <ele>1997.28</ele>
        <time>2014-02-03T14:15:04Z</time>
      </trkpt>
      <trkpt lat="42.62818" lon="1.79923">
        <ele>1998.24</ele>
        <time>2014-02-03T14:15:07Z</time>
      </trkpt>
      <trkpt lat="42.62822" lon="1.79923">
        <ele>1999.2</ele>
        <time>2014-02-03T14:15:15Z</time>
      </trkpt>
      <trkpt lat="42.62823" lon="1.79922">
        <ele>1998.72</ele>
        <time>2014-02-03T14:15:20Z</time>
      </trkpt>
      <trkpt lat="42.62828" lon="1.79921">
        <ele>2000.16</ele>
        <time>2014-02-03T14:15:28Z</time>
      </trkpt>
      <trkpt lat="42.62826" lon="1.79923">
        <ele>2001.12</ele>
        <time>2014-02-03T14:15:45Z</time>
      </trkpt>
      <trkpt lat="42.62828" lon="1.79921">
        <ele>1999.68</ele>
        <time>2014-02-03T14:15:50Z</time>
      </trkpt>
      <trkpt lat="42.62829" lon="1.79922">
        <ele>1999.68</ele>
        <time>2014-02-03T14:15:54Z</time>
      </trkpt>
      <trkpt lat="42.62844" lon="1.79924">
        <ele>1997.76</ele>
        <time>2014-02-03T14:16:02Z</time>
      </trkpt>
      <trkpt lat="42.62851" lon="1.79921">
        <ele>1996.32</ele>
        <time>2014-02-03T14:16:06Z</time>
      </trkpt>
      <trkpt lat="42.62861" lon="1.79919">
        <ele>1994.39</ele>
        <time>2014-02-03T14:16:09Z</time>
      </trkpt>
      <trkpt lat="42.62864" lon="1.79911">
        <ele>1991.51</ele>
        <time>2014-02-03T14:16:11Z</time>
      </trkpt>
      <trkpt lat="42.62883" lon="1.79897">
        <ele>1982.86</ele>
        <time>2014-02-03T14:16:17Z</time>
      </trkpt>
      <trkpt lat="42.62894" lon="1.79877">
        <ele>1975.17</ele>
        <time>2014-02-03T14:16:22Z</time>
      </trkpt>
      <trkpt lat="42.629" lon="1.79878">
        <ele>1973.24</ele>
        <time>2014-02-03T14:16:29Z</time>
      </trkpt>
      <trkpt lat="42.62901" lon="1.7988">
        <ele>1972.28</ele>
        <time>2014-02-03T14:16:43Z</time>
      </trkpt>
      <trkpt lat="42.629" lon="1.79881">
        <ele>1972.28</ele>
        <time>2014-02-03T14:17:02Z</time>
      </trkpt>
      <trkpt lat="42.62902" lon="1.79881">
        <ele>1971.32</ele>
        <time>2014-02-03T14:17:17Z</time>
      </trkpt>
      <trkpt lat="42.62914" lon="1.79874">
        <ele>1968.92</ele>
        <time>2014-02-03T14:17:22Z</time>
      </trkpt>
      <trkpt lat="42.62921" lon="1.79873">
        <ele>1966.99</ele>
        <time>2014-02-03T14:17:24Z</time>
      </trkpt>
      <trkpt lat="42.62926" lon="1.79856">
        <ele>1960.75</ele>
        <time>2014-02-03T14:17:28Z</time>
      </trkpt>
      <trkpt lat="42.62934" lon="1.79841">
        <ele>1951.13</ele>
        <time>2014-02-03T14:17:36Z</time>
      </trkpt>
      <trkpt lat="42.62933" lon="1.79842">
        <ele>1950.17</ele>
        <time>2014-02-03T14:17:48Z</time>
      </trkpt>
      <trkpt lat="42.62935" lon="1.79842">
        <ele>1950.17</ele>
        <time>2014-02-03T14:17:58Z</time>
      </trkpt>
      <trkpt lat="42.62936" lon="1.7984">
        <ele>1951.61</ele>
        <time>2014-02-03T14:18:14Z</time>
      </trkpt>
      <trkpt lat="42.62935" lon="1.79809">
        <ele>1944.88</ele>
        <time>2014-02-03T14:18:22Z</time>
      </trkpt>
      <trkpt lat="42.62946" lon="1.79779">
        <ele>1942</ele>
        <time>2014-02-03T14:18:31Z</time>
      </trkpt>
      <trkpt lat="42.62966" lon="1.79763">
        <ele>1938.16</ele>
        <time>2014-02-03T14:18:38Z</time>
      </trkpt>
      <trkpt lat="42.62967" lon="1.79757">
        <ele>1937.19</ele>
        <time>2014-02-03T14:18:46Z</time>
      </trkpt>
      <trkpt lat="42.62967" lon="1.79757">
        <ele>1936.71</ele>
        <time>2014-02-03T14:19:00Z</time>
      </trkpt>
      <trkpt lat="42.62967" lon="1.79757">
        <ele>1937.19</ele>
        <time>2014-02-03T14:19:02Z</time>
      </trkpt>
      <trkpt lat="42.6297" lon="1.79758">
        <ele>1936.71</ele>
        <time>2014-02-03T14:19:06Z</time>
      </trkpt>
      <trkpt lat="42.6299" lon="1.79748">
        <ele>1930.46</ele>
        <time>2014-02-03T14:19:13Z</time>
      </trkpt>
      <trkpt lat="42.63006" lon="1.79737">
        <ele>1925.18</ele>
        <time>2014-02-03T14:19:18Z</time>
      </trkpt>
      <trkpt lat="42.63024" lon="1.79739">
        <ele>1917.97</ele>
        <time>2014-02-03T14:19:24Z</time>
      </trkpt>
      <trkpt lat="42.63027" lon="1.7974">
        <ele>1917.01</ele>
        <time>2014-02-03T14:19:25Z</time>
      </trkpt>
      <trkpt lat="42.63035" lon="1.79745">
        <ele>1915.08</ele>
        <time>2014-02-03T14:19:27Z</time>
      </trkpt>
      <trkpt lat="42.63073" lon="1.79775">
        <ele>1907.87</ele>
        <time>2014-02-03T14:19:36Z</time>
      </trkpt>
      <trkpt lat="42.63105" lon="1.79772">
        <ele>1904.99</ele>
        <time>2014-02-03T14:19:47Z</time>
      </trkpt>
      <trkpt lat="42.63109" lon="1.79773">
        <ele>1904.03</ele>
        <time>2014-02-03T14:19:56Z</time>
      </trkpt>
      <trkpt lat="42.63109" lon="1.79771">
        <ele>1902.59</ele>
        <time>2014-02-03T14:20:02Z</time>
      </trkpt>
      <trkpt lat="42.63108" lon="1.79762">
        <ele>1900.66</ele>
        <time>2014-02-03T14:20:06Z</time>
      </trkpt>
      <trkpt lat="42.63112" lon="1.79732">
        <ele>1894.42</ele>
        <time>2014-02-03T14:20:12Z</time>
      </trkpt>
      <trkpt lat="42.63113" lon="1.79734">
        <ele>1894.42</ele>
        <time>2014-02-03T14:20:17Z</time>
      </trkpt>
      <trkpt lat="42.63122" lon="1.79736">
        <ele>1894.42</ele>
        <time>2014-02-03T14:20:26Z</time>
      </trkpt>
      <trkpt lat="42.63123" lon="1.79737">
        <ele>1894.9</ele>
        <time>2014-02-03T14:20:31Z</time>
      </trkpt>
      <trkpt lat="42.63129" lon="1.79736">
        <ele>1893.93</ele>
        <time>2014-02-03T14:20:37Z</time>
      </trkpt>
      <trkpt lat="42.6313" lon="1.79738">
        <ele>1892.49</ele>
        <time>2014-02-03T14:20:47Z</time>
      </trkpt>
      <trkpt lat="42.63142" lon="1.79743">
        <ele>1884.32</ele>
        <time>2014-02-03T14:20:54Z</time>
      </trkpt>
      <trkpt lat="42.63148" lon="1.79747">
        <ele>1878.55</ele>
        <time>2014-02-03T14:20:58Z</time>
      </trkpt>
      <trkpt lat="42.63152" lon="1.79734">
        <ele>1874.23</ele>
        <time>2014-02-03T14:21:03Z</time>
      </trkpt>
      <trkpt lat="42.63161" lon="1.79731">
        <ele>1867.98</ele>
        <time>2014-02-03T14:21:10Z</time>
      </trkpt>
      <trkpt lat="42.63164" lon="1.79731">
        <ele>1867.98</ele>
        <time>2014-02-03T14:21:24Z</time>
      </trkpt>
      <trkpt lat="42.63164" lon="1.79729">
        <ele>1867.02</ele>
        <time>2014-02-03T14:21:36Z</time>
      </trkpt>
      <trkpt lat="42.63165" lon="1.79729">
        <ele>1867.02</ele>
        <time>2014-02-03T14:21:51Z</time>
      </trkpt>
      <trkpt lat="42.63165" lon="1.79727">
        <ele>1867.5</ele>
        <time>2014-02-03T14:22:05Z</time>
      </trkpt>
      <trkpt lat="42.63164" lon="1.79727">
        <ele>1866.54</ele>
        <time>2014-02-03T14:22:18Z</time>
      </trkpt>
      <trkpt lat="42.63164" lon="1.79728">
        <ele>1868.46</ele>
        <time>2014-02-03T14:22:30Z</time>
      </trkpt>
      <trkpt lat="42.63164" lon="1.79728">
        <ele>1867.5</ele>
        <time>2014-02-03T14:22:45Z</time>
      </trkpt>
      <trkpt lat="42.63166" lon="1.79728">
        <ele>1867.5</ele>
        <time>2014-02-03T14:22:56Z</time>
      </trkpt>
      <trkpt lat="42.63169" lon="1.79732">
        <ele>1867.5</ele>
        <time>2014-02-03T14:23:01Z</time>
      </trkpt>
      <trkpt lat="42.63169" lon="1.79736">
        <ele>1868.46</ele>
        <time>2014-02-03T14:23:13Z</time>
      </trkpt>
      <trkpt lat="42.6317" lon="1.79736">
        <ele>1868.94</ele>
        <time>2014-02-03T14:23:20Z</time>
      </trkpt>
      <trkpt lat="42.63179" lon="1.79742">
        <ele>1863.65</ele>
        <time>2014-02-03T14:23:27Z</time>
      </trkpt>
      <trkpt lat="42.63188" lon="1.79759">
        <ele>1856.92</ele>
        <time>2014-02-03T14:23:34Z</time>
      </trkpt>
      <trkpt lat="42.63205" lon="1.79757">
        <ele>1847.31</ele>
        <time>2014-02-03T14:23:39Z</time>
      </trkpt>
      <trkpt lat="42.63214" lon="1.79751">
        <ele>1843.95</ele>
        <time>2014-02-03T14:23:41Z</time>
      </trkpt>
      <trkpt lat="42.63225" lon="1.79745">
        <ele>1841.54</ele>
        <time>2014-02-03T14:23:43Z</time>
      </trkpt>
      <trkpt lat="42.63227" lon="1.79741">
        <ele>1839.62</ele>
        <time>2014-02-03T14:23:49Z</time>
      </trkpt>
      <trkpt lat="42.63235" lon="1.79727">
        <ele>1838.18</ele>
        <time>2014-02-03T14:23:57Z</time>
      </trkpt>
      <trkpt lat="42.63237" lon="1.79717">
        <ele>1835.77</ele>
        <time>2014-02-03T14:24:06Z</time>
      </trkpt>
      <trkpt lat="42.63236" lon="1.79716">
        <ele>1834.81</ele>
        <time>2014-02-03T14:24:22Z</time>
      </trkpt>
      <trkpt lat="42.63237" lon="1.79716">
        <ele>1835.29</ele>
        <time>2014-02-03T14:24:39Z</time>
      </trkpt>
      <trkpt lat="42.63238" lon="1.79716">
        <ele>1836.74</ele>
        <time>2014-02-03T14:24:56Z</time>
      </trkpt>
      <trkpt lat="42.63238" lon="1.79716">
        <ele>1836.26</ele>
        <time>2014-02-03T14:25:12Z</time>
      </trkpt>
      <trkpt lat="42.63237" lon="1.79717">
        <ele>1835.29</ele>
        <time>2014-02-03T14:25:29Z</time>
      </trkpt>
      <trkpt lat="42.63238" lon="1.79718">
        <ele>1836.26</ele>
        <time>2014-02-03T14:25:48Z</time>
      </trkpt>
      <trkpt lat="42.63237" lon="1.79717">
        <ele>1834.81</ele>
        <time>2014-02-03T14:26:12Z</time>
      </trkpt>
      <trkpt lat="42.63237" lon="1.79716">
        <ele>1835.29</ele>
        <time>2014-02-03T14:26:34Z</time>
      </trkpt>
      <trkpt lat="42.63237" lon="1.79716">
        <ele>1834.81</ele>
        <time>2014-02-03T14:26:50Z</time>
      </trkpt>
      <trkpt lat="42.63238" lon="1.79714">
        <ele>1834.33</ele>
        <time>2014-02-03T14:26:52Z</time>
      </trkpt>
      <trkpt lat="42.63239" lon="1.79707">
        <ele>1833.37</ele>
        <time>2014-02-03T14:26:55Z</time>
      </trkpt>
      <trkpt lat="42.63249" lon="1.79688">
        <ele>1826.64</ele>
        <time>2014-02-03T14:27:01Z</time>
      </trkpt>
      <trkpt lat="42.63255" lon="1.79682">
        <ele>1822.8</ele>
        <time>2014-02-03T14:27:06Z</time>
      </trkpt>
      <trkpt lat="42.6326" lon="1.79684">
        <ele>1823.76</ele>
        <time>2014-02-03T14:27:14Z</time>
      </trkpt>
      <trkpt lat="42.63262" lon="1.79676">
        <ele>1821.84</ele>
        <time>2014-02-03T14:27:19Z</time>
      </trkpt>
      <trkpt lat="42.6326" lon="1.79673">
        <ele>1820.39</ele>
        <time>2014-02-03T14:27:21Z</time>
      </trkpt>
      <trkpt lat="42.63267" lon="1.79661">
        <ele>1814.15</ele>
        <time>2014-02-03T14:27:27Z</time>
      </trkpt>
      <trkpt lat="42.63273" lon="1.79649">
        <ele>1808.86</ele>
        <time>2014-02-03T14:27:31Z</time>
      </trkpt>
      <trkpt lat="42.6327" lon="1.79641">
        <ele>1806.45</ele>
        <time>2014-02-03T14:27:33Z</time>
      </trkpt>
      <trkpt lat="42.63268" lon="1.79637">
        <ele>1805.49</ele>
        <time>2014-02-03T14:27:34Z</time>
      </trkpt>
      <trkpt lat="42.63267" lon="1.79635">
        <ele>1804.05</ele>
        <time>2014-02-03T14:27:41Z</time>
      </trkpt>
      <trkpt lat="42.63267" lon="1.79632">
        <ele>1803.57</ele>
        <time>2014-02-03T14:27:52Z</time>
      </trkpt>
      <trkpt lat="42.63265" lon="1.79631">
        <ele>1803.09</ele>
        <time>2014-02-03T14:28:12Z</time>
      </trkpt>
      <trkpt lat="42.63265" lon="1.79631">
        <ele>1803.09</ele>
        <time>2014-02-03T14:28:15Z</time>
      </trkpt>
      <trkpt lat="42.63268" lon="1.79629">
        <ele>1802.13</ele>
        <time>2014-02-03T14:28:17Z</time>
      </trkpt>
      <trkpt lat="42.63271" lon="1.79628">
        <ele>1801.65</ele>
        <time>2014-02-03T14:28:18Z</time>
      </trkpt>
      <trkpt lat="42.63275" lon="1.79628">
        <ele>1800.69</ele>
        <time>2014-02-03T14:28:19Z</time>
      </trkpt>
      <trkpt lat="42.63279" lon="1.79628">
        <ele>1799.24</ele>
        <time>2014-02-03T14:28:20Z</time>
      </trkpt>
      <trkpt lat="42.63284" lon="1.79621">
        <ele>1797.8</ele>
        <time>2014-02-03T14:28:22Z</time>
      </trkpt>
      <trkpt lat="42.63282" lon="1.79618">
        <ele>1796.84</ele>
        <time>2014-02-03T14:28:23Z</time>
      </trkpt>
      <trkpt lat="42.6328" lon="1.79615">
        <ele>1796.84</ele>
        <time>2014-02-03T14:28:24Z</time>
      </trkpt>
      <trkpt lat="42.63279" lon="1.79612">
        <ele>1796.36</ele>
        <time>2014-02-03T14:28:25Z</time>
      </trkpt>
      <trkpt lat="42.63276" lon="1.79608">
        <ele>1794.92</ele>
        <time>2014-02-03T14:28:34Z</time>
      </trkpt>
      <trkpt lat="42.63276" lon="1.79605">
        <ele>1794.44</ele>
        <time>2014-02-03T14:28:37Z</time>
      </trkpt>
      <trkpt lat="42.63275" lon="1.79599">
        <ele>1793.48</ele>
        <time>2014-02-03T14:28:39Z</time>
      </trkpt>
      <trkpt lat="42.63275" lon="1.79595">
        <ele>1792.52</ele>
        <time>2014-02-03T14:28:40Z</time>
      </trkpt>
      <trkpt lat="42.63277" lon="1.79591">
        <ele>1791.55</ele>
        <time>2014-02-03T14:28:41Z</time>
      </trkpt>
      <trkpt lat="42.63278" lon="1.79585">
        <ele>1790.11</ele>
        <time>2014-02-03T14:28:42Z</time>
      </trkpt>
      <trkpt lat="42.63279" lon="1.7958">
        <ele>1788.19</ele>
        <time>2014-02-03T14:28:43Z</time>
      </trkpt>
      <trkpt lat="42.6328" lon="1.79574">
        <ele>1786.27</ele>
        <time>2014-02-03T14:28:44Z</time>
      </trkpt>
      <trkpt lat="42.63279" lon="1.7957">
        <ele>1785.31</ele>
        <time>2014-02-03T14:28:45Z</time>
      </trkpt>
      <trkpt lat="42.6328" lon="1.79566">
        <ele>1783.86</ele>
        <time>2014-02-03T14:28:46Z</time>
      </trkpt>
      <trkpt lat="42.63284" lon="1.79562">
        <ele>1781.94</ele>
        <time>2014-02-03T14:28:48Z</time>
      </trkpt>
      <trkpt lat="42.63288" lon="1.79557">
        <ele>1780.02</ele>
        <time>2014-02-03T14:28:50Z</time>
      </trkpt>
      <trkpt lat="42.6329" lon="1.79555">
        <ele>1778.1</ele>
        <time>2014-02-03T14:28:51Z</time>
      </trkpt>
      <trkpt lat="42.63294" lon="1.79548">
        <ele>1774.25</ele>
        <time>2014-02-03T14:28:53Z</time>
      </trkpt>
      <trkpt lat="42.63295" lon="1.79545">
        <ele>1772.81</ele>
        <time>2014-02-03T14:28:54Z</time>
      </trkpt>
      <trkpt lat="42.63295" lon="1.79541">
        <ele>1771.37</ele>
        <time>2014-02-03T14:28:55Z</time>
      </trkpt>
      <trkpt lat="42.63298" lon="1.79526">
        <ele>1768</ele>
        <time>2014-02-03T14:28:58Z</time>
      </trkpt>
      <trkpt lat="42.63301" lon="1.79522">
        <ele>1767.04</ele>
        <time>2014-02-03T14:28:59Z</time>
      </trkpt>
      <trkpt lat="42.63304" lon="1.7952">
        <ele>1766.08</ele>
        <time>2014-02-03T14:29:00Z</time>
      </trkpt>
      <trkpt lat="42.63305" lon="1.79517">
        <ele>1765.6</ele>
        <time>2014-02-03T14:29:01Z</time>
      </trkpt>
      <trkpt lat="42.63304" lon="1.79514">
        <ele>1764.64</ele>
        <time>2014-02-03T14:29:02Z</time>
      </trkpt>
      <trkpt lat="42.63302" lon="1.79511">
        <ele>1764.16</ele>
        <time>2014-02-03T14:29:03Z</time>
      </trkpt>
      <trkpt lat="42.63303" lon="1.79508">
        <ele>1763.68</ele>
        <time>2014-02-03T14:29:04Z</time>
      </trkpt>
      <trkpt lat="42.63306" lon="1.79505">
        <ele>1762.71</ele>
        <time>2014-02-03T14:29:05Z</time>
      </trkpt>
      <trkpt lat="42.63309" lon="1.79503">
        <ele>1762.71</ele>
        <time>2014-02-03T14:29:06Z</time>
      </trkpt>
      <trkpt lat="42.63311" lon="1.795">
        <ele>1761.75</ele>
        <time>2014-02-03T14:29:07Z</time>
      </trkpt>
      <trkpt lat="42.63313" lon="1.79495">
        <ele>1760.79</ele>
        <time>2014-02-03T14:29:08Z</time>
      </trkpt>
      <trkpt lat="42.63315" lon="1.79487">
        <ele>1758.39</ele>
        <time>2014-02-03T14:29:10Z</time>
      </trkpt>
      <trkpt lat="42.63312" lon="1.79483">
        <ele>1756.95</ele>
        <time>2014-02-03T14:29:11Z</time>
      </trkpt>
      <trkpt lat="42.6331" lon="1.79478">
        <ele>1755.5</ele>
        <time>2014-02-03T14:29:12Z</time>
      </trkpt>
      <trkpt lat="42.63311" lon="1.79474">
        <ele>1754.06</ele>
        <time>2014-02-03T14:29:13Z</time>
      </trkpt>
      <trkpt lat="42.63312" lon="1.79471">
        <ele>1752.62</ele>
        <time>2014-02-03T14:29:14Z</time>
      </trkpt>
      <trkpt lat="42.63312" lon="1.79467">
        <ele>1750.7</ele>
        <time>2014-02-03T14:29:15Z</time>
      </trkpt>
      <trkpt lat="42.63313" lon="1.79464">
        <ele>1749.26</ele>
        <time>2014-02-03T14:29:16Z</time>
      </trkpt>
      <trkpt lat="42.63314" lon="1.79459">
        <ele>1747.33</ele>
        <time>2014-02-03T14:29:17Z</time>
      </trkpt>
      <trkpt lat="42.63315" lon="1.79453">
        <ele>1745.41</ele>
        <time>2014-02-03T14:29:18Z</time>
      </trkpt>
      <trkpt lat="42.63318" lon="1.79448">
        <ele>1743.49</ele>
        <time>2014-02-03T14:29:19Z</time>
      </trkpt>
      <trkpt lat="42.63322" lon="1.79445">
        <ele>1742.05</ele>
        <time>2014-02-03T14:29:20Z</time>
      </trkpt>
      <trkpt lat="42.63326" lon="1.79442">
        <ele>1741.08</ele>
        <time>2014-02-03T14:29:21Z</time>
      </trkpt>
      <trkpt lat="42.6333" lon="1.7944">
        <ele>1740.6</ele>
        <time>2014-02-03T14:29:22Z</time>
      </trkpt>
      <trkpt lat="42.63343" lon="1.79428">
        <ele>1738.68</ele>
        <time>2014-02-03T14:29:28Z</time>
      </trkpt>
      <trkpt lat="42.63347" lon="1.79428">
        <ele>1740.12</ele>
        <time>2014-02-03T14:29:34Z</time>
      </trkpt>
      <trkpt lat="42.63364" lon="1.79425">
        <ele>1737.24</ele>
        <time>2014-02-03T14:29:43Z</time>
      </trkpt>
      <trkpt lat="42.63366" lon="1.79424">
        <ele>1736.76</ele>
        <time>2014-02-03T14:29:44Z</time>
      </trkpt>
      <trkpt lat="42.63371" lon="1.79423">
        <ele>1735.8</ele>
        <time>2014-02-03T14:29:47Z</time>
      </trkpt>
      <trkpt lat="42.63368" lon="1.79412">
        <ele>1732.91</ele>
        <time>2014-02-03T14:29:53Z</time>
      </trkpt>
      <trkpt lat="42.63379" lon="1.79405">
        <ele>1729.55</ele>
        <time>2014-02-03T14:29:58Z</time>
      </trkpt>
      <trkpt lat="42.63385" lon="1.79404">
        <ele>1728.59</ele>
        <time>2014-02-03T14:30:01Z</time>
      </trkpt>
      <trkpt lat="42.63392" lon="1.79403">
        <ele>1726.67</ele>
        <time>2014-02-03T14:30:11Z</time>
      </trkpt>
      <trkpt lat="42.63393" lon="1.79401">
        <ele>1726.18</ele>
        <time>2014-02-03T14:30:26Z</time>
      </trkpt>
      <trkpt lat="42.63394" lon="1.794">
        <ele>1727.15</ele>
        <time>2014-02-03T14:30:44Z</time>
      </trkpt>
      <trkpt lat="42.63394" lon="1.79399">
        <ele>1728.11</ele>
        <time>2014-02-03T14:30:55Z</time>
      </trkpt>
      <trkpt lat="42.63394" lon="1.794">
        <ele>1728.59</ele>
        <time>2014-02-03T14:31:11Z</time>
      </trkpt>
      <trkpt lat="42.63396" lon="1.79401">
        <ele>1728.59</ele>
        <time>2014-02-03T14:31:39Z</time>
      </trkpt>
      <trkpt lat="42.63406" lon="1.79397">
        <ele>1726.67</ele>
        <time>2014-02-03T14:31:45Z</time>
      </trkpt>
      <trkpt lat="42.63436" lon="1.79371">
        <ele>1723.78</ele>
        <time>2014-02-03T14:31:56Z</time>
      </trkpt>
      <trkpt lat="42.63439" lon="1.79359">
        <ele>1722.34</ele>
        <time>2014-02-03T14:32:01Z</time>
      </trkpt>
      <trkpt lat="42.63442" lon="1.79356">
        <ele>1721.86</ele>
        <time>2014-02-03T14:32:02Z</time>
      </trkpt>
      <trkpt lat="42.63445" lon="1.79354">
        <ele>1721.38</ele>
        <time>2014-02-03T14:32:03Z</time>
      </trkpt>
      <trkpt lat="42.6345" lon="1.79346">
        <ele>1720.42</ele>
        <time>2014-02-03T14:32:06Z</time>
      </trkpt>
      <trkpt lat="42.6345" lon="1.79344">
        <ele>1719.94</ele>
        <time>2014-02-03T14:32:07Z</time>
      </trkpt>
      <trkpt lat="42.63451" lon="1.79341">
        <ele>1719.94</ele>
        <time>2014-02-03T14:32:08Z</time>
      </trkpt>
      <trkpt lat="42.6345" lon="1.7933">
        <ele>1717.53</ele>
        <time>2014-02-03T14:32:13Z</time>
      </trkpt>
      <trkpt lat="42.63452" lon="1.79328">
        <ele>1717.05</ele>
        <time>2014-02-03T14:32:14Z</time>
      </trkpt>
      <trkpt lat="42.63454" lon="1.79325">
        <ele>1715.13</ele>
        <time>2014-02-03T14:32:22Z</time>
      </trkpt>
      <trkpt lat="42.63453" lon="1.79327">
        <ele>1715.61</ele>
        <time>2014-02-03T14:32:35Z</time>
      </trkpt>
      <trkpt lat="42.63454" lon="1.79326">
        <ele>1715.13</ele>
        <time>2014-02-03T14:32:55Z</time>
      </trkpt>
      <trkpt lat="42.63454" lon="1.79325">
        <ele>1717.05</ele>
        <time>2014-02-03T14:33:20Z</time>
      </trkpt>
      <trkpt lat="42.63453" lon="1.79327">
        <ele>1717.53</ele>
        <time>2014-02-03T14:33:39Z</time>
      </trkpt>
      <trkpt lat="42.63453" lon="1.79329">
        <ele>1717.05</ele>
        <time>2014-02-03T14:33:48Z</time>
      </trkpt>
      <trkpt lat="42.63458" lon="1.79332">
        <ele>1716.57</ele>
        <time>2014-02-03T14:33:51Z</time>
      </trkpt>
      <trkpt lat="42.6347" lon="1.79341">
        <ele>1716.09</ele>
        <time>2014-02-03T14:33:58Z</time>
      </trkpt>
      <trkpt lat="42.63476" lon="1.79349">
        <ele>1715.61</ele>
        <time>2014-02-03T14:34:04Z</time>
      </trkpt>
      <trkpt lat="42.63488" lon="1.7936">
        <ele>1714.65</ele>
        <time>2014-02-03T14:34:17Z</time>
      </trkpt>
      <trkpt lat="42.63488" lon="1.79361">
        <ele>1713.69</ele>
        <time>2014-02-03T14:34:19Z</time>
      </trkpt>
      <trkpt lat="42.63494" lon="1.79371">
        <ele>1714.17</ele>
        <time>2014-02-03T14:34:31Z</time>
      </trkpt>
      <trkpt lat="42.63496" lon="1.79377">
        <ele>1714.65</ele>
        <time>2014-02-03T14:34:36Z</time>
      </trkpt>
      <trkpt lat="42.63496" lon="1.79379">
        <ele>1714.17</ele>
        <time>2014-02-03T14:34:39Z</time>
      </trkpt>
      <trkpt lat="42.63507" lon="1.79402">
        <ele>1712.25</ele>
        <time>2014-02-03T14:34:52Z</time>
      </trkpt>
      <trkpt lat="42.63524" lon="1.79422">
        <ele>1710.32</ele>
        <time>2014-02-03T14:35:03Z</time>
      </trkpt>
      <trkpt lat="42.63547" lon="1.79442">
        <ele>1708.88</ele>
        <time>2014-02-03T14:35:13Z</time>
      </trkpt>
      <trkpt lat="42.63572" lon="1.79463">
        <ele>1706.48</ele>
        <time>2014-02-03T14:35:25Z</time>
      </trkpt>
      <trkpt lat="42.63589" lon="1.79475">
        <ele>1703.11</ele>
        <time>2014-02-03T14:35:32Z</time>
      </trkpt>
      <trkpt lat="42.63591" lon="1.79481">
        <ele>1702.63</ele>
        <time>2014-02-03T14:35:35Z</time>
      </trkpt>
      <trkpt lat="42.636" lon="1.79487">
        <ele>1700.23</ele>
        <time>2014-02-03T14:35:39Z</time>
      </trkpt>
      <trkpt lat="42.63613" lon="1.79509">
        <ele>1694.94</ele>
        <time>2014-02-03T14:35:46Z</time>
      </trkpt>
      <trkpt lat="42.63615" lon="1.79512">
        <ele>1694.94</ele>
        <time>2014-02-03T14:35:48Z</time>
      </trkpt>
      <trkpt lat="42.63618" lon="1.79515">
        <ele>1696.38</ele>
        <time>2014-02-03T14:36:00Z</time>
      </trkpt>
      <trkpt lat="42.63619" lon="1.79515">
        <ele>1696.38</ele>
        <time>2014-02-03T14:36:02Z</time>
      </trkpt>
      <trkpt lat="42.63624" lon="1.7951">
        <ele>1694.94</ele>
        <time>2014-02-03T14:36:10Z</time>
      </trkpt>
      <trkpt lat="42.63625" lon="1.7951">
        <ele>1695.9</ele>
        <time>2014-02-03T14:36:13Z</time>
      </trkpt>
      <trkpt lat="42.63631" lon="1.79524">
        <ele>1692.06</ele>
        <time>2014-02-03T14:36:23Z</time>
      </trkpt>
      <trkpt lat="42.63642" lon="1.79553">
        <ele>1687.25</ele>
        <time>2014-02-03T14:36:33Z</time>
      </trkpt>
      <trkpt lat="42.63649" lon="1.79576">
        <ele>1682.44</ele>
        <time>2014-02-03T14:36:43Z</time>
      </trkpt>
      <trkpt lat="42.63653" lon="1.79596">
        <ele>1678.6</ele>
        <time>2014-02-03T14:36:53Z</time>
      </trkpt>
      <trkpt lat="42.63654" lon="1.79605">
        <ele>1675.72</ele>
        <time>2014-02-03T14:36:59Z</time>
      </trkpt>
      <trkpt lat="42.63657" lon="1.79615">
        <ele>1669.95</ele>
        <time>2014-02-03T14:37:09Z</time>
      </trkpt>
      <trkpt lat="42.63656" lon="1.79623">
        <ele>1666.58</ele>
        <time>2014-02-03T14:37:18Z</time>
      </trkpt>
      <trkpt lat="42.63653" lon="1.7963">
        <ele>1665.14</ele>
        <time>2014-02-03T14:37:21Z</time>
      </trkpt>
      <trkpt lat="42.63651" lon="1.7964">
        <ele>1662.74</ele>
        <time>2014-02-03T14:37:33Z</time>
      </trkpt>
      <trkpt lat="42.63653" lon="1.79649">
        <ele>1663.22</ele>
        <time>2014-02-03T14:37:46Z</time>
      </trkpt>
      <trkpt lat="42.63657" lon="1.79659">
        <ele>1664.18</ele>
        <time>2014-02-03T14:37:56Z</time>
      </trkpt>
      <trkpt lat="42.6366" lon="1.79667">
        <ele>1663.22</ele>
        <time>2014-02-03T14:38:02Z</time>
      </trkpt>
      <trkpt lat="42.63661" lon="1.79673">
        <ele>1666.1</ele>
        <time>2014-02-03T14:38:10Z</time>
      </trkpt>
      <trkpt lat="42.63669" lon="1.79672">
        <ele>1663.7</ele>
        <time>2014-02-03T14:38:20Z</time>
      </trkpt>
      <trkpt lat="42.63672" lon="1.79672">
        <ele>1663.7</ele>
        <time>2014-02-03T14:38:24Z</time>
      </trkpt>
      <trkpt lat="42.63674" lon="1.79673">
        <ele>1664.18</ele>
        <time>2014-02-03T14:38:26Z</time>
      </trkpt>
      <trkpt lat="42.63677" lon="1.79677">
        <ele>1662.74</ele>
        <time>2014-02-03T14:38:36Z</time>
      </trkpt>
      <trkpt lat="42.63678" lon="1.79678">
        <ele>1662.74</ele>
        <time>2014-02-03T14:38:37Z</time>
      </trkpt>
      <trkpt lat="42.63681" lon="1.79683">
        <ele>1662.26</ele>
        <time>2014-02-03T14:38:45Z</time>
      </trkpt>
      <trkpt lat="42.63683" lon="1.79685">
        <ele>1662.26</ele>
        <time>2014-02-03T14:38:49Z</time>
      </trkpt>
      <trkpt lat="42.63687" lon="1.79692">
        <ele>1661.3</ele>
        <time>2014-02-03T14:38:55Z</time>
      </trkpt>
      <trkpt lat="42.63688" lon="1.79693">
        <ele>1661.3</ele>
        <time>2014-02-03T14:39:04Z</time>
      </trkpt>
      <trkpt lat="42.63689" lon="1.79691">
        <ele>1662.26</ele>
        <time>2014-02-03T14:39:14Z</time>
      </trkpt>
      <trkpt lat="42.63691" lon="1.79691">
        <ele>1663.7</ele>
        <time>2014-02-03T14:39:22Z</time>
      </trkpt>
      <trkpt lat="42.63693" lon="1.79691">
        <ele>1663.7</ele>
        <time>2014-02-03T14:39:30Z</time>
      </trkpt>
      <trkpt lat="42.63693" lon="1.79689">
        <ele>1666.58</ele>
        <time>2014-02-03T14:39:44Z</time>
      </trkpt>
      <trkpt lat="42.63694" lon="1.79688">
        <ele>1664.66</ele>
        <time>2014-02-03T14:39:47Z</time>
      </trkpt>
      <trkpt lat="42.63697" lon="1.79676">
        <ele>1662.26</ele>
        <time>2014-02-03T14:39:57Z</time>
      </trkpt>
      <trkpt lat="42.63697" lon="1.7967">
        <ele>1660.33</ele>
        <time>2014-02-03T14:40:13Z</time>
      </trkpt>
      <trkpt lat="42.63697" lon="1.79667">
        <ele>1659.37</ele>
        <time>2014-02-03T14:40:15Z</time>
      </trkpt>
      <trkpt lat="42.63698" lon="1.79671">
        <ele>1658.89</ele>
        <time>2014-02-03T14:40:25Z</time>
      </trkpt>
      <trkpt lat="42.63702" lon="1.79671">
        <ele>1661.78</ele>
        <time>2014-02-03T14:40:35Z</time>
      </trkpt>
      <trkpt lat="42.63703" lon="1.7967">
        <ele>1661.78</ele>
        <time>2014-02-03T14:40:47Z</time>
      </trkpt>
      <trkpt lat="42.63703" lon="1.79667">
        <ele>1662.26</ele>
        <time>2014-02-03T14:40:51Z</time>
      </trkpt>
      <trkpt lat="42.63707" lon="1.79642">
        <ele>1656.01</ele>
        <time>2014-02-03T14:41:07Z</time>
      </trkpt>
      <trkpt lat="42.63708" lon="1.79636">
        <ele>1656.49</ele>
        <time>2014-02-03T14:41:20Z</time>
      </trkpt>
      <trkpt lat="42.63708" lon="1.79632">
        <ele>1656.49</ele>
        <time>2014-02-03T14:41:30Z</time>
      </trkpt>
      <trkpt lat="42.63709" lon="1.79631">
        <ele>1656.01</ele>
        <time>2014-02-03T14:41:40Z</time>
      </trkpt>
      <trkpt lat="42.63709" lon="1.79634">
        <ele>1655.53</ele>
        <time>2014-02-03T14:41:48Z</time>
      </trkpt>
      <trkpt lat="42.63707" lon="1.79652">
        <ele>1653.6</ele>
        <time>2014-02-03T14:41:58Z</time>
      </trkpt>
      <trkpt lat="42.63708" lon="1.79657">
        <ele>1654.09</ele>
        <time>2014-02-03T14:42:04Z</time>
      </trkpt>
      <trkpt lat="42.6371" lon="1.79668">
        <ele>1653.12</ele>
        <time>2014-02-03T14:42:16Z</time>
      </trkpt>
      <trkpt lat="42.63714" lon="1.79669">
        <ele>1656.01</ele>
        <time>2014-02-03T14:42:27Z</time>
      </trkpt>
      <trkpt lat="42.63717" lon="1.7967">
        <ele>1655.05</ele>
        <time>2014-02-03T14:42:31Z</time>
      </trkpt>
      <trkpt lat="42.63721" lon="1.79667">
        <ele>1652.64</ele>
        <time>2014-02-03T14:42:39Z</time>
      </trkpt>
      <trkpt lat="42.63721" lon="1.79665">
        <ele>1652.16</ele>
        <time>2014-02-03T14:42:45Z</time>
      </trkpt>
      <trkpt lat="42.63721" lon="1.79663">
        <ele>1651.68</ele>
        <time>2014-02-03T14:42:48Z</time>
      </trkpt>
      <trkpt lat="42.63721" lon="1.79662">
        <ele>1650.72</ele>
        <time>2014-02-03T14:42:54Z</time>
      </trkpt>
      <trkpt lat="42.63722" lon="1.79663">
        <ele>1651.68</ele>
        <time>2014-02-03T14:42:59Z</time>
      </trkpt>
      <trkpt lat="42.63724" lon="1.79664">
        <ele>1652.16</ele>
        <time>2014-02-03T14:43:08Z</time>
      </trkpt>
      <trkpt lat="42.63726" lon="1.79666">
        <ele>1652.64</ele>
        <time>2014-02-03T14:43:17Z</time>
      </trkpt>
      <trkpt lat="42.63727" lon="1.7967">
        <ele>1652.64</ele>
        <time>2014-02-03T14:43:26Z</time>
      </trkpt>
      <trkpt lat="42.63731" lon="1.79673">
        <ele>1654.09</ele>
        <time>2014-02-03T14:43:35Z</time>
      </trkpt>
      <trkpt lat="42.63734" lon="1.79669">
        <ele>1653.6</ele>
        <time>2014-02-03T14:43:47Z</time>
      </trkpt>
      <trkpt lat="42.63737" lon="1.79665">
        <ele>1654.09</ele>
        <time>2014-02-03T14:43:53Z</time>
      </trkpt>
      <trkpt lat="42.63738" lon="1.79661">
        <ele>1653.12</ele>
        <time>2014-02-03T14:44:01Z</time>
      </trkpt>
      <trkpt lat="42.63739" lon="1.79658">
        <ele>1653.6</ele>
        <time>2014-02-03T14:44:06Z</time>
      </trkpt>
      <trkpt lat="42.63735" lon="1.79656">
        <ele>1649.76</ele>
        <time>2014-02-03T14:44:15Z</time>
      </trkpt>
      <trkpt lat="42.63736" lon="1.79652">
        <ele>1651.68</ele>
        <time>2014-02-03T14:44:24Z</time>
      </trkpt>
      <trkpt lat="42.63738" lon="1.79642">
        <ele>1652.64</ele>
        <time>2014-02-03T14:44:33Z</time>
      </trkpt>
      <trkpt lat="42.63738" lon="1.79641">
        <ele>1653.12</ele>
        <time>2014-02-03T14:44:35Z</time>
      </trkpt>
      <trkpt lat="42.63736" lon="1.79637">
        <ele>1652.64</ele>
        <time>2014-02-03T14:44:45Z</time>
      </trkpt>
      <trkpt lat="42.63734" lon="1.79632">
        <ele>1653.12</ele>
        <time>2014-02-03T14:44:54Z</time>
      </trkpt>
      <trkpt lat="42.63735" lon="1.79626">
        <ele>1653.6</ele>
        <time>2014-02-03T14:45:03Z</time>
      </trkpt>
      <trkpt lat="42.63735" lon="1.7962">
        <ele>1653.6</ele>
        <time>2014-02-03T14:45:15Z</time>
      </trkpt>
      <trkpt lat="42.63734" lon="1.79614">
        <ele>1654.09</ele>
        <time>2014-02-03T14:45:25Z</time>
      </trkpt>
      <trkpt lat="42.63734" lon="1.7961">
        <ele>1654.09</ele>
        <time>2014-02-03T14:45:36Z</time>
      </trkpt>
      <trkpt lat="42.63734" lon="1.79608">
        <ele>1654.09</ele>
        <time>2014-02-03T14:45:38Z</time>
      </trkpt>
      <trkpt lat="42.63739" lon="1.79608">
        <ele>1656.01</ele>
        <time>2014-02-03T14:45:48Z</time>
      </trkpt>
      <trkpt lat="42.63741" lon="1.7961">
        <ele>1656.97</ele>
        <time>2014-02-03T14:45:58Z</time>
      </trkpt>
      <trkpt lat="42.63742" lon="1.79611">
        <ele>1656.01</ele>
        <time>2014-02-03T14:46:11Z</time>
      </trkpt>
      <trkpt lat="42.63742" lon="1.7961">
        <ele>1654.09</ele>
        <time>2014-02-03T14:46:24Z</time>
      </trkpt>
      <trkpt lat="42.63745" lon="1.79611">
        <ele>1654.09</ele>
        <time>2014-02-03T14:46:35Z</time>
      </trkpt>
      <trkpt lat="42.63746" lon="1.79616">
        <ele>1657.45</ele>
        <time>2014-02-03T14:46:46Z</time>
      </trkpt>
      <trkpt lat="42.63747" lon="1.7962">
        <ele>1657.93</ele>
        <time>2014-02-03T14:47:00Z</time>
      </trkpt>
      <trkpt lat="42.63746" lon="1.79623">
        <ele>1656.97</ele>
        <time>2014-02-03T14:47:12Z</time>
      </trkpt>
      <trkpt lat="42.63746" lon="1.79623">
        <ele>1657.45</ele>
        <time>2014-02-03T14:47:15Z</time>
      </trkpt>
      <trkpt lat="42.63748" lon="1.79623">
        <ele>1657.93</ele>
        <time>2014-02-03T14:47:18Z</time>
      </trkpt>
      <trkpt lat="42.63749" lon="1.79624">
        <ele>1658.41</ele>
        <time>2014-02-03T14:47:20Z</time>
      </trkpt>
      <trkpt lat="42.6375" lon="1.79625">
        <ele>1660.33</ele>
        <time>2014-02-03T14:47:31Z</time>
      </trkpt>
      <trkpt lat="42.63753" lon="1.79624">
        <ele>1659.37</ele>
        <time>2014-02-03T14:47:46Z</time>
      </trkpt>
      <trkpt lat="42.63752" lon="1.79625">
        <ele>1661.78</ele>
        <time>2014-02-03T14:48:01Z</time>
      </trkpt>
      <trkpt lat="42.63752" lon="1.79623">
        <ele>1660.81</ele>
        <time>2014-02-03T14:48:12Z</time>
      </trkpt>
      <trkpt lat="42.63753" lon="1.79623">
        <ele>1661.3</ele>
        <time>2014-02-03T14:48:22Z</time>
      </trkpt>
      <trkpt lat="42.63754" lon="1.79623">
        <ele>1661.3</ele>
        <time>2014-02-03T14:48:32Z</time>
      </trkpt>
      <trkpt lat="42.63749" lon="1.79625">
        <ele>1660.33</ele>
        <time>2014-02-03T14:48:52Z</time>
      </trkpt>
      <trkpt lat="42.63754" lon="1.79624">
        <ele>1661.3</ele>
        <time>2014-02-03T14:49:11Z</time>
      </trkpt>
      <trkpt lat="42.63753" lon="1.79622">
        <ele>1661.3</ele>
        <time>2014-02-03T14:49:38Z</time>
      </trkpt>
      <trkpt lat="42.63754" lon="1.79622">
        <ele>1660.81</ele>
        <time>2014-02-03T14:49:56Z</time>
      </trkpt>
      <trkpt lat="42.63752" lon="1.79622">
        <ele>1660.81</ele>
        <time>2014-02-03T14:50:05Z</time>
      </trkpt>
      <trkpt lat="42.63753" lon="1.79624">
        <ele>1661.3</ele>
        <time>2014-02-03T14:50:21Z</time>
      </trkpt>
      <trkpt lat="42.63758" lon="1.79628">
        <ele>1660.81</ele>
        <time>2014-02-03T14:50:29Z</time>
      </trkpt>
      <trkpt lat="42.6378" lon="1.79646">
        <ele>1657.93</ele>
        <time>2014-02-03T14:50:43Z</time>
      </trkpt>
      <trkpt lat="42.63803" lon="1.79664">
        <ele>1654.57</ele>
        <time>2014-02-03T14:50:58Z</time>
      </trkpt>
      <trkpt lat="42.63818" lon="1.79688">
        <ele>1651.2</ele>
        <time>2014-02-03T14:51:07Z</time>
      </trkpt>
      <trkpt lat="42.6382" lon="1.79697">
        <ele>1649.76</ele>
        <time>2014-02-03T14:51:11Z</time>
      </trkpt>
      <trkpt lat="42.63821" lon="1.79701">
        <ele>1649.28</ele>
        <time>2014-02-03T14:51:12Z</time>
      </trkpt>
      <trkpt lat="42.63822" lon="1.79704">
        <ele>1648.8</ele>
        <time>2014-02-03T14:51:13Z</time>
      </trkpt>
      <trkpt lat="42.63826" lon="1.79712">
        <ele>1647.84</ele>
        <time>2014-02-03T14:51:16Z</time>
      </trkpt>
      <trkpt lat="42.63828" lon="1.79714">
        <ele>1649.28</ele>
        <time>2014-02-03T14:51:24Z</time>
      </trkpt>
      <trkpt lat="42.63828" lon="1.79716">
        <ele>1649.28</ele>
        <time>2014-02-03T14:51:28Z</time>
      </trkpt>
      <trkpt lat="42.6383" lon="1.79721">
        <ele>1650.24</ele>
        <time>2014-02-03T14:51:36Z</time>
      </trkpt>
      <trkpt lat="42.63833" lon="1.79726">
        <ele>1649.76</ele>
        <time>2014-02-03T14:51:43Z</time>
      </trkpt>
      <trkpt lat="42.63838" lon="1.7973">
        <ele>1648.8</ele>
        <time>2014-02-03T14:51:53Z</time>
      </trkpt>
      <trkpt lat="42.63842" lon="1.79738">
        <ele>1649.76</ele>
        <time>2014-02-03T14:52:02Z</time>
      </trkpt>
      <trkpt lat="42.63847" lon="1.79745">
        <ele>1650.24</ele>
        <time>2014-02-03T14:52:12Z</time>
      </trkpt>
      <trkpt lat="42.6385" lon="1.79751">
        <ele>1649.76</ele>
        <time>2014-02-03T14:52:20Z</time>
      </trkpt>
      <trkpt lat="42.63855" lon="1.79755">
        <ele>1649.76</ele>
        <time>2014-02-03T14:52:30Z</time>
      </trkpt>
      <trkpt lat="42.63856" lon="1.79758">
        <ele>1651.2</ele>
        <time>2014-02-03T14:52:39Z</time>
      </trkpt>
      <trkpt lat="42.63861" lon="1.79765">
        <ele>1652.64</ele>
        <time>2014-02-03T14:52:50Z</time>
      </trkpt>
      <trkpt lat="42.63868" lon="1.79772">
        <ele>1652.64</ele>
        <time>2014-02-03T14:53:01Z</time>
      </trkpt>
      <trkpt lat="42.63876" lon="1.79777">
        <ele>1652.64</ele>
        <time>2014-02-03T14:53:12Z</time>
      </trkpt>
      <trkpt lat="42.63882" lon="1.79784">
        <ele>1652.64</ele>
        <time>2014-02-03T14:53:22Z</time>
      </trkpt>
      <trkpt lat="42.63885" lon="1.79787">
        <ele>1651.2</ele>
        <time>2014-02-03T14:53:34Z</time>
      </trkpt>
      <trkpt lat="42.63887" lon="1.79788">
        <ele>1651.2</ele>
        <time>2014-02-03T14:53:36Z</time>
      </trkpt>
      <trkpt lat="42.63889" lon="1.79791">
        <ele>1651.2</ele>
        <time>2014-02-03T14:53:40Z</time>
      </trkpt>
      <trkpt lat="42.63891" lon="1.79796">
        <ele>1651.68</ele>
        <time>2014-02-03T14:53:46Z</time>
      </trkpt>
      <trkpt lat="42.63896" lon="1.79803">
        <ele>1652.16</ele>
        <time>2014-02-03T14:53:55Z</time>
      </trkpt>
      <trkpt lat="42.63901" lon="1.79811">
        <ele>1651.68</ele>
        <time>2014-02-03T14:54:06Z</time>
      </trkpt>
      <trkpt lat="42.63905" lon="1.79816">
        <ele>1652.64</ele>
        <time>2014-02-03T14:54:15Z</time>
      </trkpt>
      <trkpt lat="42.63911" lon="1.79821">
        <ele>1653.12</ele>
        <time>2014-02-03T14:54:23Z</time>
      </trkpt>
      <trkpt lat="42.63918" lon="1.7983">
        <ele>1652.64</ele>
        <time>2014-02-03T14:54:34Z</time>
      </trkpt>
      <trkpt lat="42.6392" lon="1.79832">
        <ele>1653.12</ele>
        <time>2014-02-03T14:54:37Z</time>
      </trkpt>
      <trkpt lat="42.63921" lon="1.79833">
        <ele>1653.12</ele>
        <time>2014-02-03T14:54:38Z</time>
      </trkpt>
      <trkpt lat="42.63924" lon="1.79837">
        <ele>1653.6</ele>
        <time>2014-02-03T14:54:42Z</time>
      </trkpt>
      <trkpt lat="42.63926" lon="1.7984">
        <ele>1653.6</ele>
        <time>2014-02-03T14:54:46Z</time>
      </trkpt>
      <trkpt lat="42.63934" lon="1.79847">
        <ele>1653.12</ele>
        <time>2014-02-03T14:54:58Z</time>
      </trkpt>
      <trkpt lat="42.63936" lon="1.7985">
        <ele>1653.12</ele>
        <time>2014-02-03T14:55:02Z</time>
      </trkpt>
      <trkpt lat="42.63942" lon="1.79852">
        <ele>1652.16</ele>
        <time>2014-02-03T14:55:08Z</time>
      </trkpt>
      <trkpt lat="42.63942" lon="1.79853">
        <ele>1652.16</ele>
        <time>2014-02-03T14:55:09Z</time>
      </trkpt>
      <trkpt lat="42.63944" lon="1.79854">
        <ele>1652.16</ele>
        <time>2014-02-03T14:55:10Z</time>
      </trkpt>
      <trkpt lat="42.63945" lon="1.79854">
        <ele>1652.64</ele>
        <time>2014-02-03T14:55:11Z</time>
      </trkpt>
      <trkpt lat="42.63953" lon="1.79861">
        <ele>1653.12</ele>
        <time>2014-02-03T14:55:21Z</time>
      </trkpt>
      <trkpt lat="42.63961" lon="1.79867">
        <ele>1654.09</ele>
        <time>2014-02-03T14:55:34Z</time>
      </trkpt>
      <trkpt lat="42.63964" lon="1.79868">
        <ele>1653.6</ele>
        <time>2014-02-03T14:55:38Z</time>
      </trkpt>
      <trkpt lat="42.63972" lon="1.79873">
        <ele>1653.6</ele>
        <time>2014-02-03T14:55:50Z</time>
      </trkpt>
      <trkpt lat="42.63973" lon="1.79875">
        <ele>1653.12</ele>
        <time>2014-02-03T14:55:52Z</time>
      </trkpt>
      <trkpt lat="42.63974" lon="1.79876">
        <ele>1653.12</ele>
        <time>2014-02-03T14:55:53Z</time>
      </trkpt>
      <trkpt lat="42.63982" lon="1.79881">
        <ele>1652.16</ele>
        <time>2014-02-03T14:56:05Z</time>
      </trkpt>
      <trkpt lat="42.63987" lon="1.79885">
        <ele>1651.68</ele>
        <time>2014-02-03T14:56:11Z</time>
      </trkpt>
      <trkpt lat="42.6399" lon="1.79887">
        <ele>1652.64</ele>
        <time>2014-02-03T14:56:17Z</time>
      </trkpt>
      <trkpt lat="42.63991" lon="1.79887">
        <ele>1652.64</ele>
        <time>2014-02-03T14:56:18Z</time>
      </trkpt>
      <trkpt lat="42.63992" lon="1.79888">
        <ele>1652.64</ele>
        <time>2014-02-03T14:56:19Z</time>
      </trkpt>
      <trkpt lat="42.63994" lon="1.79889">
        <ele>1652.64</ele>
        <time>2014-02-03T14:56:20Z</time>
      </trkpt>
      <trkpt lat="42.63995" lon="1.7989">
        <ele>1652.64</ele>
        <time>2014-02-03T14:56:21Z</time>
      </trkpt>
      <trkpt lat="42.63996" lon="1.79891">
        <ele>1652.16</ele>
        <time>2014-02-03T14:56:22Z</time>
      </trkpt>
      <trkpt lat="42.64021" lon="1.79916">
        <ele>1647.36</ele>
        <time>2014-02-03T14:56:39Z</time>
      </trkpt>
      <trkpt lat="42.64026" lon="1.79924">
        <ele>1647.84</ele>
        <time>2014-02-03T14:56:47Z</time>
      </trkpt>
      <trkpt lat="42.64027" lon="1.79934">
        <ele>1648.32</ele>
        <time>2014-02-03T14:56:58Z</time>
      </trkpt>
      <trkpt lat="42.64029" lon="1.79939">
        <ele>1647.36</ele>
        <time>2014-02-03T14:57:08Z</time>
      </trkpt>
      <trkpt lat="42.64028" lon="1.7994">
        <ele>1646.88</ele>
        <time>2014-02-03T14:57:10Z</time>
      </trkpt>
      <trkpt lat="42.64026" lon="1.79941">
        <ele>1646.4</ele>
        <time>2014-02-03T14:57:11Z</time>
      </trkpt>
      <trkpt lat="42.64019" lon="1.79949">
        <ele>1646.88</ele>
        <time>2014-02-03T14:57:20Z</time>
      </trkpt>
      <trkpt lat="42.64018" lon="1.79951">
        <ele>1647.84</ele>
        <time>2014-02-03T14:57:29Z</time>
      </trkpt>
      <trkpt lat="42.64021" lon="1.79952">
        <ele>1646.4</ele>
        <time>2014-02-03T14:57:49Z</time>
      </trkpt>
      <trkpt lat="42.64019" lon="1.7995">
        <ele>1646.4</ele>
        <time>2014-02-03T14:58:05Z</time>
      </trkpt>
      <trkpt lat="42.64018" lon="1.79949">
        <ele>1646.4</ele>
        <time>2014-02-03T14:58:18Z</time>
      </trkpt>
      <trkpt lat="42.64019" lon="1.79949">
        <ele>1647.84</ele>
        <time>2014-02-03T14:58:38Z</time>
      </trkpt>
      <trkpt lat="42.64017" lon="1.79951">
        <ele>1647.84</ele>
        <time>2014-02-03T14:58:50Z</time>
      </trkpt>
      <trkpt lat="42.64017" lon="1.79953">
        <ele>1646.4</ele>
        <time>2014-02-03T14:59:00Z</time>
      </trkpt>
      <trkpt lat="42.64017" lon="1.79954">
        <ele>1645.91</ele>
        <time>2014-02-03T14:59:10Z</time>
      </trkpt>
      <trkpt lat="42.64016" lon="1.79955">
        <ele>1645.91</ele>
        <time>2014-02-03T14:59:23Z</time>
      </trkpt>
      <trkpt lat="42.64018" lon="1.79959">
        <ele>1646.4</ele>
        <time>2014-02-03T14:59:31Z</time>
      </trkpt>
      <trkpt lat="42.64019" lon="1.79962">
        <ele>1646.88</ele>
        <time>2014-02-03T14:59:41Z</time>
      </trkpt>
      <trkpt lat="42.6402" lon="1.79969">
        <ele>1648.32</ele>
        <time>2014-02-03T14:59:51Z</time>
      </trkpt>
      <trkpt lat="42.64021" lon="1.79972">
        <ele>1649.76</ele>
        <time>2014-02-03T15:00:01Z</time>
      </trkpt>
      <trkpt lat="42.6402" lon="1.79973">
        <ele>1648.8</ele>
        <time>2014-02-03T15:00:19Z</time>
      </trkpt>
      <trkpt lat="42.64021" lon="1.79971">
        <ele>1647.84</ele>
        <time>2014-02-03T15:00:35Z</time>
      </trkpt>
      <trkpt lat="42.64018" lon="1.79973">
        <ele>1646.4</ele>
        <time>2014-02-03T15:00:53Z</time>
      </trkpt>
      <trkpt lat="42.64019" lon="1.79972">
        <ele>1645.91</ele>
        <time>2014-02-03T15:01:08Z</time>
      </trkpt>
      <trkpt lat="42.64022" lon="1.79972">
        <ele>1646.4</ele>
        <time>2014-02-03T15:01:18Z</time>
      </trkpt>
      <trkpt lat="42.6402" lon="1.79974">
        <ele>1647.36</ele>
        <time>2014-02-03T15:01:29Z</time>
      </trkpt>
      <trkpt lat="42.64022" lon="1.7998">
        <ele>1647.36</ele>
        <time>2014-02-03T15:01:39Z</time>
      </trkpt>
      <trkpt lat="42.64024" lon="1.79986">
        <ele>1648.8</ele>
        <time>2014-02-03T15:01:50Z</time>
      </trkpt>
      <trkpt lat="42.64024" lon="1.79989">
        <ele>1650.24</ele>
        <time>2014-02-03T15:02:20Z</time>
      </trkpt>
      <trkpt lat="42.64027" lon="1.79995">
        <ele>1649.28</ele>
        <time>2014-02-03T15:02:29Z</time>
      </trkpt>
      <trkpt lat="42.6403" lon="1.80003">
        <ele>1650.72</ele>
        <time>2014-02-03T15:02:40Z</time>
      </trkpt>
      <trkpt lat="42.64033" lon="1.80008">
        <ele>1651.2</ele>
        <time>2014-02-03T15:02:49Z</time>
      </trkpt>
      <trkpt lat="42.64034" lon="1.80009">
        <ele>1651.2</ele>
        <time>2014-02-03T15:02:50Z</time>
      </trkpt>
      <trkpt lat="42.64037" lon="1.80012">
        <ele>1651.68</ele>
        <time>2014-02-03T15:02:54Z</time>
      </trkpt>
      <trkpt lat="42.6404" lon="1.80015">
        <ele>1651.2</ele>
        <time>2014-02-03T15:03:03Z</time>
      </trkpt>
      <trkpt lat="42.64042" lon="1.80014">
        <ele>1649.28</ele>
        <time>2014-02-03T15:03:20Z</time>
      </trkpt>
      <trkpt lat="42.6404" lon="1.80013">
        <ele>1648.8</ele>
        <time>2014-02-03T15:03:40Z</time>
      </trkpt>
      <trkpt lat="42.6404" lon="1.80012">
        <ele>1649.28</ele>
        <time>2014-02-03T15:03:50Z</time>
      </trkpt>
      <trkpt lat="42.6404" lon="1.80014">
        <ele>1650.24</ele>
        <time>2014-02-03T15:03:59Z</time>
      </trkpt>
      <trkpt lat="42.64041" lon="1.80016">
        <ele>1650.24</ele>
        <time>2014-02-03T15:04:13Z</time>
      </trkpt>
      <trkpt lat="42.64041" lon="1.80017">
        <ele>1649.76</ele>
        <time>2014-02-03T15:04:29Z</time>
      </trkpt>
      <trkpt lat="42.64038" lon="1.80017">
        <ele>1651.68</ele>
        <time>2014-02-03T15:04:47Z</time>
      </trkpt>
      <trkpt lat="42.64039" lon="1.80019">
        <ele>1651.2</ele>
        <time>2014-02-03T15:04:58Z</time>
      </trkpt>
      <trkpt lat="42.64038" lon="1.8004">
        <ele>1647.84</ele>
        <time>2014-02-03T15:05:08Z</time>
      </trkpt>
      <trkpt lat="42.6404" lon="1.80048">
        <ele>1646.4</ele>
        <time>2014-02-03T15:05:15Z</time>
      </trkpt>
      <trkpt lat="42.64043" lon="1.8006">
        <ele>1644.47</ele>
        <time>2014-02-03T15:05:19Z</time>
      </trkpt>
      <trkpt lat="42.64048" lon="1.80077">
        <ele>1639.67</ele>
        <time>2014-02-03T15:05:23Z</time>
      </trkpt>
      <trkpt lat="42.64056" lon="1.80083">
        <ele>1635.34</ele>
        <time>2014-02-03T15:05:29Z</time>
      </trkpt>
      <trkpt lat="42.64061" lon="1.80085">
        <ele>1634.86</ele>
        <time>2014-02-03T15:05:34Z</time>
      </trkpt>
      <trkpt lat="42.64062" lon="1.80087">
        <ele>1634.38</ele>
        <time>2014-02-03T15:05:36Z</time>
      </trkpt>
      <trkpt lat="42.64065" lon="1.80094">
        <ele>1632.46</ele>
        <time>2014-02-03T15:05:41Z</time>
      </trkpt>
      <trkpt lat="42.64072" lon="1.80098">
        <ele>1629.57</ele>
        <time>2014-02-03T15:05:50Z</time>
      </trkpt>
      <trkpt lat="42.64073" lon="1.80098">
        <ele>1629.09</ele>
        <time>2014-02-03T15:05:51Z</time>
      </trkpt>
      <trkpt lat="42.6407" lon="1.80105">
        <ele>1625.73</ele>
        <time>2014-02-03T15:05:59Z</time>
      </trkpt>
      <trkpt lat="42.64069" lon="1.80108">
        <ele>1627.65</ele>
        <time>2014-02-03T15:06:21Z</time>
      </trkpt>
      <trkpt lat="42.64067" lon="1.80105">
        <ele>1626.69</ele>
        <time>2014-02-03T15:06:35Z</time>
      </trkpt>
      <trkpt lat="42.64065" lon="1.80105">
        <ele>1624.77</ele>
        <time>2014-02-03T15:06:49Z</time>
      </trkpt>
      <trkpt lat="42.64062" lon="1.80111">
        <ele>1623.8</ele>
        <time>2014-02-03T15:07:07Z</time>
      </trkpt>
      <trkpt lat="42.64064" lon="1.80118">
        <ele>1624.28</ele>
        <time>2014-02-03T15:07:19Z</time>
      </trkpt>
      <trkpt lat="42.64064" lon="1.8012">
        <ele>1620.92</ele>
        <time>2014-02-03T15:07:33Z</time>
      </trkpt>
      <trkpt lat="42.64065" lon="1.8012">
        <ele>1622.36</ele>
        <time>2014-02-03T15:07:44Z</time>
      </trkpt>
      <trkpt lat="42.64064" lon="1.80122">
        <ele>1623.32</ele>
        <time>2014-02-03T15:08:00Z</time>
      </trkpt>
      <trkpt lat="42.64062" lon="1.80127">
        <ele>1623.32</ele>
        <time>2014-02-03T15:08:12Z</time>
      </trkpt>
      <trkpt lat="42.64062" lon="1.80132">
        <ele>1625.25</ele>
        <time>2014-02-03T15:08:24Z</time>
      </trkpt>
      <trkpt lat="42.64062" lon="1.80137">
        <ele>1624.77</ele>
        <time>2014-02-03T15:08:34Z</time>
      </trkpt>
      <trkpt lat="42.64063" lon="1.80141">
        <ele>1625.73</ele>
        <time>2014-02-03T15:08:43Z</time>
      </trkpt>
      <trkpt lat="42.64065" lon="1.80148">
        <ele>1625.73</ele>
        <time>2014-02-03T15:08:55Z</time>
      </trkpt>
      <trkpt lat="42.64067" lon="1.80154">
        <ele>1627.17</ele>
        <time>2014-02-03T15:09:05Z</time>
      </trkpt>
      <trkpt lat="42.64065" lon="1.80156">
        <ele>1629.57</ele>
        <time>2014-02-03T15:09:23Z</time>
      </trkpt>
      <trkpt lat="42.64066" lon="1.80157">
        <ele>1628.13</ele>
        <time>2014-02-03T15:09:40Z</time>
      </trkpt>
      <trkpt lat="42.64066" lon="1.80158">
        <ele>1628.61</ele>
        <time>2014-02-03T15:09:58Z</time>
      </trkpt>
      <trkpt lat="42.64067" lon="1.8015">
        <ele>1631.49</ele>
        <time>2014-02-03T15:10:18Z</time>
      </trkpt>
      <trkpt lat="42.64066" lon="1.80151">
        <ele>1629.09</ele>
        <time>2014-02-03T15:10:32Z</time>
      </trkpt>
      <trkpt lat="42.64067" lon="1.80149">
        <ele>1627.17</ele>
        <time>2014-02-03T15:11:01Z</time>
      </trkpt>
      <trkpt lat="42.64068" lon="1.80157">
        <ele>1622.84</ele>
        <time>2014-02-03T15:11:32Z</time>
      </trkpt>
      <trkpt lat="42.64071" lon="1.80157">
        <ele>1625.73</ele>
        <time>2014-02-03T15:11:51Z</time>
      </trkpt>
      <trkpt lat="42.64072" lon="1.80158">
        <ele>1631.98</ele>
        <time>2014-02-03T15:12:18Z</time>
      </trkpt>
      <trkpt lat="42.6407" lon="1.80155">
        <ele>1632.94</ele>
        <time>2014-02-03T15:12:37Z</time>
      </trkpt>
      <trkpt lat="42.64074" lon="1.80155">
        <ele>1624.77</ele>
        <time>2014-02-03T15:13:01Z</time>
      </trkpt>
      <trkpt lat="42.6407" lon="1.80154">
        <ele>1627.17</ele>
        <time>2014-02-03T15:13:11Z</time>
      </trkpt>
      <trkpt lat="42.64067" lon="1.80157">
        <ele>1629.57</ele>
        <time>2014-02-03T15:13:21Z</time>
      </trkpt>
      <trkpt lat="42.64065" lon="1.80156">
        <ele>1627.65</ele>
        <time>2014-02-03T15:13:38Z</time>
      </trkpt>
      <trkpt lat="42.64065" lon="1.80154">
        <ele>1629.09</ele>
        <time>2014-02-03T15:13:55Z</time>
      </trkpt>
      <trkpt lat="42.64065" lon="1.80156">
        <ele>1630.53</ele>
        <time>2014-02-03T15:14:16Z</time>
      </trkpt>
      <trkpt lat="42.64066" lon="1.80158">
        <ele>1629.09</ele>
        <time>2014-02-03T15:14:27Z</time>
      </trkpt>
      <trkpt lat="42.64067" lon="1.80159">
        <ele>1631.01</ele>
        <time>2014-02-03T15:14:38Z</time>
      </trkpt>
      <trkpt lat="42.64065" lon="1.80156">
        <ele>1631.98</ele>
        <time>2014-02-03T15:14:54Z</time>
      </trkpt>
      <trkpt lat="42.64065" lon="1.80155">
        <ele>1632.46</ele>
        <time>2014-02-03T15:15:05Z</time>
      </trkpt>
      <trkpt lat="42.64066" lon="1.80155">
        <ele>1633.9</ele>
        <time>2014-02-03T15:15:25Z</time>
      </trkpt>
      <trkpt lat="42.64069" lon="1.80158">
        <ele>1633.42</ele>
        <time>2014-02-03T15:15:48Z</time>
      </trkpt>
      <trkpt lat="42.64068" lon="1.80154">
        <ele>1628.13</ele>
        <time>2014-02-03T15:16:07Z</time>
      </trkpt>
      <trkpt lat="42.64067" lon="1.80162">
        <ele>1623.32</ele>
        <time>2014-02-03T15:16:28Z</time>
      </trkpt>
      <trkpt lat="42.64066" lon="1.80161">
        <ele>1623.32</ele>
        <time>2014-02-03T15:16:29Z</time>
      </trkpt>
      <trkpt lat="42.64068" lon="1.80161">
        <ele>1624.77</ele>
        <time>2014-02-03T15:16:40Z</time>
      </trkpt>
      <trkpt lat="42.64069" lon="1.80157">
        <ele>1625.25</ele>
        <time>2014-02-03T15:16:51Z</time>
      </trkpt>
      <trkpt lat="42.64073" lon="1.80154">
        <ele>1627.65</ele>
        <time>2014-02-03T15:17:12Z</time>
      </trkpt>
      <trkpt lat="42.64068" lon="1.80156">
        <ele>1626.21</ele>
        <time>2014-02-03T15:17:27Z</time>
      </trkpt>
      <trkpt lat="42.64065" lon="1.8016">
        <ele>1623.8</ele>
        <time>2014-02-03T15:17:36Z</time>
      </trkpt>
      <trkpt lat="42.64062" lon="1.80162">
        <ele>1622.84</ele>
        <time>2014-02-03T15:17:47Z</time>
      </trkpt>
      <trkpt lat="42.64062" lon="1.80168">
        <ele>1619.96</ele>
        <time>2014-02-03T15:17:57Z</time>
      </trkpt>
      <trkpt lat="42.64069" lon="1.80173">
        <ele>1618.04</ele>
        <time>2014-02-03T15:18:01Z</time>
      </trkpt>
      <trkpt lat="42.64079" lon="1.80194">
        <ele>1612.27</ele>
        <time>2014-02-03T15:18:09Z</time>
      </trkpt>
      <trkpt lat="42.64084" lon="1.802">
        <ele>1611.31</ele>
        <time>2014-02-03T15:18:21Z</time>
      </trkpt>
      <trkpt lat="42.64088" lon="1.80206">
        <ele>1612.75</ele>
        <time>2014-02-03T15:18:36Z</time>
      </trkpt>
      <trkpt lat="42.6409" lon="1.80207">
        <ele>1611.31</ele>
        <time>2014-02-03T15:18:46Z</time>
      </trkpt>
      <trkpt lat="42.6409" lon="1.80207">
        <ele>1612.75</ele>
        <time>2014-02-03T15:18:58Z</time>
      </trkpt>
      <trkpt lat="42.64089" lon="1.80212">
        <ele>1613.71</ele>
        <time>2014-02-03T15:19:07Z</time>
      </trkpt>
      <trkpt lat="42.64086" lon="1.80215">
        <ele>1615.15</ele>
        <time>2014-02-03T15:19:16Z</time>
      </trkpt>
      <trkpt lat="42.64088" lon="1.80222">
        <ele>1614.67</ele>
        <time>2014-02-03T15:19:27Z</time>
      </trkpt>
      <trkpt lat="42.64089" lon="1.80227">
        <ele>1616.11</ele>
        <time>2014-02-03T15:19:38Z</time>
      </trkpt>
      <trkpt lat="42.64091" lon="1.80237">
        <ele>1618.52</ele>
        <time>2014-02-03T15:19:48Z</time>
      </trkpt>
      <trkpt lat="42.64097" lon="1.80245">
        <ele>1616.11</ele>
        <time>2014-02-03T15:19:54Z</time>
      </trkpt>
      <trkpt lat="42.64099" lon="1.80251">
        <ele>1614.67</ele>
        <time>2014-02-03T15:20:03Z</time>
      </trkpt>
      <trkpt lat="42.641" lon="1.80255">
        <ele>1616.11</ele>
        <time>2014-02-03T15:20:13Z</time>
      </trkpt>
      <trkpt lat="42.64101" lon="1.80258">
        <ele>1617.07</ele>
        <time>2014-02-03T15:20:22Z</time>
      </trkpt>
      <trkpt lat="42.64103" lon="1.80259">
        <ele>1617.56</ele>
        <time>2014-02-03T15:20:36Z</time>
      </trkpt>
      <trkpt lat="42.64104" lon="1.8026">
        <ele>1619.48</ele>
        <time>2014-02-03T15:20:46Z</time>
      </trkpt>
      <trkpt lat="42.64104" lon="1.80262">
        <ele>1621.4</ele>
        <time>2014-02-03T15:20:58Z</time>
      </trkpt>
      <trkpt lat="42.64105" lon="1.80268">
        <ele>1619.48</ele>
        <time>2014-02-03T15:21:01Z</time>
      </trkpt>
      <trkpt lat="42.64118" lon="1.80279">
        <ele>1613.23</ele>
        <time>2014-02-03T15:21:07Z</time>
      </trkpt>
      <trkpt lat="42.64142" lon="1.80294">
        <ele>1606.02</ele>
        <time>2014-02-03T15:21:16Z</time>
      </trkpt>
      <trkpt lat="42.6415" lon="1.80298">
        <ele>1607.46</ele>
        <time>2014-02-03T15:21:24Z</time>
      </trkpt>
      <trkpt lat="42.64152" lon="1.80298">
        <ele>1607.46</ele>
        <time>2014-02-03T15:21:28Z</time>
      </trkpt>
      <trkpt lat="42.64155" lon="1.80299">
        <ele>1606.02</ele>
        <time>2014-02-03T15:21:30Z</time>
      </trkpt>
      <trkpt lat="42.64172" lon="1.80306">
        <ele>1604.1</ele>
        <time>2014-02-03T15:21:38Z</time>
      </trkpt>
      <trkpt lat="42.64197" lon="1.80333">
        <ele>1604.1</ele>
        <time>2014-02-03T15:21:49Z</time>
      </trkpt>
      <trkpt lat="42.6421" lon="1.80358">
        <ele>1601.69</ele>
        <time>2014-02-03T15:21:58Z</time>
      </trkpt>
      <trkpt lat="42.64221" lon="1.80387">
        <ele>1600.25</ele>
        <time>2014-02-03T15:22:05Z</time>
      </trkpt>
      <trkpt lat="42.64236" lon="1.80428">
        <ele>1595.93</ele>
        <time>2014-02-03T15:22:14Z</time>
      </trkpt>
      <trkpt lat="42.64239" lon="1.80431">
        <ele>1595.45</ele>
        <time>2014-02-03T15:22:22Z</time>
      </trkpt>
      <trkpt lat="42.64238" lon="1.80432">
        <ele>1596.89</ele>
        <time>2014-02-03T15:22:34Z</time>
      </trkpt>
      <trkpt lat="42.64237" lon="1.80432">
        <ele>1597.37</ele>
        <time>2014-02-03T15:22:43Z</time>
      </trkpt>
      <trkpt lat="42.64234" lon="1.80436">
        <ele>1596.89</ele>
        <time>2014-02-03T15:22:47Z</time>
      </trkpt>
      <trkpt lat="42.64232" lon="1.8044">
        <ele>1597.37</ele>
        <time>2014-02-03T15:22:57Z</time>
      </trkpt>
      <trkpt lat="42.64233" lon="1.80442">
        <ele>1596.89</ele>
        <time>2014-02-03T15:22:59Z</time>
      </trkpt>
      <trkpt lat="42.64236" lon="1.80453">
        <ele>1595.45</ele>
        <time>2014-02-03T15:23:06Z</time>
      </trkpt>
      <trkpt lat="42.64244" lon="1.80458">
        <ele>1594.48</ele>
        <time>2014-02-03T15:23:10Z</time>
      </trkpt>
      <trkpt lat="42.64252" lon="1.80467">
        <ele>1591.6</ele>
        <time>2014-02-03T15:23:19Z</time>
      </trkpt>
      <trkpt lat="42.64256" lon="1.80473">
        <ele>1590.16</ele>
        <time>2014-02-03T15:23:27Z</time>
      </trkpt>
      <trkpt lat="42.64259" lon="1.80484">
        <ele>1587.75</ele>
        <time>2014-02-03T15:23:37Z</time>
      </trkpt>
      <trkpt lat="42.64261" lon="1.80488">
        <ele>1587.27</ele>
        <time>2014-02-03T15:23:41Z</time>
      </trkpt>
      <trkpt lat="42.64273" lon="1.80489">
        <ele>1584.87</ele>
        <time>2014-02-03T15:23:51Z</time>
      </trkpt>
      <trkpt lat="42.64274" lon="1.80489">
        <ele>1584.87</ele>
        <time>2014-02-03T15:23:52Z</time>
      </trkpt>
      <trkpt lat="42.6428" lon="1.80495">
        <ele>1583.43</ele>
        <time>2014-02-03T15:24:00Z</time>
      </trkpt>
      <trkpt lat="42.64295" lon="1.80505">
        <ele>1578.62</ele>
        <time>2014-02-03T15:24:07Z</time>
      </trkpt>
      <trkpt lat="42.6432" lon="1.80505">
        <ele>1576.7</ele>
        <time>2014-02-03T15:24:18Z</time>
      </trkpt>
      <trkpt lat="42.64335" lon="1.80504">
        <ele>1574.3</ele>
        <time>2014-02-03T15:24:24Z</time>
      </trkpt>
      <trkpt lat="42.6434" lon="1.80506">
        <ele>1573.33</ele>
        <time>2014-02-03T15:24:28Z</time>
      </trkpt>
      <trkpt lat="42.6434" lon="1.80508">
        <ele>1572.85</ele>
        <time>2014-02-03T15:24:30Z</time>
      </trkpt>
      <trkpt lat="42.64343" lon="1.80508">
        <ele>1572.37</ele>
        <time>2014-02-03T15:24:38Z</time>
      </trkpt>
      <trkpt lat="42.64348" lon="1.80507">
        <ele>1571.89</ele>
        <time>2014-02-03T15:24:40Z</time>
      </trkpt>
      <trkpt lat="42.64364" lon="1.80518">
        <ele>1567.57</ele>
        <time>2014-02-03T15:24:45Z</time>
      </trkpt>
      <trkpt lat="42.64372" lon="1.80527">
        <ele>1564.68</ele>
        <time>2014-02-03T15:24:50Z</time>
      </trkpt>
      <trkpt lat="42.64379" lon="1.8054">
        <ele>1562.28</ele>
        <time>2014-02-03T15:24:57Z</time>
      </trkpt>
      <trkpt lat="42.64381" lon="1.80542">
        <ele>1562.28</ele>
        <time>2014-02-03T15:24:59Z</time>
      </trkpt>
      <trkpt lat="42.64392" lon="1.80543">
        <ele>1561.8</ele>
        <time>2014-02-03T15:25:05Z</time>
      </trkpt>
      <trkpt lat="42.64403" lon="1.80544">
        <ele>1562.76</ele>
        <time>2014-02-03T15:25:13Z</time>
      </trkpt>
      <trkpt lat="42.64408" lon="1.80549">
        <ele>1561.32</ele>
        <time>2014-02-03T15:25:20Z</time>
      </trkpt>
      <trkpt lat="42.64414" lon="1.80558">
        <ele>1561.32</ele>
        <time>2014-02-03T15:25:30Z</time>
      </trkpt>
      <trkpt lat="42.64416" lon="1.80564">
        <ele>1557.95</ele>
        <time>2014-02-03T15:25:42Z</time>
      </trkpt>
      <trkpt lat="42.64418" lon="1.80564">
        <ele>1557.95</ele>
        <time>2014-02-03T15:25:47Z</time>
      </trkpt>
      <trkpt lat="42.64424" lon="1.80564">
        <ele>1556.03</ele>
        <time>2014-02-03T15:25:58Z</time>
      </trkpt>
      <trkpt lat="42.64425" lon="1.80565">
        <ele>1557.47</ele>
        <time>2014-02-03T15:26:15Z</time>
      </trkpt>
      <trkpt lat="42.64422" lon="1.80565">
        <ele>1562.28</ele>
        <time>2014-02-03T15:26:38Z</time>
      </trkpt>
      <trkpt lat="42.64424" lon="1.80563">
        <ele>1560.36</ele>
        <time>2014-02-03T15:26:53Z</time>
      </trkpt>
      <trkpt lat="42.64423" lon="1.80564">
        <ele>1560.84</ele>
        <time>2014-02-03T15:27:19Z</time>
      </trkpt>
      <trkpt lat="42.64424" lon="1.80562">
        <ele>1555.55</ele>
        <time>2014-02-03T15:27:47Z</time>
      </trkpt>
      <trkpt lat="42.64424" lon="1.8056">
        <ele>1556.99</ele>
        <time>2014-02-03T15:28:04Z</time>
      </trkpt>
      <trkpt lat="42.64425" lon="1.80562">
        <ele>1556.99</ele>
        <time>2014-02-03T15:28:22Z</time>
      </trkpt>
      <trkpt lat="42.64425" lon="1.80563">
        <ele>1558.43</ele>
        <time>2014-02-03T15:28:41Z</time>
      </trkpt>
      <trkpt lat="42.64425" lon="1.80563">
        <ele>1558.92</ele>
        <time>2014-02-03T15:29:05Z</time>
      </trkpt>
      <trkpt lat="42.64426" lon="1.80564">
        <ele>1558.92</ele>
        <time>2014-02-03T15:29:06Z</time>
      </trkpt>
      <trkpt lat="42.64431" lon="1.80571">
        <ele>1556.99</ele>
        <time>2014-02-03T15:29:11Z</time>
      </trkpt>
      <trkpt lat="42.64444" lon="1.80598">
        <ele>1552.19</ele>
        <time>2014-02-03T15:29:20Z</time>
      </trkpt>
      <trkpt lat="42.64448" lon="1.80606">
        <ele>1550.74</ele>
        <time>2014-02-03T15:29:22Z</time>
      </trkpt>
      <trkpt lat="42.64448" lon="1.80618">
        <ele>1549.78</ele>
        <time>2014-02-03T15:29:26Z</time>
      </trkpt>
      <trkpt lat="42.64451" lon="1.80631">
        <ele>1549.78</ele>
        <time>2014-02-03T15:29:30Z</time>
      </trkpt>
      <trkpt lat="42.6446" lon="1.80642">
        <ele>1548.82</ele>
        <time>2014-02-03T15:29:35Z</time>
      </trkpt>
      <trkpt lat="42.64463" lon="1.80646">
        <ele>1548.34</ele>
        <time>2014-02-03T15:29:37Z</time>
      </trkpt>
      <trkpt lat="42.64465" lon="1.80651">
        <ele>1547.86</ele>
        <time>2014-02-03T15:29:40Z</time>
      </trkpt>
      <trkpt lat="42.64462" lon="1.80663">
        <ele>1547.38</ele>
        <time>2014-02-03T15:29:53Z</time>
      </trkpt>
      <trkpt lat="42.64461" lon="1.80679">
        <ele>1546.42</ele>
        <time>2014-02-03T15:30:05Z</time>
      </trkpt>
      <trkpt lat="42.64462" lon="1.80685">
        <ele>1546.9</ele>
        <time>2014-02-03T15:30:16Z</time>
      </trkpt>
      <trkpt lat="42.64462" lon="1.80683">
        <ele>1547.38</ele>
        <time>2014-02-03T15:30:23Z</time>
      </trkpt>
      <trkpt lat="42.64463" lon="1.80687">
        <ele>1547.38</ele>
        <time>2014-02-03T15:30:25Z</time>
      </trkpt>
      <trkpt lat="42.6448" lon="1.80718">
        <ele>1547.38</ele>
        <time>2014-02-03T15:30:35Z</time>
      </trkpt>
      <trkpt lat="42.64485" lon="1.80735">
        <ele>1545.46</ele>
        <time>2014-02-03T15:30:44Z</time>
      </trkpt>
      <trkpt lat="42.64493" lon="1.80752">
        <ele>1543.05</ele>
        <time>2014-02-03T15:30:53Z</time>
      </trkpt>
      <trkpt lat="42.64512" lon="1.80774">
        <ele>1542.09</ele>
        <time>2014-02-03T15:31:02Z</time>
      </trkpt>
      <trkpt lat="42.64513" lon="1.80776">
        <ele>1542.09</ele>
        <time>2014-02-03T15:31:03Z</time>
      </trkpt>
      <trkpt lat="42.64514" lon="1.80784">
        <ele>1543.05</ele>
        <time>2014-02-03T15:31:07Z</time>
      </trkpt>
      <trkpt lat="42.64516" lon="1.80789">
        <ele>1542.57</ele>
        <time>2014-02-03T15:31:10Z</time>
      </trkpt>
      <trkpt lat="42.64524" lon="1.80802">
        <ele>1541.13</ele>
        <time>2014-02-03T15:31:16Z</time>
      </trkpt>
      <trkpt lat="42.64534" lon="1.80816">
        <ele>1539.69</ele>
        <time>2014-02-03T15:31:22Z</time>
      </trkpt>
      <trkpt lat="42.64551" lon="1.80833">
        <ele>1538.73</ele>
        <time>2014-02-03T15:31:33Z</time>
      </trkpt>
      <trkpt lat="42.64562" lon="1.80841">
        <ele>1538.73</ele>
        <time>2014-02-03T15:31:38Z</time>
      </trkpt>
      <trkpt lat="42.64569" lon="1.80853">
        <ele>1538.25</ele>
        <time>2014-02-03T15:31:42Z</time>
      </trkpt>
      <trkpt lat="42.6457" lon="1.80857">
        <ele>1538.73</ele>
        <time>2014-02-03T15:31:44Z</time>
      </trkpt>
      <trkpt lat="42.64567" lon="1.80861">
        <ele>1539.21</ele>
        <time>2014-02-03T15:31:52Z</time>
      </trkpt>
      <trkpt lat="42.64566" lon="1.80866">
        <ele>1540.17</ele>
        <time>2014-02-03T15:32:02Z</time>
      </trkpt>
      <trkpt lat="42.64571" lon="1.80877">
        <ele>1539.21</ele>
        <time>2014-02-03T15:32:13Z</time>
      </trkpt>
      <trkpt lat="42.64572" lon="1.80878">
        <ele>1539.69</ele>
        <time>2014-02-03T15:32:15Z</time>
      </trkpt>
      <trkpt lat="42.64576" lon="1.80887">
        <ele>1539.69</ele>
        <time>2014-02-03T15:32:24Z</time>
      </trkpt>
      <trkpt lat="42.64582" lon="1.80896">
        <ele>1540.65</ele>
        <time>2014-02-03T15:32:33Z</time>
      </trkpt>
      <trkpt lat="42.6459" lon="1.80907">
        <ele>1541.13</ele>
        <time>2014-02-03T15:32:43Z</time>
      </trkpt>
      <trkpt lat="42.64594" lon="1.80909">
        <ele>1542.09</ele>
        <time>2014-02-03T15:32:48Z</time>
      </trkpt>
      <trkpt lat="42.64598" lon="1.80917">
        <ele>1542.09</ele>
        <time>2014-02-03T15:32:56Z</time>
      </trkpt>
      <trkpt lat="42.64602" lon="1.80922">
        <ele>1541.13</ele>
        <time>2014-02-03T15:33:04Z</time>
      </trkpt>
      <trkpt lat="42.64603" lon="1.80926">
        <ele>1540.65</ele>
        <time>2014-02-03T15:33:12Z</time>
      </trkpt>
      <trkpt lat="42.64606" lon="1.80931">
        <ele>1540.17</ele>
        <time>2014-02-03T15:33:21Z</time>
      </trkpt>
      <trkpt lat="42.64607" lon="1.80935">
        <ele>1541.61</ele>
        <time>2014-02-03T15:33:28Z</time>
      </trkpt>
      <trkpt lat="42.64618" lon="1.80955">
        <ele>1538.73</ele>
        <time>2014-02-03T15:33:38Z</time>
      </trkpt>
      <trkpt lat="42.64619" lon="1.80956">
        <ele>1538.73</ele>
        <time>2014-02-03T15:33:41Z</time>
      </trkpt>
      <trkpt lat="42.64623" lon="1.80959">
        <ele>1537.77</ele>
        <time>2014-02-03T15:33:50Z</time>
      </trkpt>
      <trkpt lat="42.64623" lon="1.80958">
        <ele>1538.25</ele>
        <time>2014-02-03T15:33:55Z</time>
      </trkpt>
      <trkpt lat="42.64624" lon="1.80964">
        <ele>1539.69</ele>
        <time>2014-02-03T15:34:03Z</time>
      </trkpt>
      <trkpt lat="42.64628" lon="1.80967">
        <ele>1541.61</ele>
        <time>2014-02-03T15:34:11Z</time>
      </trkpt>
      <trkpt lat="42.64629" lon="1.8097">
        <ele>1542.09</ele>
        <time>2014-02-03T15:34:24Z</time>
      </trkpt>
      <trkpt lat="42.64632" lon="1.80977">
        <ele>1541.61</ele>
        <time>2014-02-03T15:34:33Z</time>
      </trkpt>
      <trkpt lat="42.64632" lon="1.80979">
        <ele>1542.09</ele>
        <time>2014-02-03T15:34:36Z</time>
      </trkpt>
      <trkpt lat="42.64638" lon="1.80986">
        <ele>1540.65</ele>
        <time>2014-02-03T15:34:43Z</time>
      </trkpt>
      <trkpt lat="42.64647" lon="1.80993">
        <ele>1540.17</ele>
        <time>2014-02-03T15:34:52Z</time>
      </trkpt>
      <trkpt lat="42.64651" lon="1.80996">
        <ele>1540.17</ele>
        <time>2014-02-03T15:35:04Z</time>
      </trkpt>
      <trkpt lat="42.64653" lon="1.80996">
        <ele>1538.73</ele>
        <time>2014-02-03T15:35:16Z</time>
      </trkpt>
      <trkpt lat="42.64653" lon="1.80995">
        <ele>1539.69</ele>
        <time>2014-02-03T15:35:31Z</time>
      </trkpt>
      <trkpt lat="42.64652" lon="1.80994">
        <ele>1540.17</ele>
        <time>2014-02-03T15:35:53Z</time>
      </trkpt>
      <trkpt lat="42.64653" lon="1.80997">
        <ele>1542.09</ele>
        <time>2014-02-03T15:36:10Z</time>
      </trkpt>
      <trkpt lat="42.64656" lon="1.81002">
        <ele>1541.13</ele>
        <time>2014-02-03T15:36:22Z</time>
      </trkpt>
      <trkpt lat="42.64667" lon="1.8102">
        <ele>1537.29</ele>
        <time>2014-02-03T15:36:31Z</time>
      </trkpt>
      <trkpt lat="42.64669" lon="1.81023">
        <ele>1536.8</ele>
        <time>2014-02-03T15:36:33Z</time>
      </trkpt>
      <trkpt lat="42.64672" lon="1.81025">
        <ele>1536.8</ele>
        <time>2014-02-03T15:36:35Z</time>
      </trkpt>
      <trkpt lat="42.64686" lon="1.81049">
        <ele>1532.48</ele>
        <time>2014-02-03T15:36:44Z</time>
      </trkpt>
      <trkpt lat="42.64686" lon="1.81054">
        <ele>1531.52</ele>
        <time>2014-02-03T15:36:48Z</time>
      </trkpt>
      <trkpt lat="42.64688" lon="1.81061">
        <ele>1529.59</ele>
        <time>2014-02-03T15:36:55Z</time>
      </trkpt>
      <trkpt lat="42.64689" lon="1.81067">
        <ele>1529.59</ele>
        <time>2014-02-03T15:37:06Z</time>
      </trkpt>
      <trkpt lat="42.64688" lon="1.81069">
        <ele>1528.15</ele>
        <time>2014-02-03T15:37:15Z</time>
      </trkpt>
      <trkpt lat="42.6469" lon="1.81074">
        <ele>1527.19</ele>
        <time>2014-02-03T15:37:22Z</time>
      </trkpt>
      <trkpt lat="42.64696" lon="1.81078">
        <ele>1524.79</ele>
        <time>2014-02-03T15:37:27Z</time>
      </trkpt>
      <trkpt lat="42.64695" lon="1.81084">
        <ele>1519.98</ele>
        <time>2014-02-03T15:37:34Z</time>
      </trkpt>
      <trkpt lat="42.64694" lon="1.81088">
        <ele>1517.1</ele>
        <time>2014-02-03T15:37:44Z</time>
      </trkpt>
      <trkpt lat="42.64695" lon="1.81095">
        <ele>1519.02</ele>
        <time>2014-02-03T15:37:55Z</time>
      </trkpt>
      <trkpt lat="42.64698" lon="1.81097">
        <ele>1517.1</ele>
        <time>2014-02-03T15:38:09Z</time>
      </trkpt>
      <trkpt lat="42.64699" lon="1.811">
        <ele>1518.06</ele>
        <time>2014-02-03T15:38:18Z</time>
      </trkpt>
      <trkpt lat="42.64701" lon="1.81104">
        <ele>1519.02</ele>
        <time>2014-02-03T15:38:28Z</time>
      </trkpt>
      <trkpt lat="42.64704" lon="1.81112">
        <ele>1519.02</ele>
        <time>2014-02-03T15:38:38Z</time>
      </trkpt>
      <trkpt lat="42.64704" lon="1.81113">
        <ele>1519.5</ele>
        <time>2014-02-03T15:38:41Z</time>
      </trkpt>
      <trkpt lat="42.64706" lon="1.81118">
        <ele>1518.06</ele>
        <time>2014-02-03T15:38:51Z</time>
      </trkpt>
      <trkpt lat="42.64704" lon="1.81123">
        <ele>1517.1</ele>
        <time>2014-02-03T15:39:06Z</time>
      </trkpt>
      <trkpt lat="42.64704" lon="1.81126">
        <ele>1515.18</ele>
        <time>2014-02-03T15:39:18Z</time>
      </trkpt>
      <trkpt lat="42.64702" lon="1.81129">
        <ele>1514.69</ele>
        <time>2014-02-03T15:39:32Z</time>
      </trkpt>
      <trkpt lat="42.64703" lon="1.8113">
        <ele>1512.29</ele>
        <time>2014-02-03T15:39:44Z</time>
      </trkpt>
      <trkpt lat="42.64704" lon="1.81138">
        <ele>1510.37</ele>
        <time>2014-02-03T15:39:56Z</time>
      </trkpt>
      <trkpt lat="42.64704" lon="1.81138">
        <ele>1509.89</ele>
        <time>2014-02-03T15:39:57Z</time>
      </trkpt>
      <trkpt lat="42.64704" lon="1.81145">
        <ele>1511.81</ele>
        <time>2014-02-03T15:40:07Z</time>
      </trkpt>
      <trkpt lat="42.64706" lon="1.81146">
        <ele>1509.41</ele>
        <time>2014-02-03T15:40:20Z</time>
      </trkpt>
      <trkpt lat="42.64708" lon="1.81148">
        <ele>1509.89</ele>
        <time>2014-02-03T15:40:33Z</time>
      </trkpt>
      <trkpt lat="42.64709" lon="1.8115">
        <ele>1511.33</ele>
        <time>2014-02-03T15:40:46Z</time>
      </trkpt>
      <trkpt lat="42.64706" lon="1.81151">
        <ele>1508.45</ele>
        <time>2014-02-03T15:40:59Z</time>
      </trkpt>
      <trkpt lat="42.64705" lon="1.81151">
        <ele>1509.41</ele>
        <time>2014-02-03T15:41:09Z</time>
      </trkpt>
      <trkpt lat="42.64705" lon="1.81155">
        <ele>1509.89</ele>
        <time>2014-02-03T15:41:17Z</time>
      </trkpt>
      <trkpt lat="42.64705" lon="1.81162">
        <ele>1511.81</ele>
        <time>2014-02-03T15:41:33Z</time>
      </trkpt>
      <trkpt lat="42.64709" lon="1.81172">
        <ele>1508.45</ele>
        <time>2014-02-03T15:41:44Z</time>
      </trkpt>
      <trkpt lat="42.6471" lon="1.81183">
        <ele>1503.16</ele>
        <time>2014-02-03T15:41:56Z</time>
      </trkpt>
      <trkpt lat="42.6471" lon="1.81194">
        <ele>1501.72</ele>
        <time>2014-02-03T15:42:06Z</time>
      </trkpt>
      <trkpt lat="42.64713" lon="1.81205">
        <ele>1500.76</ele>
        <time>2014-02-03T15:42:18Z</time>
      </trkpt>
      <trkpt lat="42.64713" lon="1.81206">
        <ele>1500.76</ele>
        <time>2014-02-03T15:42:19Z</time>
      </trkpt>
      <trkpt lat="42.64716" lon="1.8122">
        <ele>1499.79</ele>
        <time>2014-02-03T15:42:30Z</time>
      </trkpt>
      <trkpt lat="42.64718" lon="1.81228">
        <ele>1503.64</ele>
        <time>2014-02-03T15:42:40Z</time>
      </trkpt>
      <trkpt lat="42.64718" lon="1.81238">
        <ele>1504.6</ele>
        <time>2014-02-03T15:42:52Z</time>
      </trkpt>
      <trkpt lat="42.64717" lon="1.81245">
        <ele>1503.16</ele>
        <time>2014-02-03T15:42:59Z</time>
      </trkpt>
      <trkpt lat="42.64716" lon="1.81255">
        <ele>1499.79</ele>
        <time>2014-02-03T15:43:12Z</time>
      </trkpt>
      <trkpt lat="42.64718" lon="1.81264">
        <ele>1496.91</ele>
        <time>2014-02-03T15:43:23Z</time>
      </trkpt>
      <trkpt lat="42.64718" lon="1.81268">
        <ele>1492.58</ele>
        <time>2014-02-03T15:43:34Z</time>
      </trkpt>
      <trkpt lat="42.64721" lon="1.81277">
        <ele>1491.62</ele>
        <time>2014-02-03T15:43:49Z</time>
      </trkpt>
      <trkpt lat="42.64723" lon="1.81281">
        <ele>1493.06</ele>
        <time>2014-02-03T15:44:02Z</time>
      </trkpt>
      <trkpt lat="42.64724" lon="1.81289">
        <ele>1490.18</ele>
        <time>2014-02-03T15:44:13Z</time>
      </trkpt>
      <trkpt lat="42.64725" lon="1.81292">
        <ele>1485.85</ele>
        <time>2014-02-03T15:44:23Z</time>
      </trkpt>
      <trkpt lat="42.64726" lon="1.81298">
        <ele>1482.01</ele>
        <time>2014-02-03T15:44:32Z</time>
      </trkpt>
      <trkpt lat="42.64727" lon="1.81301">
        <ele>1479.61</ele>
        <time>2014-02-03T15:44:36Z</time>
      </trkpt>
      <trkpt lat="42.64728" lon="1.81303">
        <ele>1478.65</ele>
        <time>2014-02-03T15:44:39Z</time>
      </trkpt>
      <trkpt lat="42.64731" lon="1.81308">
        <ele>1478.65</ele>
        <time>2014-02-03T15:44:48Z</time>
      </trkpt>
      <trkpt lat="42.6473" lon="1.8132">
        <ele>1477.68</ele>
        <time>2014-02-03T15:44:58Z</time>
      </trkpt>
      <trkpt lat="42.64733" lon="1.8133">
        <ele>1476.72</ele>
        <time>2014-02-03T15:45:07Z</time>
      </trkpt>
      <trkpt lat="42.64736" lon="1.81335">
        <ele>1476.72</ele>
        <time>2014-02-03T15:45:11Z</time>
      </trkpt>
      <trkpt lat="42.64742" lon="1.81344">
        <ele>1473.84</ele>
        <time>2014-02-03T15:45:22Z</time>
      </trkpt>
      <trkpt lat="42.64747" lon="1.81351">
        <ele>1473.84</ele>
        <time>2014-02-03T15:45:32Z</time>
      </trkpt>
      <trkpt lat="42.64749" lon="1.81353">
        <ele>1474.32</ele>
        <time>2014-02-03T15:45:41Z</time>
      </trkpt>
      <trkpt lat="42.64752" lon="1.81358">
        <ele>1473.84</ele>
        <time>2014-02-03T15:45:48Z</time>
      </trkpt>
      <trkpt lat="42.64753" lon="1.81358">
        <ele>1473.84</ele>
        <time>2014-02-03T15:45:49Z</time>
      </trkpt>
      <trkpt lat="42.64755" lon="1.81359">
        <ele>1474.32</ele>
        <time>2014-02-03T15:45:50Z</time>
      </trkpt>
      <trkpt lat="42.64756" lon="1.8136">
        <ele>1474.8</ele>
        <time>2014-02-03T15:45:52Z</time>
      </trkpt>
      <trkpt lat="42.64757" lon="1.81361">
        <ele>1474.8</ele>
        <time>2014-02-03T15:45:53Z</time>
      </trkpt>
      <trkpt lat="42.64764" lon="1.81367">
        <ele>1473.84</ele>
        <time>2014-02-03T15:46:00Z</time>
      </trkpt>
      <trkpt lat="42.64766" lon="1.81367">
        <ele>1473.84</ele>
        <time>2014-02-03T15:46:01Z</time>
      </trkpt>
      <trkpt lat="42.64769" lon="1.81368">
        <ele>1472.88</ele>
        <time>2014-02-03T15:46:03Z</time>
      </trkpt>
      <trkpt lat="42.64771" lon="1.81376">
        <ele>1470.95</ele>
        <time>2014-02-03T15:46:09Z</time>
      </trkpt>
      <trkpt lat="42.64773" lon="1.81378">
        <ele>1470.47</ele>
        <time>2014-02-03T15:46:12Z</time>
      </trkpt>
      <trkpt lat="42.64773" lon="1.8138">
        <ele>1469.99</ele>
        <time>2014-02-03T15:46:13Z</time>
      </trkpt>
      <trkpt lat="42.64775" lon="1.81382">
        <ele>1469.51</ele>
        <time>2014-02-03T15:46:17Z</time>
      </trkpt>
      <trkpt lat="42.64776" lon="1.81384">
        <ele>1468.55</ele>
        <time>2014-02-03T15:46:18Z</time>
      </trkpt>
      <trkpt lat="42.64779" lon="1.8139">
        <ele>1467.59</ele>
        <time>2014-02-03T15:46:22Z</time>
      </trkpt>
      <trkpt lat="42.6478" lon="1.81392">
        <ele>1467.59</ele>
        <time>2014-02-03T15:46:23Z</time>
      </trkpt>
      <trkpt lat="42.6478" lon="1.81393">
        <ele>1467.11</ele>
        <time>2014-02-03T15:46:24Z</time>
      </trkpt>
      <trkpt lat="42.64782" lon="1.81394">
        <ele>1467.11</ele>
        <time>2014-02-03T15:46:25Z</time>
      </trkpt>
      <trkpt lat="42.64783" lon="1.81396">
        <ele>1467.11</ele>
        <time>2014-02-03T15:46:26Z</time>
      </trkpt>
      <trkpt lat="42.64786" lon="1.81406">
        <ele>1462.78</ele>
        <time>2014-02-03T15:46:36Z</time>
      </trkpt>
      <trkpt lat="42.64785" lon="1.8141">
        <ele>1462.3</ele>
        <time>2014-02-03T15:46:46Z</time>
      </trkpt>
      <trkpt lat="42.64787" lon="1.81409">
        <ele>1459.42</ele>
        <time>2014-02-03T15:46:53Z</time>
      </trkpt>
      <trkpt lat="42.64791" lon="1.81418">
        <ele>1454.61</ele>
        <time>2014-02-03T15:47:03Z</time>
      </trkpt>
      <trkpt lat="42.64791" lon="1.8142">
        <ele>1454.13</ele>
        <time>2014-02-03T15:47:04Z</time>
      </trkpt>
      <trkpt lat="42.64796" lon="1.81425">
        <ele>1451.25</ele>
        <time>2014-02-03T15:47:13Z</time>
      </trkpt>
      <trkpt lat="42.648" lon="1.81422">
        <ele>1446.92</ele>
        <time>2014-02-03T15:47:24Z</time>
      </trkpt>
      <trkpt lat="42.64798" lon="1.8142">
        <ele>1442.6</ele>
        <time>2014-02-03T15:47:40Z</time>
      </trkpt>
      <trkpt lat="42.64796" lon="1.81425">
        <ele>1441.63</ele>
        <time>2014-02-03T15:47:51Z</time>
      </trkpt>
      <trkpt lat="42.64796" lon="1.81426">
        <ele>1441.63</ele>
        <time>2014-02-03T15:48:02Z</time>
      </trkpt>
      <trkpt lat="42.64797" lon="1.81424">
        <ele>1443.08</ele>
        <time>2014-02-03T15:48:22Z</time>
      </trkpt>
      <trkpt lat="42.64797" lon="1.81423">
        <ele>1445.48</ele>
        <time>2014-02-03T15:48:42Z</time>
      </trkpt>
      <trkpt lat="42.64795" lon="1.81424">
        <ele>1444.04</ele>
        <time>2014-02-03T15:48:56Z</time>
      </trkpt>
      <trkpt lat="42.64796" lon="1.81421">
        <ele>1445.48</ele>
        <time>2014-02-03T15:49:10Z</time>
      </trkpt>
      <trkpt lat="42.64797" lon="1.81421">
        <ele>1446.44</ele>
        <time>2014-02-03T15:49:20Z</time>
      </trkpt>
      <trkpt lat="42.64796" lon="1.81421">
        <ele>1445.96</ele>
        <time>2014-02-03T15:49:21Z</time>
      </trkpt>
      <trkpt lat="42.64795" lon="1.81419">
        <ele>1442.6</ele>
        <time>2014-02-03T15:49:32Z</time>
      </trkpt>
      <trkpt lat="42.64797" lon="1.81418">
        <ele>1441.15</ele>
        <time>2014-02-03T15:49:45Z</time>
      </trkpt>
      <trkpt lat="42.64792" lon="1.81418">
        <ele>1441.15</ele>
        <time>2014-02-03T15:50:03Z</time>
      </trkpt>
      <trkpt lat="42.64794" lon="1.81417">
        <ele>1442.6</ele>
        <time>2014-02-03T15:50:15Z</time>
      </trkpt>
      <trkpt lat="42.64795" lon="1.81416">
        <ele>1441.63</ele>
        <time>2014-02-03T15:50:33Z</time>
      </trkpt>
      <trkpt lat="42.64797" lon="1.81414">
        <ele>1438.75</ele>
        <time>2014-02-03T15:50:54Z</time>
      </trkpt>
      <trkpt lat="42.64799" lon="1.81418">
        <ele>1445.96</ele>
        <time>2014-02-03T15:51:17Z</time>
      </trkpt>
      <trkpt lat="42.64801" lon="1.81416">
        <ele>1453.17</ele>
        <time>2014-02-03T15:51:41Z</time>
      </trkpt>
      <trkpt lat="42.64799" lon="1.81416">
        <ele>1455.09</ele>
        <time>2014-02-03T15:51:59Z</time>
      </trkpt>
      <trkpt lat="42.648" lon="1.81419">
        <ele>1457.02</ele>
        <time>2014-02-03T15:52:18Z</time>
      </trkpt>
      <trkpt lat="42.648" lon="1.81417">
        <ele>1457.98</ele>
        <time>2014-02-03T15:52:38Z</time>
      </trkpt>
      <trkpt lat="42.648" lon="1.81415">
        <ele>1458.94</ele>
        <time>2014-02-03T15:53:02Z</time>
      </trkpt>
      <trkpt lat="42.64794" lon="1.81415">
        <ele>1458.94</ele>
        <time>2014-02-03T15:53:27Z</time>
      </trkpt>
      <trkpt lat="42.64793" lon="1.81417">
        <ele>1460.38</ele>
        <time>2014-02-03T15:53:48Z</time>
      </trkpt>
      <trkpt lat="42.64799" lon="1.81416">
        <ele>1457.5</ele>
        <time>2014-02-03T15:54:14Z</time>
      </trkpt>
      <trkpt lat="42.64801" lon="1.8142">
        <ele>1456.53</ele>
        <time>2014-02-03T15:54:32Z</time>
      </trkpt>
      <trkpt lat="42.64796" lon="1.81421">
        <ele>1450.77</ele>
        <time>2014-02-03T15:54:57Z</time>
      </trkpt>
      <trkpt lat="42.64795" lon="1.81423">
        <ele>1442.11</ele>
        <time>2014-02-03T15:55:26Z</time>
      </trkpt>
      <trkpt lat="42.64793" lon="1.81419">
        <ele>1437.79</ele>
        <time>2014-02-03T15:55:42Z</time>
      </trkpt>
      <trkpt lat="42.64794" lon="1.81419">
        <ele>1437.31</ele>
        <time>2014-02-03T15:56:07Z</time>
      </trkpt>
      <trkpt lat="42.64792" lon="1.81415">
        <ele>1439.71</ele>
        <time>2014-02-03T15:56:33Z</time>
      </trkpt>
      <trkpt lat="42.64792" lon="1.81416">
        <ele>1438.27</ele>
        <time>2014-02-03T15:56:51Z</time>
      </trkpt>
      <trkpt lat="42.64793" lon="1.81416">
        <ele>1439.71</ele>
        <time>2014-02-03T15:57:05Z</time>
      </trkpt>
      <trkpt lat="42.64793" lon="1.81415">
        <ele>1444.04</ele>
        <time>2014-02-03T15:57:32Z</time>
      </trkpt>
      <trkpt lat="42.64793" lon="1.81415">
        <ele>1445.48</ele>
        <time>2014-02-03T15:57:34Z</time>
      </trkpt>
      <trkpt lat="42.64793" lon="1.81413">
        <ele>1445.96</ele>
        <time>2014-02-03T15:57:35Z</time>
      </trkpt>
      <trkpt lat="42.64791" lon="1.8139">
        <ele>1444.04</ele>
        <time>2014-02-03T15:57:46Z</time>
      </trkpt>
      <trkpt lat="42.64792" lon="1.81389">
        <ele>1443.08</ele>
        <time>2014-02-03T15:57:47Z</time>
      </trkpt>
      <trkpt lat="42.64796" lon="1.81386">
        <ele>1440.67</ele>
        <time>2014-02-03T15:57:56Z</time>
      </trkpt>
      <trkpt lat="42.64796" lon="1.81384">
        <ele>1439.23</ele>
        <time>2014-02-03T15:57:59Z</time>
      </trkpt>
      <trkpt lat="42.64795" lon="1.81383">
        <ele>1439.71</ele>
        <time>2014-02-03T15:58:00Z</time>
      </trkpt>
      <trkpt lat="42.64795" lon="1.81382">
        <ele>1439.71</ele>
        <time>2014-02-03T15:58:01Z</time>
      </trkpt>
      <trkpt lat="42.64794" lon="1.81381">
        <ele>1439.23</ele>
        <time>2014-02-03T15:58:02Z</time>
      </trkpt>
      <trkpt lat="42.64794" lon="1.8138">
        <ele>1438.75</ele>
        <time>2014-02-03T15:58:03Z</time>
      </trkpt>
      <trkpt lat="42.64793" lon="1.81377">
        <ele>1438.75</ele>
        <time>2014-02-03T15:58:05Z</time>
      </trkpt>
      <trkpt lat="42.64793" lon="1.81375">
        <ele>1437.79</ele>
        <time>2014-02-03T15:58:07Z</time>
      </trkpt>
      <trkpt lat="42.64793" lon="1.81374">
        <ele>1437.31</ele>
        <time>2014-02-03T15:58:08Z</time>
      </trkpt>
      <trkpt lat="42.64793" lon="1.81372">
        <ele>1436.83</ele>
        <time>2014-02-03T15:58:09Z</time>
      </trkpt>
      <trkpt lat="42.64793" lon="1.81371">
        <ele>1436.35</ele>
        <time>2014-02-03T15:58:10Z</time>
      </trkpt>
      <trkpt lat="42.64793" lon="1.81368">
        <ele>1434.91</ele>
        <time>2014-02-03T15:58:14Z</time>
      </trkpt>
      <trkpt lat="42.64793" lon="1.81366">
        <ele>1434.91</ele>
        <time>2014-02-03T15:58:15Z</time>
      </trkpt>
      <trkpt lat="42.64793" lon="1.81365">
        <ele>1434.42</ele>
        <time>2014-02-03T15:58:16Z</time>
      </trkpt>
      <trkpt lat="42.64792" lon="1.81361">
        <ele>1433.94</ele>
        <time>2014-02-03T15:58:18Z</time>
      </trkpt>
      <trkpt lat="42.64792" lon="1.81351">
        <ele>1433.94</ele>
        <time>2014-02-03T15:58:25Z</time>
      </trkpt>
      <trkpt lat="42.64791" lon="1.81342">
        <ele>1433.94</ele>
        <time>2014-02-03T15:58:33Z</time>
      </trkpt>
      <trkpt lat="42.6479" lon="1.81336">
        <ele>1432.5</ele>
        <time>2014-02-03T15:58:38Z</time>
      </trkpt>
      <trkpt lat="42.64789" lon="1.81325">
        <ele>1430.1</ele>
        <time>2014-02-03T15:58:47Z</time>
      </trkpt>
      <trkpt lat="42.64793" lon="1.81322">
        <ele>1430.58</ele>
        <time>2014-02-03T15:58:58Z</time>
      </trkpt>
      <trkpt lat="42.64794" lon="1.81324">
        <ele>1431.06</ele>
        <time>2014-02-03T15:59:01Z</time>
      </trkpt>
      <trkpt lat="42.64801" lon="1.81332">
        <ele>1430.58</ele>
        <time>2014-02-03T15:59:05Z</time>
      </trkpt>
      <trkpt lat="42.64802" lon="1.81335">
        <ele>1430.58</ele>
        <time>2014-02-03T15:59:06Z</time>
      </trkpt>
      <trkpt lat="42.64806" lon="1.81366">
        <ele>1431.06</ele>
        <time>2014-02-03T15:59:18Z</time>
      </trkpt>
      <trkpt lat="42.6481" lon="1.81392">
        <ele>1430.1</ele>
        <time>2014-02-03T15:59:28Z</time>
      </trkpt>
      <trkpt lat="42.64815" lon="1.81415">
        <ele>1430.1</ele>
        <time>2014-02-03T15:59:40Z</time>
      </trkpt>
      <trkpt lat="42.64815" lon="1.81417">
        <ele>1434.42</ele>
        <time>2014-02-03T15:59:53Z</time>
      </trkpt>
      <trkpt lat="42.6483" lon="1.81435">
        <ele>1435.87</ele>
        <time>2014-02-03T16:00:03Z</time>
      </trkpt>
      <trkpt lat="42.64855" lon="1.81455">
        <ele>1436.83</ele>
        <time>2014-02-03T16:00:14Z</time>
      </trkpt>
      <trkpt lat="42.64882" lon="1.81493">
        <ele>1431.54</ele>
        <time>2014-02-03T16:00:25Z</time>
      </trkpt>
      <trkpt lat="42.64882" lon="1.81497">
        <ele>1431.06</ele>
        <time>2014-02-03T16:00:26Z</time>
      </trkpt>
      <trkpt lat="42.64881" lon="1.81502">
        <ele>1430.1</ele>
        <time>2014-02-03T16:00:27Z</time>
      </trkpt>
      <trkpt lat="42.64878" lon="1.81507">
        <ele>1429.62</ele>
        <time>2014-02-03T16:00:28Z</time>
      </trkpt>
      <trkpt lat="42.64876" lon="1.81512">
        <ele>1428.66</ele>
        <time>2014-02-03T16:00:29Z</time>
      </trkpt>
      <trkpt lat="42.64875" lon="1.81517">
        <ele>1428.18</ele>
        <time>2014-02-03T16:00:30Z</time>
      </trkpt>
      <trkpt lat="42.64871" lon="1.81527">
        <ele>1426.25</ele>
        <time>2014-02-03T16:00:32Z</time>
      </trkpt>
      <trkpt lat="42.64871" lon="1.81533">
        <ele>1425.77</ele>
        <time>2014-02-03T16:00:33Z</time>
      </trkpt>
      <trkpt lat="42.64872" lon="1.81539">
        <ele>1424.81</ele>
        <time>2014-02-03T16:00:34Z</time>
      </trkpt>
      <trkpt lat="42.64874" lon="1.81545">
        <ele>1424.33</ele>
        <time>2014-02-03T16:00:35Z</time>
      </trkpt>
      <trkpt lat="42.64876" lon="1.81549">
        <ele>1423.37</ele>
        <time>2014-02-03T16:00:36Z</time>
      </trkpt>
      <trkpt lat="42.64879" lon="1.81552">
        <ele>1422.89</ele>
        <time>2014-02-03T16:00:37Z</time>
      </trkpt>
      <trkpt lat="42.64882" lon="1.81554">
        <ele>1421.93</ele>
        <time>2014-02-03T16:00:38Z</time>
      </trkpt>
      <trkpt lat="42.64914" lon="1.81592">
        <ele>1416.64</ele>
        <time>2014-02-03T16:00:49Z</time>
      </trkpt>
      <trkpt lat="42.64915" lon="1.81597">
        <ele>1416.16</ele>
        <time>2014-02-03T16:00:50Z</time>
      </trkpt>
      <trkpt lat="42.64915" lon="1.81602">
        <ele>1415.68</ele>
        <time>2014-02-03T16:00:51Z</time>
      </trkpt>
      <trkpt lat="42.64914" lon="1.81608">
        <ele>1415.2</ele>
        <time>2014-02-03T16:00:52Z</time>
      </trkpt>
      <trkpt lat="42.64912" lon="1.81614">
        <ele>1414.72</ele>
        <time>2014-02-03T16:00:53Z</time>
      </trkpt>
      <trkpt lat="42.6491" lon="1.8162">
        <ele>1414.24</ele>
        <time>2014-02-03T16:00:54Z</time>
      </trkpt>
      <trkpt lat="42.64907" lon="1.81631">
        <ele>1413.76</ele>
        <time>2014-02-03T16:00:56Z</time>
      </trkpt>
      <trkpt lat="42.64904" lon="1.81651">
        <ele>1413.76</ele>
        <time>2014-02-03T16:01:01Z</time>
      </trkpt>
      <trkpt lat="42.64904" lon="1.81654">
        <ele>1413.76</ele>
        <time>2014-02-03T16:01:02Z</time>
      </trkpt>
      <trkpt lat="42.64905" lon="1.81657">
        <ele>1413.76</ele>
        <time>2014-02-03T16:01:03Z</time>
      </trkpt>
      <trkpt lat="42.64906" lon="1.8166">
        <ele>1414.24</ele>
        <time>2014-02-03T16:01:04Z</time>
      </trkpt>
      <trkpt lat="42.64908" lon="1.81663">
        <ele>1414.24</ele>
        <time>2014-02-03T16:01:05Z</time>
      </trkpt>
      <trkpt lat="42.6491" lon="1.81665">
        <ele>1414.24</ele>
        <time>2014-02-03T16:01:06Z</time>
      </trkpt>
      <trkpt lat="42.64913" lon="1.81665">
        <ele>1413.76</ele>
        <time>2014-02-03T16:01:07Z</time>
      </trkpt>
      <trkpt lat="42.64916" lon="1.81664">
        <ele>1413.28</ele>
        <time>2014-02-03T16:01:08Z</time>
      </trkpt>
      <trkpt lat="42.64918" lon="1.81661">
        <ele>1412.31</ele>
        <time>2014-02-03T16:01:09Z</time>
      </trkpt>
      <trkpt lat="42.64919" lon="1.81657">
        <ele>1411.83</ele>
        <time>2014-02-03T16:01:10Z</time>
      </trkpt>
      <trkpt lat="42.6492" lon="1.81653">
        <ele>1410.87</ele>
        <time>2014-02-03T16:01:11Z</time>
      </trkpt>
      <trkpt lat="42.64921" lon="1.81649">
        <ele>1409.91</ele>
        <time>2014-02-03T16:01:12Z</time>
      </trkpt>
      <trkpt lat="42.64927" lon="1.81611">
        <ele>1404.62</ele>
        <time>2014-02-03T16:01:21Z</time>
      </trkpt>
      <trkpt lat="42.64941" lon="1.81568">
        <ele>1399.82</ele>
        <time>2014-02-03T16:01:32Z</time>
      </trkpt>
      <trkpt lat="42.64936" lon="1.81527">
        <ele>1395.97</ele>
        <time>2014-02-03T16:01:42Z</time>
      </trkpt>
      <trkpt lat="42.64934" lon="1.8151">
        <ele>1394.53</ele>
        <time>2014-02-03T16:01:46Z</time>
      </trkpt>
      <trkpt lat="42.64936" lon="1.81509">
        <ele>1394.53</ele>
        <time>2014-02-03T16:01:47Z</time>
      </trkpt>
      <trkpt lat="42.64939" lon="1.81509">
        <ele>1394.05</ele>
        <time>2014-02-03T16:01:48Z</time>
      </trkpt>
      <trkpt lat="42.64941" lon="1.81511">
        <ele>1394.05</ele>
        <time>2014-02-03T16:01:49Z</time>
      </trkpt>
      <trkpt lat="42.64942" lon="1.81514">
        <ele>1394.05</ele>
        <time>2014-02-03T16:01:50Z</time>
      </trkpt>
      <trkpt lat="42.64953" lon="1.81554">
        <ele>1394.53</ele>
        <time>2014-02-03T16:02:01Z</time>
      </trkpt>
      <trkpt lat="42.64952" lon="1.816">
        <ele>1397.89</ele>
        <time>2014-02-03T16:02:11Z</time>
      </trkpt>
      <trkpt lat="42.64953" lon="1.81618">
        <ele>1397.89</ele>
        <time>2014-02-03T16:02:14Z</time>
      </trkpt>
      <trkpt lat="42.64969" lon="1.81661">
        <ele>1395.01</ele>
        <time>2014-02-03T16:02:24Z</time>
      </trkpt>
      <trkpt lat="42.64978" lon="1.81696">
        <ele>1392.13</ele>
        <time>2014-02-03T16:02:33Z</time>
      </trkpt>
      <trkpt lat="42.64976" lon="1.81755">
        <ele>1392.13</ele>
        <time>2014-02-03T16:02:45Z</time>
      </trkpt>
      <trkpt lat="42.64976" lon="1.81766">
        <ele>1392.61</ele>
        <time>2014-02-03T16:02:47Z</time>
      </trkpt>
      <trkpt lat="42.64976" lon="1.81772">
        <ele>1392.61</ele>
        <time>2014-02-03T16:02:48Z</time>
      </trkpt>
      <trkpt lat="42.64966" lon="1.81812">
        <ele>1392.61</ele>
        <time>2014-02-03T16:02:55Z</time>
      </trkpt>
      <trkpt lat="42.64966" lon="1.81818">
        <ele>1392.61</ele>
        <time>2014-02-03T16:02:56Z</time>
      </trkpt>
      <trkpt lat="42.64968" lon="1.81889">
        <ele>1392.13</ele>
        <time>2014-02-03T16:03:07Z</time>
      </trkpt>
      <trkpt lat="42.64984" lon="1.81969">
        <ele>1384.44</ele>
        <time>2014-02-03T16:03:20Z</time>
      </trkpt>
      <trkpt lat="42.64987" lon="1.81982">
        <ele>1382.51</ele>
        <time>2014-02-03T16:03:22Z</time>
      </trkpt>
      <trkpt lat="42.64989" lon="1.81989">
        <ele>1381.55</ele>
        <time>2014-02-03T16:03:23Z</time>
      </trkpt>
      <trkpt lat="42.64999" lon="1.82013">
        <ele>1376.26</ele>
        <time>2014-02-03T16:03:27Z</time>
      </trkpt>
      <trkpt lat="42.65002" lon="1.82018">
        <ele>1375.3</ele>
        <time>2014-02-03T16:03:28Z</time>
      </trkpt>
      <trkpt lat="42.65028" lon="1.8207">
        <ele>1368.09</ele>
        <time>2014-02-03T16:03:37Z</time>
      </trkpt>
      <trkpt lat="42.65031" lon="1.82075">
        <ele>1367.13</ele>
        <time>2014-02-03T16:03:38Z</time>
      </trkpt>
      <trkpt lat="42.65034" lon="1.82081">
        <ele>1366.65</ele>
        <time>2014-02-03T16:03:39Z</time>
      </trkpt>
      <trkpt lat="42.65077" lon="1.82158">
        <ele>1356.56</ele>
        <time>2014-02-03T16:03:53Z</time>
      </trkpt>
      <trkpt lat="42.65099" lon="1.82204">
        <ele>1351.27</ele>
        <time>2014-02-03T16:04:04Z</time>
      </trkpt>
      <trkpt lat="42.65115" lon="1.82238">
        <ele>1346.46</ele>
        <time>2014-02-03T16:04:13Z</time>
      </trkpt>
      <trkpt lat="42.6515" lon="1.82305">
        <ele>1336.85</ele>
        <time>2014-02-03T16:04:28Z</time>
      </trkpt>
      <trkpt lat="42.65171" lon="1.82344">
        <ele>1333.01</ele>
        <time>2014-02-03T16:04:39Z</time>
      </trkpt>
      <trkpt lat="42.65191" lon="1.82395">
        <ele>1332.04</ele>
        <time>2014-02-03T16:04:52Z</time>
      </trkpt>
      <trkpt lat="42.65205" lon="1.82433">
        <ele>1333.01</ele>
        <time>2014-02-03T16:05:02Z</time>
      </trkpt>
      <trkpt lat="42.65217" lon="1.8248">
        <ele>1332.04</ele>
        <time>2014-02-03T16:05:15Z</time>
      </trkpt>
      <trkpt lat="42.65228" lon="1.82514">
        <ele>1329.16</ele>
        <time>2014-02-03T16:05:23Z</time>
      </trkpt>
      <trkpt lat="42.65228" lon="1.8252">
        <ele>1328.2</ele>
        <time>2014-02-03T16:05:24Z</time>
      </trkpt>
      <trkpt lat="42.65227" lon="1.82526">
        <ele>1327.24</ele>
        <time>2014-02-03T16:05:25Z</time>
      </trkpt>
      <trkpt lat="42.65226" lon="1.82531">
        <ele>1326.76</ele>
        <time>2014-02-03T16:05:26Z</time>
      </trkpt>
      <trkpt lat="42.65223" lon="1.82536">
        <ele>1325.31</ele>
        <time>2014-02-03T16:05:27Z</time>
      </trkpt>
      <trkpt lat="42.65219" lon="1.8254">
        <ele>1324.83</ele>
        <time>2014-02-03T16:05:28Z</time>
      </trkpt>
      <trkpt lat="42.65216" lon="1.82543">
        <ele>1323.87</ele>
        <time>2014-02-03T16:05:29Z</time>
      </trkpt>
      <trkpt lat="42.65212" lon="1.82547">
        <ele>1323.39</ele>
        <time>2014-02-03T16:05:30Z</time>
      </trkpt>
      <trkpt lat="42.65205" lon="1.82554">
        <ele>1321.95</ele>
        <time>2014-02-03T16:05:32Z</time>
      </trkpt>
      <trkpt lat="42.65202" lon="1.82559">
        <ele>1321.47</ele>
        <time>2014-02-03T16:05:33Z</time>
      </trkpt>
      <trkpt lat="42.65199" lon="1.82563">
        <ele>1321.47</ele>
        <time>2014-02-03T16:05:34Z</time>
      </trkpt>
      <trkpt lat="42.65197" lon="1.82568">
        <ele>1320.99</ele>
        <time>2014-02-03T16:05:35Z</time>
      </trkpt>
      <trkpt lat="42.65194" lon="1.82572">
        <ele>1320.51</ele>
        <time>2014-02-03T16:05:36Z</time>
      </trkpt>
      <trkpt lat="42.65185" lon="1.82585">
        <ele>1318.59</ele>
        <time>2014-02-03T16:05:39Z</time>
      </trkpt>
      <trkpt lat="42.65181" lon="1.82588">
        <ele>1318.1</ele>
        <time>2014-02-03T16:05:40Z</time>
      </trkpt>
      <trkpt lat="42.65177" lon="1.82591">
        <ele>1317.14</ele>
        <time>2014-02-03T16:05:41Z</time>
      </trkpt>
      <trkpt lat="42.65137" lon="1.82619">
        <ele>1310.9</ele>
        <time>2014-02-03T16:05:53Z</time>
      </trkpt>
      <trkpt lat="42.65129" lon="1.82622">
        <ele>1309.45</ele>
        <time>2014-02-03T16:05:55Z</time>
      </trkpt>
      <trkpt lat="42.65065" lon="1.82649">
        <ele>1301.28</ele>
        <time>2014-02-03T16:06:09Z</time>
      </trkpt>
      <trkpt lat="42.65038" lon="1.82658">
        <ele>1297.92</ele>
        <time>2014-02-03T16:06:15Z</time>
      </trkpt>
      <trkpt lat="42.65022" lon="1.82665">
        <ele>1296.48</ele>
        <time>2014-02-03T16:06:18Z</time>
      </trkpt>
      <trkpt lat="42.65016" lon="1.82668">
        <ele>1295.51</ele>
        <time>2014-02-03T16:06:19Z</time>
      </trkpt>
      <trkpt lat="42.65011" lon="1.82671">
        <ele>1295.03</ele>
        <time>2014-02-03T16:06:20Z</time>
      </trkpt>
      <trkpt lat="42.64982" lon="1.82683">
        <ele>1290.71</ele>
        <time>2014-02-03T16:06:28Z</time>
      </trkpt>
      <trkpt lat="42.64979" lon="1.82686">
        <ele>1290.23</ele>
        <time>2014-02-03T16:06:29Z</time>
      </trkpt>
      <trkpt lat="42.64977" lon="1.82689">
        <ele>1289.27</ele>
        <time>2014-02-03T16:06:30Z</time>
      </trkpt>
      <trkpt lat="42.64975" lon="1.8269">
        <ele>1288.78</ele>
        <time>2014-02-03T16:06:31Z</time>
      </trkpt>
      <trkpt lat="42.64975" lon="1.82689">
        <ele>1286.86</ele>
        <time>2014-02-03T16:06:39Z</time>
      </trkpt>
      <trkpt lat="42.64974" lon="1.82689">
        <ele>1284.46</ele>
        <time>2014-02-03T16:06:53Z</time>
      </trkpt>
      <trkpt lat="42.64974" lon="1.82689">
        <ele>1284.94</ele>
        <time>2014-02-03T16:06:56Z</time>
      </trkpt>
      <trkpt lat="42.64975" lon="1.8269">
        <ele>1283.5</ele>
        <time>2014-02-03T16:07:06Z</time>
      </trkpt>
      <trkpt lat="42.64975" lon="1.82689">
        <ele>1283.02</ele>
        <time>2014-02-03T16:07:10Z</time>
      </trkpt>
      <trkpt lat="42.64974" lon="1.82688">
        <ele>1282.54</ele>
        <time>2014-02-03T16:07:11Z</time>
      </trkpt>
      <trkpt lat="42.64972" lon="1.82683">
        <ele>1283.02</ele>
        <time>2014-02-03T16:07:18Z</time>
      </trkpt>
      <trkpt lat="42.64971" lon="1.82684">
        <ele>1283.98</ele>
        <time>2014-02-03T16:07:27Z</time>
      </trkpt>
      <trkpt lat="42.6497" lon="1.82684">
        <ele>1284.94</ele>
        <time>2014-02-03T16:07:39Z</time>
      </trkpt>
      <trkpt lat="42.64971" lon="1.82683">
        <ele>1282.54</ele>
        <time>2014-02-03T16:07:51Z</time>
      </trkpt>
      <trkpt lat="42.64974" lon="1.82682">
        <ele>1281.09</ele>
        <time>2014-02-03T16:08:13Z</time>
      </trkpt>
      <trkpt lat="42.64973" lon="1.82683">
        <ele>1279.65</ele>
        <time>2014-02-03T16:08:38Z</time>
      </trkpt>
      <trkpt lat="42.64973" lon="1.82685">
        <ele>1283.98</ele>
        <time>2014-02-03T16:09:00Z</time>
      </trkpt>
    </trkseg>
  </trk>
</gpx>